GFSSW_250_spd_000.txt.gz
Wind_Speed
76 75 78 72 60 50 41 38 35 34 35 34 34 35 38 38 39 38 37 41 43 40 43 44 46 46 44 45 46 48 49 51 53 58 59 65 70 74 75 79 84 73 75 72 73
76 73 75 67 55 40 38 35 33 34 35 34 36 37 38 38 38 36 38 37 40 41 42 41 41 40 38 38 42 43 46 48 48 49 55 58 67 71 63 69 75 79 76 77 78
76 75 68 58 49 37 35 34 32 34 32 31 33 33 36 36 36 34 33 35 38 40 40 38 35 32 33 36 38 41 42 44 44 48 51 54 64 64 68 63 68 69 67 75 78
71 67 64 54 45 36 34 35 34 31 31 31 29 30 31 32 33 33 32 32 35 34 33 30 29 31 35 35 36 36 38 40 46 46 45 48 54 58 63 64 62 70 68 65 59
71 62 65 50 39 35 35 34 31 27 28 27 29 30 30 29 30 31 29 29 32 32 28 25 24 24 30 33 32 32 36 40 40 46 47 45 47 54 60 57 61 60 62 68 63
68 65 60 44 34 35 36 31 26 25 25 26 26 25 25 26 29 29 28 30 31 30 28 25 21 22 23 30 32 30 30 32 38 42 43 47 49 46 59 65 63 67 68 66 66
68 65 48 36 33 36 36 29 23 23 21 21 20 20 21 25 26 26 27 27 28 29 28 28 27 27 27 29 29 29 28 28 30 35 40 44 44 51 48 53 62 67 70 70 74
62 56 37 33 36 37 31 25 21 19 16 16 16 18 23 25 26 27 27 28 29 28 29 29 29 27 28 29 30 29 26 28 27 26 29 34 38 45 49 50 50 58 63 65 60
61 50 31 32 39 34 25 20 17 14 12 15 17 21 21 24 26 28 29 30 31 28 26 28 26 26 27 27 22 21 24 26 28 29 29 29 32 36 40 45 47 49 51 56 62
55 41 30 34 36 26 19 15 14 12 12 15 19 20 18 18 19 23 23 25 25 23 23 23 22 22 21 22 23 23 24 27 30 32 33 33 34 34 35 37 39 44 46 48 51
52 34 32 34 26 19 15 15 15 17 16 17 19 20 21 21 20 20 19 19 21 24 24 23 22 24 24 27 26 26 25 27 30 31 32 33 36 37 39 39 40 43 42 43 43
44 28 33 28 17 15 14 16 20 19 19 19 19 19 20 21 22 21 21 20 23 25 24 23 25 27 27 26 25 22 21 25 30 31 30 31 34 33 32 32 33 33 34 33 34
36 27 31 21 15 14 15 19 20 18 19 19 18 19 19 20 20 21 21 21 22 22 22 21 21 21 21 21 19 19 22 25 26 24 22 22 23 24 25 27 28 27 29 31 32
28 28 25 18 13 16 19 19 18 18 18 17 16 17 18 18 18 16 16 17 19 20 19 17 20 21 21 20 17 14 16 16 18 16 16 17 18 22 24 27 26 25 26 26 30
24 26 20 18 16 19 19 19 20 18 18 18 16 18 19 19 20 19 18 17 14 13 15 16 18 19 19 14 15 16 14 11 9 10 12 13 15 18 22 24 23 24 27 28 28
21 22 16 20 20 21 23 24 23 22 21 17 15 17 17 16 17 17 16 15 16 13 12 15 17 14 12 10 9 9 7 6 6 7 12 16 18 23 22 23 23 23 22 20 21
23 20 20 23 24 24 25 26 24 22 20 18 18 19 19 18 15 14 13 14 12 13 14 14 12 14 14 10 7 6 7 8 10 13 18 20 22 21 18 16 18 20 23 24 25
26 23 26 27 26 27 27 26 25 22 22 18 18 17 15 14 13 13 14 14 15 14 11 11 12 12 8 7 7 7 7 8 7 6 5 5 8 11 16 19 22 24 26 28 31
27 28 29 29 28 27 28 29 26 23 21 18 18 18 16 16 16 15 14 13 12 12 14 14 12 10 10 11 12 11 8 6 6 7 7 7 9 13 17 21 24 27 30 33 36
33 33 32 30 29 29 29 27 24 21 20 21 20 18 17 16 15 14 14 15 16 14 14 13 14 16 14 11 9 6 3 2 2 5 8 11 14 17 20 22 25 29 32 36 39
39 35 34 32 32 31 28 24 24 22 24 24 20 18 17 14 12 12 14 13 13 14 15 17 14 13 11 7 3 2 2 3 6 9 11 13 14 16 20 23 27 33 38 43 47
40 38 35 34 34 33 30 26 27 26 26 24 20 18 16 11 10 12 13 13 15 17 17 15 13 9 7 3 3 5 6 7 10 12 15 17 18 22 25 29 34 39 44 47 50
41 40 36 37 36 34 32 31 30 29 28 24 21 19 16 14 13 14 15 17 18 17 15 14 11 8 5 6 8 10 11 12 15 18 20 20 23 27 30 36 41 46 50 52 53
44 41 37 40 39 36 35 32 33 31 27 25 22 19 16 14 15 16 18 17 17 15 14 11 9 8 8 11 13 15 15 17 20 22 26 26 29 31 37 42 46 51 50 53 56
40 39 39 40 37 36 34 35 33 29 26 26 23 20 17 15 16 17 19 19 17 14 13 12 12 12 13 16 17 20 22 24 27 29 32 33 34 37 42 47 52 56 56 57 57
40 41 41 45 41 38 36 35 32 28 27 26 23 20 19 17 16 14 14 14 14 14 14 15 17 17 17 18 20 24 28 29 31 35 37 36 40 44 48 50 54 60 62 62 61
44 44 45 45 39 36 37 36 32 29 28 27 25 21 19 18 17 16 14 14 16 18 20 21 20 20 23 25 24 30 31 32 35 39 39 39 45 50 52 56 61 66 66 68 70

GFSSW_250_spd_006.txt.gz
Wind_Speed
67 69 67 69 75 77 74 73 68 71 66 51 36 33 30 29 27 33 33 35 38 40 40 43 44 46 42 39 40 39 37 38 38 38 43 46 49 53 55 57 59 64 66 70 66
72 72 68 71 73 80 82 76 70 73 66 46 33 34 33 28 28 30 36 34 35 35 37 38 39 39 35 33 37 33 34 37 38 41 45 45 46 49 51 54 58 62 61 66 69
73 74 70 73 79 81 83 77 74 69 60 41 33 35 27 22 22 26 28 33 34 32 34 34 34 33 30 30 30 29 31 32 34 34 37 40 41 42 47 52 54 58 63 61 67
75 77 69 71 77 84 86 77 75 73 55 40 35 33 24 19 20 21 24 30 29 31 32 32 30 27 26 27 25 26 27 24 27 32 32 32 33 36 37 38 42 48 53 55 58
77 78 69 72 77 83 85 78 76 68 51 43 35 30 24 19 17 18 24 28 31 30 31 28 27 27 23 22 23 23 22 19 21 24 25 27 26 26 34 36 33 34 35 42 49
81 76 71 74 80 81 85 76 71 61 50 41 34 29 23 18 16 18 21 25 27 28 27 24 24 22 21 25 24 23 20 22 21 21 21 21 22 24 26 30 31 27 27 32 38
80 75 73 78 78 82 81 74 68 53 51 39 31 24 19 16 16 18 19 21 26 24 22 23 24 27 28 25 24 23 26 28 25 23 28 27 27 27 28 29 34 34 29 28 29
77 73 72 80 79 81 78 69 62 50 44 33 26 19 14 14 15 20 20 21 22 23 24 28 30 28 24 22 21 25 27 29 29 23 20 21 24 26 28 28 27 28 31 30 32
74 72 71 79 80 79 75 68 56 50 35 27 21 16 11 11 15 19 22 23 22 22 25 30 32 32 26 25 23 25 27 26 25 25 25 25 24 26 25 24 27 26 28 31 33
71 71 73 80 82 78 72 63 55 42 28 21 17 13 8 10 14 17 21 23 23 22 31 32 33 30 27 26 25 25 21 25 27 28 27 26 26 27 27 26 27 26 26 28 31
71 70 74 82 91 78 69 59 51 32 20 16 13 14 10 11 14 17 21 21 22 25 30 32 32 31 27 24 26 25 26 26 25 25 24 27 27 29 28 28 29 29 28 29 31
70 71 78 83 84 77 65 53 41 24 16 15 13 14 12 13 15 17 20 21 22 24 29 31 30 27 24 25 27 25 24 23 24 24 23 25 26 26 27 28 28 29 30 31 32
73 75 81 80 85 77 60 49 30 19 16 13 13 12 13 14 17 21 22 20 21 23 24 26 26 23 25 26 24 22 22 23 23 25 26 28 28 26 24 24 25 27 28 28 28
77 79 82 84 81 68 53 42 25 16 15 14 14 13 15 17 17 20 24 26 28 26 25 24 24 25 27 25 24 24 24 25 24 23 23 24 24 23 22 21 22 21 19 19 20
81 82 82 83 80 58 47 32 21 18 17 17 15 14 15 18 19 21 22 24 24 25 25 24 24 24 24 25 24 23 23 22 19 19 24 24 21 21 18 14 12 12 15 16 16
83 83 85 81 79 55 43 26 19 20 19 17 17 15 16 18 21 22 22 26 24 23 21 20 21 23 24 21 22 21 20 20 21 21 21 19 17 16 9 10 12 13 10 8 10
84 84 83 77 73 45 37 21 18 20 19 18 17 15 15 17 19 22 24 24 23 22 21 21 21 22 21 20 18 17 20 19 17 16 14 11 13 11 10 8 5 7 9 12 15
87 84 85 77 60 41 31 20 20 18 18 18 18 18 18 18 18 18 18 19 22 23 23 22 21 18 15 15 18 20 17 15 14 13 9 7 6 3 2 4 8 11 13 15 16
87 86 82 67 48 38 27 19 20 21 21 19 19 20 19 20 20 21 21 21 20 21 22 21 18 17 20 21 20 20 17 15 14 11 8 5 3 4 6 8 11 13 14 15 18
87 85 73 53 41 34 24 21 24 25 25 22 21 20 19 18 18 18 18 17 15 15 17 20 21 21 21 19 17 14 13 12 9 7 5 5 5 6 8 11 13 15 17 21 25
81 76 57 44 38 31 25 28 30 29 25 23 23 23 21 20 18 18 17 17 16 15 16 17 17 18 19 18 18 17 14 11 9 7 7 7 8 10 13 16 18 20 23 26 30
70 63 47 40 35 32 29 30 32 29 27 28 26 23 21 20 18 17 17 16 15 16 17 19 21 23 22 22 19 16 12 10 9 9 10 12 12 14 16 19 23 26 29 32 35
69 50 43 39 34 33 33 33 33 31 33 31 27 23 22 18 17 16 16 16 15 17 21 24 26 24 22 19 16 14 14 14 13 13 15 17 19 19 23 26 28 32 35 38 41
66 50 44 39 39 36 37 37 34 35 35 32 26 24 23 21 19 18 18 17 17 22 25 25 24 21 18 16 16 15 14 14 14 15 20 22 24 26 29 32 34 36 37 40 45
55 45 44 41 40 39 39 39 37 34 34 31 28 27 25 24 20 17 16 18 23 28 25 24 23 21 19 16 15 15 14 17 18 21 25 27 30 28 29 35 37 40 41 44 49
49 48 44 46 46 44 41 40 38 37 36 32 30 28 27 24 20 19 20 21 25 24 21 22 23 22 21 20 18 17 20 22 22 26 29 30 36 34 36 38 41 43 45 48 54
53 52 49 51 49 47 44 42 40 39 37 33 32 30 27 25 23 24 23 23 25 25 25 24 25 25 25 22 20 22 25 26 28 31 32 34 37 39 41 43 45 46 48 54 59

GFSSW_250_spd_009.txt.gz
Wind_Speed
58 64 67 71 71 76 81 81 72 73 71 73 65 57 41 38 36 35 33 32 32 35 39 42 43 40 39 43 39 42 42 43 42 44 36 48 47 49 48 52 55 47 59 61 64
59 63 69 72 73 78 83 83 73 76 73 71 70 54 42 39 36 33 32 32 30 35 35 37 37 36 38 37 35 35 34 34 33 35 36 41 42 43 42 47 48 55 58 52 52
59 65 69 74 73 78 82 79 74 73 72 74 74 54 44 41 32 27 27 27 27 31 35 36 36 36 35 30 30 30 33 28 17 37 38 41 39 42 38 36 46 47 47 48 54
61 64 68 71 74 79 80 76 74 74 83 77 74 54 48 39 28 24 24 25 23 28 31 34 37 36 32 30 26 25 26 26 29 31 35 34 31 29 30 19 39 33 44 44 46
64 66 66 71 75 79 79 76 72 75 85 78 71 56 49 35 25 20 20 18 20 22 29 27 31 30 28 25 26 26 25 24 23 31 31 25 26 22 28 41 49 39 36 37 40
63 67 67 71 75 77 79 73 73 74 82 82 68 58 44 32 22 18 17 17 18 21 25 26 25 23 24 25 24 22 23 25 23 19 19 19 21 25 26 29 41 40 35 27 28
63 66 69 74 78 78 82 75 77 74 80 79 65 53 40 25 19 16 15 17 19 24 24 26 21 20 27 27 24 23 25 24 23 23 19 19 23 22 26 26 26 26 28 28 26
66 68 71 73 78 78 81 77 75 75 77 76 62 47 30 22 18 15 16 16 19 25 25 25 25 31 30 28 27 28 27 25 28 28 21 25 29 28 28 28 28 28 29 31 35
67 69 72 77 77 78 78 75 75 74 76 75 57 39 26 22 17 14 19 17 21 25 24 23 28 31 30 29 28 27 29 29 28 30 28 24 25 26 26 28 31 30 28 27 29
68 73 76 78 75 79 76 75 72 72 74 70 49 33 23 19 13 14 21 19 23 23 24 25 32 30 32 32 31 30 27 27 29 27 26 29 29 28 27 27 27 26 27 31 29
71 74 74 75 75 82 73 73 73 72 71 62 43 29 23 17 10 14 22 25 25 27 25 30 34 34 35 33 27 28 27 25 22 24 28 30 30 31 28 28 29 29 29 30 31
75 74 78 78 75 81 70 73 73 72 73 54 40 25 21 17 12 14 21 25 26 27 27 32 33 35 34 31 29 27 24 24 24 27 28 29 28 27 29 29 29 31 32 33 32
75 74 77 77 78 81 73 73 72 67 69 50 35 22 19 16 13 15 18 22 27 26 29 32 33 35 33 31 27 25 26 25 26 26 25 26 26 27 28 28 29 29 30 30 31
76 77 76 76 77 78 75 71 71 65 65 46 30 22 19 17 14 18 19 21 22 24 28 35 35 32 33 28 25 25 27 26 26 26 25 25 27 28 26 25 27 27 27 28 28
77 79 76 76 73 76 74 72 70 68 61 43 28 22 21 19 16 19 22 24 26 27 26 24 30 31 30 28 26 28 26 26 26 24 25 22 21 21 23 20 22 24 25 25 20
81 80 77 77 76 76 78 73 68 71 59 41 27 25 22 19 19 19 21 23 26 28 28 29 28 25 24 25 26 27 27 29 27 24 24 21 20 22 16 13 21 20 18 14 12
81 79 77 76 79 77 78 75 67 68 54 37 24 24 23 21 21 22 23 23 24 25 26 26 27 28 27 27 28 29 26 23 24 23 18 14 17 17 13 20 20 14 12 13 13
76 76 77 79 80 78 76 75 71 64 51 33 25 25 24 21 21 22 25 27 25 28 27 26 26 26 26 25 25 23 22 21 19 17 14 14 17 12 15 16 13 13 12 11 12
83 82 81 82 82 79 73 73 70 65 45 27 25 26 26 22 22 22 24 25 28 30 30 28 27 26 24 22 21 19 18 17 17 14 13 11 10 10 10 10 10 11 11 13 15
90 86 86 85 83 77 71 73 66 59 40 27 26 25 23 21 21 21 21 21 20 21 23 24 23 22 22 21 20 17 17 16 15 14 14 14 12 10 9 10 11 13 15 18 21
92 87 87 87 81 74 69 72 67 48 37 28 27 25 23 20 19 19 18 19 19 19 21 22 23 22 21 20 19 19 19 18 17 17 16 14 11 9 10 13 15 18 22 25 28
90 86 83 85 77 74 70 70 62 44 34 29 29 27 24 23 22 22 21 21 21 22 22 23 22 24 22 22 21 20 18 17 16 15 13 12 13 14 16 18 19 22 26 28 32
87 90 87 83 74 71 69 70 50 46 34 33 31 27 25 26 24 22 22 22 21 21 22 23 24 24 24 25 24 22 21 20 19 17 17 18 18 21 22 24 27 30 33 35 39
94 90 86 78 75 73 71 61 49 45 35 35 32 31 29 28 24 22 21 21 20 20 22 24 25 26 26 23 23 23 22 21 20 19 21 22 24 24 26 29 31 34 36 38 44
90 87 82 77 74 70 64 50 48 42 38 36 34 34 32 29 26 25 24 22 22 22 25 27 28 29 25 25 23 22 22 23 23 23 25 27 28 28 30 34 37 39 42 45 47
83 79 76 74 65 59 53 49 47 44 41 38 39 36 32 30 27 24 22 22 22 24 27 29 29 28 27 26 24 24 26 26 26 26 27 29 33 33 37 38 40 40 43 46 49
76 71 72 60 52 55 51 48 48 45 41 40 38 36 35 33 29 26 24 23 24 26 29 30 29 29 29 28 28 29 29 27 29 31 31 33 37 40 42 42 43 45 46 49 53

GFSSW_250_spd_015.txt.gz
Wind_Speed
54 52 55 56 56 57 61 62 63 64 70 69 70 76 77 80 76 74 56 42 34 28 22 22 23 23 23 27 29 31 39 52 51 50 38 36 36 43 44 40 38 32 19 17 24
53 53 54 56 56 58 58 59 66 66 68 66 72 76 80 80 78 69 50 37 29 23 20 17 18 19 23 27 31 36 43 37 37 33 29 31 35 36 33 32 29 12 15 16 13
52 53 53 57 58 54 59 62 68 65 68 67 72 76 80 76 78 64 46 35 26 20 15 10 13 16 25 26 34 39 35 29 31 28 33 33 40 36 31 35 27 22 30 27 31
55 53 53 55 58 59 60 65 69 66 67 67 72 76 77 76 74 58 44 35 25 18 13 9 11 23 27 27 29 33 33 32 28 36 37 31 28 22 26 30 24 24 32 27 29
58 56 52 56 60 58 61 64 65 64 64 68 71 72 74 76 75 55 42 34 23 15 12 8 13 21 30 32 31 29 28 31 36 44 40 38 33 22 21 29 30 36 32 36 39
60 60 52 56 57 59 63 64 62 61 64 68 67 71 71 73 73 53 44 34 21 13 10 10 22 19 28 31 27 28 31 31 35 37 43 41 32 28 31 34 29 34 39 36 33
58 59 53 57 61 61 64 64 62 63 64 66 64 72 73 74 70 51 41 33 19 10 8 11 23 23 25 24 21 23 30 31 27 35 33 30 25 26 24 20 24 34 39 36 41
66 61 57 60 63 63 66 64 64 61 62 63 65 71 72 70 68 49 39 31 15 15 9 13 19 28 30 33 31 28 35 29 31 30 34 33 24 29 24 26 25 38 47 45 45
70 66 63 63 64 67 67 66 64 57 59 63 64 70 69 66 67 46 37 29 11 9 6 14 19 26 27 28 31 39 34 35 37 34 32 28 27 29 26 23 23 30 43 52 49
68 65 65 63 64 67 67 63 57 57 59 61 64 68 66 63 60 42 36 27 13 11 6 15 21 23 27 35 34 30 33 34 43 30 28 23 22 20 21 21 18 24 30 35 38
65 64 65 64 65 68 65 62 57 56 59 62 63 65 63 60 57 39 31 24 17 10 8 16 21 24 26 31 34 33 35 39 30 25 22 26 27 26 23 22 19 21 10 23 28
68 65 63 67 66 66 65 59 59 56 60 59 61 64 60 58 58 39 30 23 16 13 12 19 23 26 32 33 34 32 25 24 23 23 22 23 29 23 28 31 28 30 28 30 31
69 68 67 66 68 67 65 61 58 57 57 59 60 61 57 56 58 41 30 21 15 16 16 18 22 27 35 31 34 28 26 22 26 26 28 24 24 24 28 29 29 31 35 39 43
70 69 70 68 70 69 63 63 55 57 54 58 59 60 58 56 54 40 29 20 14 20 19 18 21 24 30 34 27 26 23 21 23 24 22 26 21 24 27 31 34 30 32 35 35
71 71 71 67 69 67 64 60 56 57 55 57 60 58 55 54 47 42 29 20 15 15 21 19 18 19 25 28 24 24 25 24 23 25 25 25 27 26 28 32 23 25 26 16 18
75 76 73 74 73 66 64 61 58 56 56 53 56 55 54 53 53 41 29 21 14 13 15 15 17 19 21 26 25 25 26 28 23 23 24 30 22 23 28 25 27 26 26 27 23
75 75 75 74 73 67 67 65 58 52 56 53 52 52 52 54 52 46 29 22 19 15 20 18 19 21 22 22 26 26 30 27 26 28 28 24 26 27 28 20 18 21 28 28 25
75 75 73 76 72 73 70 68 56 53 57 53 52 51 51 50 51 45 28 22 23 17 22 22 19 19 20 26 25 30 26 23 27 27 28 25 28 29 24 17 20 27 30 25 31
85 78 75 79 76 77 72 64 51 56 57 53 53 52 50 49 48 43 28 23 23 22 20 24 25 24 26 25 28 28 24 27 28 25 27 27 26 20 21 22 23 34 31 29 33
90 84 80 85 77 78 71 54 54 59 55 53 53 52 50 47 42 41 30 23 22 22 23 21 28 26 29 26 27 27 29 28 27 26 24 25 24 23 25 21 19 27 31 31 33
90 87 88 90 85 80 66 54 57 62 56 53 52 52 51 48 39 39 31 26 21 19 23 27 30 32 32 26 30 34 31 28 24 23 23 28 23 27 23 21 19 21 24 27 27
93 87 90 91 86 73 62 55 61 61 50 51 53 51 51 52 40 35 29 28 19 18 23 24 27 30 28 30 29 31 29 23 23 24 24 27 25 23 21 20 21 21 24 27 28
98 90 94 95 82 69 59 59 61 57 52 52 54 55 53 52 39 33 29 27 25 19 21 22 25 25 24 27 25 25 22 24 24 25 28 25 22 23 21 22 25 27 27 28 30
105 100 100 95 78 70 62 58 61 55 53 53 56 56 55 51 41 34 31 31 22 25 24 25 26 24 25 26 24 24 25 27 27 30 26 27 21 26 23 25 29 30 32 31 32
109 100 97 89 78 67 61 61 60 56 53 57 58 58 56 48 36 32 30 31 26 24 23 26 28 27 27 28 25 26 26 27 30 32 26 27 27 26 25 27 30 33 36 38 43
109 99 94 91 80 77 71 67 61 58 58 59 61 61 56 48 40 36 30 32 27 24 24 25 25 25 27 26 24 27 29 32 34 29 29 27 26 28 28 31 33 36 34 37 44
102 95 94 89 84 78 67 65 63 62 61 61 62 62 55 44 36 32 33 35 26 26 25 26 28 27 29 29 31 30 36 31 29 28 28 28 28 30 31 34 36 40 44 46 48

GFSSW_250_spd_018.txt.gz
Wind_Speed
51 55 57 53 56 52 49 49 49 52 57 62 68 71 67 72 75 73 77 65 56 46 32 23 20 22 25 22 24 37 44 39 36 35 39 34 37 40 40 43 46 46 43 40 39
55 56 59 53 54 51 48 45 47 56 58 61 67 68 69 73 72 76 75 63 52 42 29 22 19 16 16 20 29 35 37 33 37 29 23 28 34 37 43 44 46 43 29 26 24
56 57 56 60 56 52 51 48 50 57 58 61 67 68 69 72 71 74 75 61 51 41 28 23 17 13 17 21 30 32 30 34 29 25 22 27 28 32 35 36 26 24 27 28 19
57 57 62 66 57 56 56 51 54 57 58 61 65 69 68 69 71 73 71 55 48 36 25 22 16 12 19 21 30 31 30 28 24 28 29 30 33 35 33 24 29 30 34 36 29
60 56 60 68 61 57 58 54 54 57 57 60 66 69 66 70 69 72 68 54 46 31 22 19 12 7 17 16 24 27 27 24 22 31 31 31 36 40 32 26 39 33 34 42 45
65 58 59 63 65 57 57 55 53 55 57 61 65 65 63 68 69 70 65 51 44 28 20 18 7 11 16 12 12 20 26 25 27 33 35 40 32 36 33 35 38 35 41 49 48
67 62 58 59 63 56 56 57 53 54 57 60 62 59 62 67 69 67 64 48 41 28 19 18 9 10 23 23 16 12 14 29 34 36 36 36 33 26 30 47 42 37 45 50 46
66 61 56 56 55 53 58 54 55 56 60 58 59 58 59 64 66 63 60 46 36 28 20 12 13 12 22 26 26 23 28 29 32 36 37 37 31 28 28 27 38 40 43 46 52
63 61 60 57 54 58 61 58 56 56 57 56 57 56 57 62 63 61 56 41 32 26 21 10 15 16 17 21 24 27 32 34 32 38 41 35 27 28 24 24 26 32 37 46 47
63 63 61 50 52 53 54 53 56 57 55 55 57 56 55 59 60 59 53 39 31 25 20 8 9 20 22 23 30 28 37 38 35 36 34 34 26 22 21 25 29 30 36 52 56
62 62 65 62 56 55 57 54 54 54 54 55 57 56 55 57 60 56 51 38 29 25 18 11 11 18 25 26 29 30 34 37 35 29 26 33 24 22 25 26 27 29 31 43 55
65 64 64 56 56 58 56 54 59 57 53 55 57 53 53 56 58 55 49 40 27 24 18 13 11 16 23 28 30 29 38 35 31 29 29 27 29 29 31 26 25 24 27 34 41
69 70 69 68 69 67 66 60 59 54 54 54 55 53 53 55 57 53 50 38 25 20 17 14 12 18 21 22 28 31 27 26 24 27 25 26 27 27 31 32 31 31 29 31 36
70 69 68 67 65 66 65 62 57 52 53 53 52 53 52 56 56 52 50 39 26 18 15 13 12 15 17 20 28 28 26 25 26 26 28 27 26 26 30 30 30 33 37 33 30
71 64 67 64 64 66 64 61 58 55 50 52 52 53 51 52 54 52 50 40 26 19 13 12 17 16 14 20 28 28 27 30 27 25 26 28 27 29 25 25 27 32 34 35 38
76 72 64 63 67 61 61 61 57 56 52 52 52 52 50 52 53 48 48 41 26 19 15 14 15 17 14 18 22 31 30 26 26 24 23 25 25 26 29 31 30 30 33 37 39
78 75 72 68 70 65 65 63 59 52 57 53 52 48 48 51 50 46 45 41 28 22 17 18 13 13 13 17 20 28 28 30 30 31 29 27 26 27 26 28 30 32 30 30 32
84 77 73 73 70 69 71 66 54 53 58 55 51 47 50 52 49 44 43 41 27 24 20 17 17 15 14 15 18 25 31 32 31 32 31 29 27 23 26 29 32 30 26 27 29
91 84 77 77 72 72 69 58 47 53 61 54 49 49 51 48 49 43 41 39 28 22 23 20 22 18 15 19 25 27 25 26 25 29 30 28 26 25 28 28 28 30 26 22 23
93 90 83 85 79 79 72 52 48 60 60 53 51 51 50 48 50 42 38 36 32 23 24 23 21 26 20 22 24 26 26 27 29 29 31 27 26 30 27 26 27 28 25 22 22
98 93 86 90 86 84 65 56 58 64 61 57 53 50 51 49 43 41 38 35 32 25 23 22 23 31 26 25 21 22 27 27 28 31 33 32 27 29 26 24 24 25 22 20 22
102 95 91 96 89 80 66 58 60 65 62 59 55 54 47 44 44 41 39 38 33 26 25 21 23 26 26 24 23 26 34 32 32 32 34 34 28 26 22 20 20 22 25 25 24
104 100 97 105 90 74 68 62 66 70 62 59 52 51 50 46 46 43 38 39 33 28 27 23 23 23 23 23 25 25 25 25 27 30 31 30 27 21 22 18 21 23 24 24 28
110 108 101 107 85 77 69 64 66 69 64 59 51 53 50 49 47 42 40 41 33 26 27 25 22 19 20 21 19 20 22 22 24 28 29 30 26 22 19 19 22 25 27 29 30
119 108 101 96 83 76 69 63 68 71 64 59 53 52 50 51 43 42 43 39 35 26 24 23 25 21 23 21 20 20 26 26 27 31 31 29 28 21 21 21 24 29 32 32 34
115 109 100 95 88 84 79 69 70 73 63 53 49 50 51 48 45 45 47 41 35 28 22 24 24 23 24 25 23 25 27 31 30 30 31 29 27 20 19 25 30 34 34 36 37
106 108 98 97 94 88 75 66 66 69 64 57 49 51 49 47 42 46 47 39 34 29 23 27 25 23 24 24 25 25 33 28 29 29 28 27 24 26 29 32 34 35 37 40 44

GFSSW_250_spd_021.txt.gz
Wind_Speed
59 59 59 58 55 50 49 54 54 55 51 54 58 63 66 71 73 76 80 83 86 77 60 50 36 29 27 25 27 26 28 29 30 31 33 29 28 35 39 45 47 51 47 34 28
62 60 59 59 58 56 53 52 52 58 55 56 62 62 63 68 71 76 77 83 84 73 58 47 36 27 23 22 26 27 26 27 29 26 26 30 32 35 37 43 45 41 34 26 36
59 61 60 60 59 53 53 50 51 56 55 60 63 64 63 66 70 73 77 82 85 70 57 46 37 28 18 17 25 22 22 23 29 25 28 32 33 28 35 43 44 39 30 31 35
61 56 59 59 54 53 52 54 48 54 58 60 60 62 62 60 67 71 75 80 79 67 55 45 35 29 12 9 11 13 16 20 28 24 26 32 35 36 33 42 36 35 30 29 37
66 63 64 63 60 61 61 59 49 54 59 59 59 56 57 59 65 68 73 76 76 64 51 42 33 21 8 2 6 11 14 24 26 27 26 25 29 23 29 30 34 34 32 32 36
63 62 61 60 62 60 60 59 49 51 56 55 50 54 56 57 62 66 70 73 73 61 48 39 32 14 5 3 11 13 12 21 26 25 22 23 23 24 27 28 28 31 36 38 41
58 59 61 63 63 64 61 61 48 48 54 50 52 53 54 59 61 65 68 71 71 59 45 37 29 8 6 9 12 10 12 12 18 25 24 27 26 28 29 29 30 41 37 44 47
60 61 65 64 67 65 60 59 49 49 53 53 52 53 55 57 60 63 65 69 68 60 41 33 25 8 7 8 15 18 18 23 26 24 25 30 32 33 32 35 35 44 40 46 53
60 57 59 59 61 64 60 57 53 49 48 52 52 50 50 54 58 61 64 68 64 59 38 30 22 9 6 16 13 21 23 19 27 27 35 32 34 32 35 40 40 43 43 44 45
63 62 61 59 60 58 57 55 56 55 56 57 51 52 51 54 58 60 62 66 61 57 36 25 19 11 11 11 18 17 18 23 29 31 39 34 36 29 29 24 35 28 39 42 40
77 78 63 62 63 59 56 52 52 54 55 53 52 55 52 53 56 58 61 64 62 56 33 25 18 13 14 17 17 19 20 24 28 26 32 30 28 24 21 26 24 30 34 35 44
87 84 83 78 68 62 59 56 52 50 55 55 53 54 48 50 52 54 58 60 61 51 32 25 14 12 12 15 17 24 22 26 29 29 31 26 29 25 22 24 25 25 31 39 42
98 92 93 82 62 65 56 54 48 54 50 53 53 52 46 49 50 52 55 56 57 50 30 25 12 9 11 14 19 22 26 28 33 28 23 22 22 25 27 26 26 26 29 30 32
111 95 89 80 69 71 58 58 62 48 55 54 49 47 47 49 49 50 50 53 56 48 28 25 17 6 9 12 17 21 26 25 29 31 26 31 26 24 28 28 31 33 35 35 34
87 95 90 82 74 71 61 61 61 58 52 54 47 48 45 47 47 48 47 51 55 47 29 22 17 9 11 15 15 19 26 26 20 24 26 27 27 29 29 27 29 34 34 33 32
85 88 89 77 74 71 63 61 62 58 48 48 47 46 45 46 45 46 46 50 52 48 33 21 17 11 13 15 13 14 20 27 26 22 25 25 29 29 30 31 34 31 31 32 33
89 85 83 82 77 71 65 65 61 51 49 45 47 48 46 46 45 43 45 47 50 46 31 21 17 11 9 14 14 15 18 25 26 26 29 28 29 30 28 29 31 33 34 35 35
92 92 86 82 80 76 72 66 57 48 53 48 49 48 43 45 42 41 44 46 48 41 32 25 19 15 11 15 16 18 22 24 26 29 30 29 31 30 28 32 30 32 35 35 34
97 96 91 86 86 82 76 68 54 57 57 55 53 46 43 42 39 40 43 44 45 43 40 29 21 18 17 17 18 19 21 24 29 28 31 31 30 31 33 32 30 27 30 32 31
99 100 94 96 90 86 77 66 61 64 60 56 49 42 44 41 39 41 44 45 43 44 39 32 24 19 21 21 22 21 20 22 26 27 28 26 27 32 31 33 31 28 28 27 24
99 102 96 100 96 91 74 66 63 66 63 54 47 40 41 42 42 41 45 47 42 40 39 34 25 22 22 24 22 21 18 20 22 26 28 28 28 32 33 34 37 31 28 23 24
98 99 97 102 99 87 76 70 68 67 63 54 52 50 48 47 42 42 49 49 44 40 37 38 28 23 25 23 21 23 28 26 25 25 27 30 32 33 32 31 31 26 25 23 22
99 100 96 105 98 84 79 74 75 71 64 59 54 50 50 46 45 44 50 48 48 42 38 41 33 25 26 24 25 25 28 30 28 29 33 32 34 24 27 28 22 26 27 24 24
104 102 98 101 88 84 81 76 75 75 67 59 56 53 51 49 44 46 49 45 47 44 39 40 32 26 25 25 21 24 27 26 26 25 27 27 26 22 24 24 25 26 26 27 28
103 100 99 95 86 80 78 76 76 75 67 62 56 51 51 47 45 47 45 45 47 43 40 41 31 28 22 20 20 20 21 22 24 23 20 24 23 25 21 27 26 27 29 29 27
92 98 97 93 89 84 81 72 72 72 65 59 55 51 53 49 47 49 45 48 51 43 42 37 33 28 24 22 21 19 22 24 24 24 23 25 23 25 25 29 29 30 30 30 30
83 92 97 92 91 87 82 74 70 76 68 60 53 55 54 49 49 49 47 46 47 47 39 37 35 28 27 25 20 18 27 23 19 21 24 25 29 30 31 29 30 30 30 32 35

GFSSW_250_spd_024.txt.gz
Wind_Speed
61 62 59 59 59 60 59 56 56 54 54 58 55 55 58 65 69 72 72 77 79 82 83 83 71 62 54 43 29 17 18 20 21 20 23 29 28 31 34 39 40 42 46 46 44
60 61 62 52 51 53 54 56 56 54 52 56 54 60 58 65 68 71 70 74 78 79 83 81 72 64 57 40 19 12 17 21 19 18 21 25 27 29 31 33 32 40 43 43 35
59 59 57 57 63 60 54 58 59 57 58 56 58 58 57 62 66 67 67 72 73 78 83 80 72 63 57 35 11 10 19 19 16 14 22 26 24 23 23 30 34 39 36 29 34
62 65 65 61 60 60 59 60 59 59 59 60 57 56 58 58 61 62 66 68 73 77 79 77 68 57 52 30 11 8 13 13 13 17 18 25 25 25 23 20 33 32 25 28 29
65 61 63 66 58 60 63 64 62 57 56 58 57 54 55 54 60 60 64 67 69 76 76 74 64 53 42 20 10 1 3 10 18 22 25 30 30 26 27 22 33 37 32 29 26
53 50 54 52 55 55 53 57 57 57 59 57 55 54 52 55 58 60 65 66 68 74 73 73 57 48 31 17 10 2 8 15 26 22 27 31 32 31 33 30 31 37 38 31 30
54 49 47 47 45 51 48 49 56 58 57 59 55 55 55 56 59 60 63 65 70 69 70 67 50 42 25 14 4 3 12 20 23 24 31 27 25 27 28 26 28 35 34 27 28
47 43 43 46 44 48 48 47 50 53 55 57 57 57 58 58 61 61 61 64 65 66 68 65 47 39 24 9 2 8 10 17 19 22 20 20 24 20 18 19 18 22 29 35 36
57 55 62 58 59 59 46 49 51 51 47 49 52 54 54 53 55 56 58 60 61 63 66 63 46 37 22 9 6 7 7 9 13 20 15 16 19 21 21 18 20 22 32 37 37
64 66 62 67 64 53 49 54 58 53 49 52 50 50 52 50 52 56 56 56 57 59 64 59 42 32 20 10 13 8 10 7 12 15 15 17 23 24 24 21 26 26 28 33 39
71 67 67 65 67 67 59 61 61 62 62 58 57 52 50 49 52 55 54 53 55 56 59 55 40 28 17 14 10 10 11 12 13 17 20 26 20 30 26 26 20 25 28 34 40
77 75 71 70 72 76 76 68 71 64 67 72 58 50 48 50 50 52 51 50 52 54 54 53 42 25 18 11 11 11 12 11 15 19 16 20 18 29 27 28 21 23 29 24 23
82 81 86 81 88 90 84 86 82 81 73 68 53 48 48 50 45 46 47 47 50 54 52 53 41 22 20 10 11 14 16 19 17 20 17 24 23 27 29 26 26 29 30 33 30
102 102 100 100 100 100 100 102 91 90 83 72 54 54 42 44 45 46 46 45 48 53 49 48 41 23 21 16 11 12 15 18 21 24 24 18 21 28 29 29 26 30 25 29 30
116 110 113 115 109 107 103 100 97 88 88 73 60 49 52 48 48 47 44 44 46 48 48 45 45 25 18 20 12 12 15 15 19 20 25 29 22 24 25 27 29 31 28 29 33
115 117 108 99 98 99 95 94 86 82 72 65 58 50 54 53 49 45 43 44 44 42 44 44 40 29 19 18 15 15 14 14 18 21 20 23 29 25 26 25 26 28 29 29 31
101 95 90 91 92 89 84 79 73 67 63 58 52 53 54 50 45 40 42 41 39 39 39 41 41 37 19 20 20 18 16 16 19 22 23 21 22 21 24 26 27 30 30 32 33
96 90 86 88 91 84 86 82 69 62 56 52 53 54 50 48 39 40 42 39 36 37 36 42 40 41 23 20 23 19 17 18 22 25 25 26 27 26 26 27 26 28 28 31 35
94 89 84 87 91 88 91 82 65 58 54 53 52 50 48 44 42 41 44 36 36 36 37 41 40 41 29 21 24 23 19 17 21 25 29 28 28 29 28 30 29 32 34 34 33
93 90 82 92 92 92 83 76 69 69 58 57 54 49 47 42 43 44 43 37 37 36 38 41 40 39 41 25 21 26 23 18 21 25 28 30 29 32 30 33 30 30 33 36 35
95 90 83 91 95 93 78 75 71 71 65 64 54 50 56 44 44 46 38 34 35 37 41 45 40 40 40 31 22 22 27 23 22 24 27 27 30 29 31 32 31 32 33 35 35
91 84 85 92 93 84 79 76 75 75 71 66 59 55 54 49 47 43 39 41 40 38 41 43 45 43 39 35 21 18 26 25 22 26 27 29 35 32 33 35 33 35 36 33 30
88 84 89 95 82 79 78 78 79 76 73 67 59 56 56 52 49 45 46 42 42 40 42 44 45 42 42 34 24 20 23 27 30 32 34 32 37 29 32 34 35 38 33 30 29
88 91 93 86 72 80 81 74 78 76 74 66 61 57 57 48 49 45 43 41 44 40 43 42 45 43 39 33 21 20 22 25 28 29 31 34 31 25 26 31 30 31 27 30 28
85 88 83 76 68 75 77 76 81 80 75 65 62 58 57 54 51 47 45 46 45 43 41 44 45 42 38 33 25 22 23 21 21 23 27 29 27 25 25 24 29 30 30 29 29
79 81 79 78 77 82 82 73 72 81 78 68 61 61 61 57 54 50 49 48 45 43 42 47 46 39 37 34 29 21 22 25 27 25 25 26 29 29 27 26 26 29 31 34 34
69 74 76 82 79 79 77 66 63 73 74 69 67 65 59 57 58 57 51 45 43 43 44 43 47 40 37 34 28 25 30 27 27 23 24 27 28 27 26 28 28 31 35 36 38

GFSSW_250_spd_027.txt.gz
Wind_Speed
62 65 64 60 59 59 53 54 55 54 55 55 52 59 59 59 61 65 66 69 70 73 75 77 81 84 82 68 63 49 20 13 14 13 15 17 21 28 29 36 45 51 51 48 42
59 59 65 65 62 61 56 57 54 54 60 55 55 58 56 57 61 61 62 68 69 75 73 75 80 78 81 67 66 46 16 10 12 11 11 12 12 17 25 24 30 38 45 43 43
57 57 57 61 59 60 59 54 53 57 56 54 56 62 56 53 59 63 63 67 70 74 72 70 73 78 78 64 62 42 18 13 9 10 10 15 16 17 19 22 24 29 31 36 39
55 55 56 56 56 58 58 59 57 55 60 56 56 53 51 53 59 59 63 64 69 68 66 66 74 77 72 61 56 32 18 12 7 8 14 18 19 22 16 28 29 30 35 32 30
51 50 48 51 52 53 53 51 49 48 48 51 50 49 50 53 56 61 60 64 64 63 63 68 71 71 64 57 45 28 14 4 13 17 16 25 27 24 24 32 30 26 29 24 30
47 46 48 45 47 47 46 47 45 44 44 42 40 41 47 50 54 58 60 60 60 60 64 66 61 66 60 51 37 24 12 6 21 24 28 27 27 28 25 25 18 24 27 26 33
42 48 48 47 46 43 39 41 34 28 37 40 42 41 41 43 48 51 53 57 56 57 57 59 60 64 59 48 33 16 10 14 24 25 28 27 24 22 24 21 26 25 28 27 30
40 42 51 48 49 42 31 31 35 38 37 34 35 37 39 40 45 48 52 54 52 54 56 58 56 61 54 45 29 15 10 11 19 20 26 28 20 20 21 18 19 23 28 30 28
49 46 52 53 47 48 40 44 43 40 44 40 40 42 41 49 51 55 55 54 50 52 54 54 54 58 49 42 25 15 6 10 13 15 14 21 20 19 20 12 11 16 22 25 24
61 54 52 55 51 51 53 48 45 46 43 41 48 50 56 54 59 62 57 54 49 50 50 51 51 53 47 38 28 13 10 8 5 13 13 14 16 15 16 11 11 11 12 13 33
68 66 63 61 64 58 58 59 57 50 51 48 49 62 62 63 63 61 61 56 50 48 49 49 48 50 49 35 29 13 7 8 7 7 10 10 17 17 16 14 15 16 17 19 24
74 73 71 68 66 68 66 64 64 59 50 53 58 70 69 65 68 71 67 51 46 47 47 45 46 47 47 35 31 16 9 9 8 8 9 16 19 19 20 19 18 15 19 24 17
82 79 80 79 73 74 71 67 67 58 51 61 68 69 72 80 78 68 68 60 47 46 44 43 41 42 44 34 28 22 11 11 10 10 12 12 12 14 19 23 26 20 17 25 29
88 83 87 82 81 79 74 73 72 64 61 73 69 75 76 84 79 69 65 52 46 46 44 41 36 42 39 37 26 20 10 13 15 15 16 18 18 17 20 25 25 23 22 20 25
106 102 93 92 82 86 83 76 73 74 74 78 78 83 87 76 71 65 55 47 49 46 41 39 34 38 37 40 25 22 19 12 14 15 18 21 22 17 20 25 28 28 25 27 26
120 117 113 102 94 97 92 86 86 84 78 82 85 89 88 67 62 60 49 47 45 42 38 35 34 35 37 37 26 23 22 19 15 15 17 17 23 27 23 23 26 29 29 27 24
125 124 120 110 107 109 102 99 94 89 90 94 94 89 58 58 56 49 46 41 37 38 36 34 34 29 37 34 36 25 21 23 20 17 19 19 21 25 28 29 23 24 23 23 25
134 135 129 120 117 118 115 111 107 95 97 102 97 85 64 52 47 44 42 40 35 37 36 35 33 29 38 35 33 30 25 22 24 21 22 22 29 26 23 22 23 24 25 24 25
120 125 122 123 122 122 122 116 92 88 93 94 86 70 56 56 56 46 41 41 36 38 36 34 30 31 34 33 33 38 26 26 22 21 23 26 27 33 27 26 27 28 28 30 30
111 111 111 114 118 121 113 91 95 87 83 80 75 65 58 55 48 44 41 39 35 37 37 34 29 32 35 34 31 34 27 27 24 21 27 32 33 32 31 31 30 32 34 32 32
105 107 100 106 115 117 101 80 84 75 77 73 70 66 64 51 47 43 43 39 36 37 38 32 30 33 35 37 35 31 23 26 26 27 26 29 32 34 33 33 35 34 36 36 34
97 94 95 103 109 97 82 76 76 71 76 71 70 64 61 46 52 47 47 41 34 38 39 34 30 35 34 37 32 32 25 23 26 30 26 27 35 37 33 35 36 34 35 37 38
87 85 96 104 98 82 73 75 73 71 72 73 75 66 64 48 50 44 56 48 39 42 42 37 32 32 36 37 35 32 30 24 24 25 28 33 40 37 27 32 38 38 40 41 39
82 82 97 89 72 75 74 74 68 69 71 74 73 70 69 63 57 49 57 48 46 45 45 39 32 34 38 37 34 30 30 25 27 24 30 38 43 39 34 35 38 39 41 42 39
73 77 78 71 65 66 67 73 69 72 72 74 71 69 67 64 62 56 57 49 48 47 45 35 35 36 36 40 33 32 32 23 26 27 23 31 35 37 32 32 30 32 34 36 33
63 67 69 63 67 72 73 71 67 73 74 71 70 69 67 67 64 63 57 52 48 46 42 38 36 37 39 40 35 33 29 33 29 29 26 26 26 28 27 28 26 29 34 36 35
55 63 62 63 69 72 72 74 68 70 72 67 66 73 71 70 68 64 57 54 51 46 44 39 36 39 41 41 36 36 30 29 27 30 26 24 30 28 29 29 31 32 33 34 36

GFSSW_250_spd_030.txt.gz
Wind_Speed
48 46 46 50 53 56 57 59 61 56 54 55 52 53 48 53 55 53 57 59 60 60 61 63 68 67 70 68 72 60 58 42 25 16 14 12 12 15 23 24 31 40 50 54 48
48 50 50 49 49 50 51 52 51 54 56 52 52 51 52 47 48 51 53 53 56 57 59 63 62 61 69 68 68 57 54 38 22 15 10 4 4 8 15 14 17 32 42 45 43
40 41 46 52 52 49 50 49 48 49 49 50 56 53 52 46 44 45 51 51 53 55 55 58 58 60 64 66 63 55 51 35 20 12 6 11 6 8 15 14 15 21 26 39 40
30 32 37 44 48 48 47 43 44 45 46 43 50 40 39 39 39 43 48 49 49 47 50 54 56 57 59 64 58 54 47 33 17 9 8 17 18 15 17 16 23 24 25 31 37
40 37 36 31 39 43 41 41 39 43 44 42 40 37 30 35 37 39 37 41 44 47 49 52 54 55 56 63 55 52 43 27 15 4 11 15 22 25 22 23 26 28 31 32 30
50 46 41 37 33 38 40 40 42 42 40 39 34 26 31 32 28 27 33 36 40 49 52 54 52 54 54 59 53 49 38 26 12 11 24 29 28 24 22 21 29 28 30 24 29
52 52 49 47 34 37 41 43 39 37 39 32 28 27 32 30 28 29 38 37 47 50 57 57 52 52 52 57 50 44 32 21 7 10 26 29 27 25 24 21 25 23 27 25 27
65 63 55 49 36 36 41 46 43 38 32 29 32 28 33 32 34 34 40 48 49 55 65 64 51 47 51 52 47 39 28 20 11 10 22 27 25 24 28 23 25 24 25 27 27
68 66 62 54 47 42 39 44 44 39 37 39 37 33 32 36 34 38 45 50 51 61 65 59 56 44 46 49 48 36 27 14 14 13 13 19 18 16 25 23 20 20 24 27 26
71 73 63 61 54 51 44 44 50 50 45 45 41 37 36 39 39 45 51 50 56 62 70 65 49 41 42 48 48 33 28 13 10 11 8 12 15 15 17 15 14 14 10 21 27
71 76 68 70 69 66 50 46 53 51 53 47 51 48 48 40 44 46 56 54 58 62 65 64 52 42 37 45 45 30 29 13 9 8 8 11 19 13 15 16 12 15 11 13 14
71 66 73 71 64 66 67 52 53 58 58 55 53 56 49 47 46 51 54 57 62 65 69 59 49 41 33 41 42 31 25 17 11 8 6 12 16 19 18 16 17 16 14 13 17
73 78 73 72 70 68 63 66 60 61 64 62 59 60 54 46 47 51 56 58 64 68 62 57 45 40 31 36 38 34 25 22 14 8 10 7 8 13 19 18 19 17 18 16 20
86 82 81 76 74 74 76 71 73 63 67 63 64 61 56 50 51 55 62 62 66 66 64 50 38 37 31 33 35 35 29 22 22 14 13 12 14 12 14 18 23 23 22 15 17
94 92 93 88 85 83 75 78 77 75 69 68 66 63 59 55 59 61 62 62 66 61 51 45 35 32 35 29 34 32 30 24 21 18 14 17 19 19 18 17 21 23 27 21 19
99 98 98 92 92 93 85 87 82 79 72 66 64 69 64 61 62 66 64 61 63 47 49 42 34 31 32 27 31 31 28 23 21 20 20 19 17 19 23 19 17 22 25 27 24
112 110 108 109 102 105 99 96 93 78 69 73 66 71 70 67 68 70 66 66 59 54 50 39 35 31 29 27 29 32 27 28 23 21 24 23 23 23 22 26 26 22 25 27 27
121 120 113 114 110 108 105 106 101 77 75 71 73 71 75 73 73 74 67 68 61 59 49 41 36 31 30 27 28 28 30 30 23 25 24 24 29 25 21 21 23 26 27 24 27
113 116 118 114 122 115 117 115 99 92 93 92 90 84 87 81 83 79 72 72 71 56 46 44 39 32 29 29 27 28 30 30 25 22 25 25 29 31 30 28 27 25 26 27 28
105 108 107 118 124 122 123 118 106 104 103 104 97 94 91 88 80 76 77 73 60 51 51 43 38 32 30 31 28 27 29 28 28 24 24 27 31 34 34 31 30 31 30 30 30
102 102 99 107 118 125 119 109 102 110 107 107 101 95 92 91 84 85 81 73 59 59 53 43 38 34 30 33 29 27 28 28 30 23 24 32 34 35 33 34 32 32 33 34 34
93 94 94 109 115 109 100 99 100 111 111 112 107 104 100 96 90 90 82 61 51 57 49 44 35 32 32 33 31 27 31 26 28 27 25 30 36 38 33 33 36 38 38 37 38
81 84 95 105 103 98 93 89 92 101 114 113 113 111 106 102 99 83 77 63 57 54 47 48 34 32 34 37 32 31 33 28 26 25 27 30 35 43 37 35 35 36 38 38 39
76 78 85 87 86 86 83 91 88 87 91 102 106 99 93 88 82 76 65 57 51 52 53 50 38 35 40 38 33 33 31 30 25 25 27 28 35 41 41 38 39 39 41 40 40
68 68 67 64 71 73 78 77 84 78 83 85 84 80 77 73 69 65 64 67 55 54 54 53 48 40 41 40 33 33 32 30 26 24 25 27 30 36 33 35 37 41 43 41 42
60 57 59 60 66 66 68 72 76 78 79 77 73 74 70 66 65 66 61 60 54 58 55 53 50 41 41 41 34 32 35 29 24 26 27 21 27 30 28 30 33 37 36 34 35
54 59 53 55 60 58 62 70 69 72 74 73 78 75 68 65 70 71 68 64 53 54 51 51 46 44 41 39 33 36 37 34 25 26 26 24 28 26 28 29 31 33 32 34 36

GFSSW_250_spd_036.txt.gz
Wind_Speed
55 54 54 50 50 48 45 47 46 42 39 40 38 43 45 47 43 38 32 34 38 41 40 40 41 38 44 46 42 43 49 48 41 33 25 9 11 19 27 23 21 32 29 38 48
58 55 54 55 51 49 44 46 42 44 47 45 44 43 39 37 36 36 29 33 38 37 37 37 37 34 39 49 47 47 50 47 41 31 19 10 8 15 32 24 18 22 43 44 50
59 58 56 53 46 43 43 44 40 40 42 43 44 44 42 36 31 29 28 35 32 33 37 35 36 39 46 48 45 46 49 46 39 27 11 9 13 34 19 17 19 23 23 46 65
60 59 55 48 44 41 44 39 36 32 31 32 36 39 33 28 23 29 32 36 31 35 32 30 35 40 45 47 44 44 48 45 37 19 11 13 40 28 24 20 29 25 20 46 70
65 61 59 51 48 45 42 39 40 33 31 30 27 33 27 25 27 31 27 33 37 34 28 35 37 41 46 48 43 41 45 45 34 15 13 16 28 22 23 23 31 35 25 52 63
64 63 64 60 57 50 44 39 42 42 35 29 23 27 28 25 28 25 33 37 38 28 27 30 35 39 46 53 39 38 45 47 34 18 15 18 24 19 19 27 29 35 28 41 58
64 65 67 66 62 53 49 47 51 42 50 40 27 22 29 29 33 31 35 39 24 24 25 29 35 39 46 49 36 38 41 45 32 14 19 6 7 5 12 25 22 31 27 29 45
68 64 67 70 65 60 56 52 49 52 48 48 41 29 30 37 41 38 43 44 35 29 31 33 38 40 43 48 38 34 39 43 33 7 14 13 6 7 9 22 25 22 27 30 38
72 68 68 68 70 66 62 63 60 54 52 47 49 36 35 27 35 43 46 43 32 34 34 35 38 40 45 47 52 33 34 40 39 12 8 7 3 13 10 20 16 19 23 23 29
77 76 73 71 72 74 70 68 61 60 56 48 44 40 41 29 36 51 50 38 39 40 32 35 37 39 44 49 49 37 31 35 37 28 6 11 7 9 18 22 18 18 19 23 31
78 77 76 76 77 72 74 69 68 67 60 57 49 50 44 46 44 49 45 41 42 42 37 35 39 40 43 48 50 51 35 31 37 33 23 11 13 14 8 18 22 19 19 23 25
83 82 81 80 75 75 77 77 75 70 63 61 50 52 57 53 47 46 53 47 44 44 41 41 39 41 43 43 48 49 46 31 33 32 31 20 16 17 11 21 14 17 21 23 14
87 86 84 82 80 82 78 76 71 70 64 64 58 51 55 54 51 47 48 51 51 47 46 50 41 40 42 44 48 48 50 38 31 32 33 23 22 20 14 20 20 21 27 22 22
91 90 89 87 87 87 86 86 81 79 72 63 66 59 59 56 53 57 55 57 54 53 55 50 43 41 46 47 46 47 51 48 31 31 31 29 19 17 18 15 20 27 24 29 28
98 98 96 96 97 96 92 91 88 87 81 70 69 64 64 63 58 59 58 59 55 60 52 53 48 42 49 50 42 44 50 47 34 30 32 31 28 17 17 20 17 17 23 29 34
104 101 102 98 99 103 102 97 98 91 73 70 66 69 65 67 68 64 57 59 60 59 56 56 48 43 49 49 42 49 51 48 37 29 32 33 30 24 19 19 20 19 21 24 38
107 106 106 103 104 109 106 102 107 96 80 74 74 69 71 66 75 68 63 58 58 59 58 60 46 41 49 48 43 46 52 47 45 30 32 34 32 30 27 21 13 21 11 24 34
115 110 111 109 111 114 110 112 107 85 85 82 78 78 74 76 70 73 66 63 58 57 60 58 54 51 51 51 45 38 45 46 44 34 33 39 37 35 30 29 16 25 24 32 35
114 111 111 114 116 118 117 112 99 89 89 87 80 78 79 77 77 73 72 66 62 59 58 57 54 55 56 53 41 36 42 46 41 39 29 32 37 37 35 27 27 24 25 29 32
104 107 103 108 113 117 114 110 96 87 87 87 89 85 82 81 79 76 71 67 66 63 62 62 57 57 59 59 47 37 41 43 39 39 29 32 36 36 38 33 24 29 24 24 31
96 98 98 103 107 107 103 101 100 99 102 99 94 87 81 82 81 78 76 75 74 71 71 66 62 62 64 54 46 37 42 40 47 38 33 33 36 40 42 35 33 28 26 27 24
90 90 95 101 102 97 92 90 96 97 99 105 109 94 88 91 95 87 82 80 81 78 75 73 69 66 69 64 52 44 39 46 50 36 36 31 37 36 37 38 36 30 28 26 27
85 86 93 96 88 83 83 86 89 91 90 96 107 103 99 94 98 96 90 87 86 80 78 77 77 71 70 64 56 49 38 54 47 42 38 35 36 37 37 39 39 36 33 27 30
82 83 85 80 78 76 75 74 77 85 85 85 96 103 102 102 102 101 96 97 96 86 84 84 82 74 70 61 55 50 40 52 49 48 44 36 39 41 40 42 41 38 33 34 34
78 74 68 65 62 62 70 71 79 84 80 85 86 89 91 102 111 103 102 101 98 93 89 92 82 78 75 64 60 57 52 53 47 48 41 42 39 34 39 39 44 40 41 35 39
83 70 62 59 60 66 66 61 68 72 78 79 79 82 88 93 106 109 108 107 104 100 93 94 84 83 79 68 64 62 54 52 44 46 46 44 41 35 39 40 41 41 38 37 36
83 74 67 65 66 69 57 62 63 70 69 70 78 87 92 88 97 108 110 116 104 99 97 91 90 89 82 73 68 66 57 54 55 54 50 44 45 38 37 37 36 32 31 33 32

GFSSW_250_spd_039.txt.gz
Wind_Speed
61 61 62 59 58 57 54 49 49 48 45 47 45 40 34 36 34 40 40 42 37 33 31 33 35 37 38 39 46 51 45 45 45 39 30 13 43 39 25 23 31 19 26 20 28
61 60 60 60 60 58 54 51 50 48 44 42 41 40 39 40 39 39 34 33 31 27 30 30 33 36 36 42 44 41 35 37 41 37 23 21 42 33 27 32 36 26 28 30 28
64 62 61 62 61 60 56 53 55 52 43 35 38 38 37 38 37 41 32 26 25 25 31 29 33 33 35 37 47 38 32 38 39 35 11 30 34 17 21 28 39 32 37 33 29
68 65 66 65 60 62 57 54 51 44 41 36 30 36 36 36 29 28 23 22 27 25 29 28 35 32 31 38 42 35 33 39 38 30 6 28 32 19 21 30 28 30 31 36 35
59 70 67 62 59 60 59 55 49 44 42 34 28 32 36 35 29 27 25 22 25 25 29 34 32 26 32 33 40 31 31 38 38 22 16 21 26 20 14 28 37 32 23 26 38
58 60 67 63 62 62 62 60 53 47 46 39 31 30 29 35 27 25 20 21 22 31 36 28 20 25 32 32 38 41 33 36 37 16 12 30 25 8 6 12 17 25 25 27 39
65 61 57 67 65 66 68 65 60 57 48 41 35 32 38 39 26 29 23 27 30 37 36 21 25 29 33 29 37 40 37 31 36 25 17 7 15 8 9 9 11 19 23 28 22
64 65 66 61 63 60 66 68 62 61 49 48 40 36 42 30 33 29 27 34 31 40 42 33 30 30 30 34 36 37 43 33 29 26 19 19 8 9 9 4 19 27 21 30 26
63 68 73 73 71 66 65 67 65 63 59 54 43 41 50 42 40 33 29 33 34 42 44 37 30 30 28 30 36 38 40 45 28 28 26 22 24 15 9 7 14 21 24 20 32
67 64 67 76 78 73 69 67 65 62 57 57 54 51 51 46 39 37 44 36 34 40 44 44 35 29 28 30 35 37 36 42 44 30 25 20 21 16 8 11 17 16 19 18 21
70 66 65 66 66 70 73 75 70 65 59 59 57 59 52 47 46 44 41 44 42 41 43 41 36 32 32 35 35 33 34 38 43 43 26 25 18 18 22 22 17 14 21 19 25
76 77 75 72 70 72 72 73 75 70 67 63 60 62 58 53 54 44 38 48 44 47 42 42 41 39 36 37 39 34 36 34 39 46 35 25 20 13 14 29 29 25 16 22 28
75 81 81 81 83 79 75 76 73 69 63 66 64 60 64 55 57 46 44 45 53 50 49 43 39 35 37 43 41 38 39 32 41 40 45 32 28 24 13 16 20 24 16 23 23
82 81 85 87 86 85 83 82 77 72 70 62 67 58 60 56 49 55 49 46 46 48 51 38 44 44 40 43 38 43 38 31 40 37 41 38 30 30 24 20 12 18 16 20 22
89 89 89 88 88 90 87 89 83 80 73 72 72 61 61 55 58 63 56 52 47 51 53 53 52 49 46 45 33 39 39 41 36 30 37 43 35 28 24 21 17 16 20 18 22
96 94 92 92 97 95 92 90 89 86 74 74 74 74 71 67 64 65 64 58 57 54 54 49 56 54 50 47 45 39 36 40 33 31 35 39 33 29 27 20 16 21 11 23 22
102 102 99 96 101 98 99 99 96 84 74 76 79 78 79 76 72 70 67 63 59 57 55 56 50 47 48 51 46 42 36 40 35 35 37 37 36 35 31 27 25 14 21 19 25
107 110 106 106 107 106 106 103 102 86 86 88 87 89 86 83 78 76 69 64 61 60 54 60 57 54 51 45 44 41 39 40 34 35 38 36 36 41 29 32 30 22 21 21 25
113 113 112 116 117 112 108 111 98 89 89 96 101 96 87 86 84 83 79 74 69 63 65 59 56 59 51 47 46 40 41 42 43 42 37 36 39 40 27 32 33 28 23 19 21
112 114 117 116 115 117 119 113 102 96 96 100 106 101 96 93 89 87 84 77 72 70 71 62 62 57 54 52 47 44 45 44 44 43 33 33 37 42 31 29 31 28 21 20 18
101 104 110 118 116 113 112 110 111 106 107 111 105 106 103 99 95 91 84 78 74 72 74 70 66 60 58 51 47 49 46 47 49 46 32 33 33 35 36 34 35 32 29 28 27
91 92 100 105 101 98 97 100 107 107 110 110 111 111 111 103 101 99 89 82 79 78 76 73 74 66 58 57 51 54 49 50 48 39 31 37 37 42 39 35 39 38 37 32 27
87 88 93 95 89 85 87 89 93 95 98 102 104 108 114 111 111 101 88 81 92 86 78 77 77 71 65 58 53 54 57 57 47 47 40 39 40 34 42 34 39 39 40 34 30
84 83 84 81 82 79 80 80 83 85 89 91 93 99 101 103 106 100 91 86 88 89 86 84 80 74 61 61 64 63 60 57 52 46 37 31 36 36 44 41 38 39 42 37 32
81 72 72 69 68 74 75 72 75 75 80 82 82 85 92 95 98 96 98 96 93 89 88 88 86 78 70 68 68 66 65 61 57 47 40 34 31 43 39 47 38 40 43 42 38
76 67 66 65 67 69 66 64 66 69 75 75 72 82 91 86 83 85 93 98 98 97 92 93 87 84 82 78 77 73 64 62 59 47 39 39 32 45 44 45 40 39 41 42 39
69 61 59 55 61 64 51 50 55 66 70 70 71 79 69 71 84 84 84 86 95 100 96 96 95 93 85 83 83 84 64 58 55 53 44 46 40 41 42 40 40 41 40 40 36

GFSSW_250_spd_042.txt.gz
Wind_Speed
69 67 61 58 59 61 57 56 56 56 53 51 44 35 36 37 37 35 35 33 33 38 39 35 35 35 34 34 36 39 46 51 45 44 41 40 21 32 36 40 37 30 37 41 46
70 66 61 54 59 60 60 57 57 56 55 51 44 39 39 35 39 29 27 33 35 35 31 30 31 31 32 34 34 38 46 41 38 40 29 27 28 34 32 34 29 31 35 41 42
68 66 61 54 53 61 61 57 57 56 53 52 46 44 36 34 34 33 28 28 25 25 24 25 26 33 31 35 34 34 40 37 38 36 26 28 41 25 30 29 26 27 32 40 40
64 65 65 54 53 59 62 57 55 57 56 51 46 44 36 33 30 32 28 27 22 22 20 22 27 30 33 24 27 31 40 39 37 35 30 30 37 27 25 30 31 28 26 29 41
61 63 67 59 50 49 63 61 56 59 56 49 47 43 38 34 22 29 30 26 27 26 20 21 24 25 19 22 28 28 35 42 36 35 29 28 25 38 29 30 27 27 28 25 30
58 61 67 67 56 51 52 63 59 59 57 51 48 45 40 38 25 27 27 26 27 25 19 23 31 27 21 26 28 32 30 34 36 34 28 24 14 39 25 26 34 36 35 31 33
56 63 64 64 65 55 52 53 63 60 56 53 51 45 46 42 30 32 25 26 31 28 27 26 28 30 17 22 23 24 30 31 35 39 28 16 15 20 27 25 32 20 17 36 35
53 54 56 55 60 64 56 58 52 58 58 55 55 52 51 45 34 34 30 35 33 35 31 28 28 35 25 24 25 22 24 30 34 35 36 27 21 21 24 28 36 24 16 14 33
58 54 56 57 54 55 61 58 58 55 50 46 56 58 58 48 40 35 36 34 33 33 32 34 31 29 36 26 24 26 26 30 33 35 37 27 27 27 21 23 30 34 15 18 12
56 61 60 59 62 60 57 60 57 58 53 49 46 54 58 51 45 44 42 39 35 34 43 34 35 34 32 33 25 29 29 33 34 35 36 37 27 28 25 19 24 19 19 17 15
63 63 60 63 61 68 63 62 65 65 61 60 50 50 57 49 49 48 46 46 40 42 37 36 37 38 32 35 32 35 35 28 35 34 37 35 27 28 30 27 29 32 25 28 24
65 67 64 62 62 63 63 66 59 54 60 64 62 61 58 56 50 53 50 48 43 43 41 38 44 34 37 40 35 29 33 26 31 35 33 32 32 27 30 28 25 26 27 25 24
71 70 67 67 63 65 67 66 63 56 48 52 55 57 63 56 59 56 55 55 51 51 42 37 46 36 41 40 36 29 35 35 30 30 32 34 35 26 25 25 25 23 19 18 22
76 79 78 74 74 71 69 71 63 56 55 55 57 56 58 55 57 63 57 59 55 49 45 34 46 37 40 44 39 37 34 36 35 30 32 34 38 30 27 29 23 19 19 18 19
81 79 81 82 79 79 78 76 73 70 63 66 61 57 62 58 61 63 63 56 55 55 48 42 47 39 40 46 48 42 36 38 38 36 30 35 36 33 28 27 28 20 20 16 16
86 84 81 85 83 83 84 82 74 74 68 71 71 69 66 64 63 62 57 61 59 55 50 47 50 45 44 49 48 44 41 42 41 39 32 32 36 29 33 25 27 24 19 17 18
91 91 90 90 89 86 88 83 81 70 67 75 77 79 75 73 72 73 72 66 60 59 58 59 55 54 51 47 51 45 32 34 36 35 31 31 34 29 33 24 26 29 22 21 19
97 94 90 92 91 92 88 88 80 73 76 78 80 79 80 80 80 81 78 73 72 71 65 61 58 58 58 54 52 53 46 37 36 36 32 33 31 26 27 23 22 23 24 22 19
100 100 97 101 95 94 94 87 81 80 83 90 89 86 81 81 83 82 80 79 77 76 75 72 63 64 62 59 56 53 50 45 38 37 35 33 30 29 33 29 30 31 21 24 22
101 102 104 107 100 101 97 86 81 89 95 94 94 89 90 90 88 82 77 75 76 76 76 75 74 69 70 67 58 53 52 48 42 39 38 36 32 31 29 27 31 33 28 23 24
95 97 108 104 102 101 97 94 95 98 97 101 99 98 94 94 91 88 87 88 86 84 81 76 76 72 74 69 65 58 52 47 49 41 36 36 35 33 27 28 26 29 27 27 24
88 87 91 93 94 90 91 99 105 106 103 105 102 104 99 99 96 93 93 95 93 92 91 87 83 77 72 67 65 64 54 49 47 38 37 35 36 35 36 25 29 25 29 30 31
83 79 80 85 77 80 87 93 99 104 107 108 109 106 109 107 106 102 98 95 95 95 90 87 86 80 76 71 64 62 58 54 49 45 39 37 39 41 33 23 26 27 31 30 34
80 75 71 72 74 77 79 83 89 94 96 99 103 104 109 112 113 108 102 101 99 98 95 93 90 82 73 71 71 67 63 59 55 53 45 39 41 45 39 31 28 34 30 32 35
71 64 66 69 72 77 80 82 86 88 88 90 93 101 104 107 107 104 108 107 107 103 98 95 90 93 83 73 78 73 67 64 60 54 48 45 44 46 41 39 39 36 28 29 34
60 55 58 63 68 71 72 72 77 79 78 79 81 90 88 86 91 96 95 97 97 99 108 102 100 93 83 78 80 80 72 65 60 55 51 46 45 46 45 42 39 31 28 27 33
58 55 57 58 62 64 58 60 69 72 72 76 76 77 76 81 87 90 90 89 87 90 99 96 92 96 89 88 83 84 71 71 67 63 59 48 50 50 45 43 29 36 31 28 33

GFSSW_250_spd_045.txt.gz
Wind_Speed
95 90 93 92 81 75 67 63 62 56 58 53 49 51 50 47 38 37 33 30 31 31 30 34 36 37 37 34 35 34 37 37 42 45 50 47 44 39 31 26 27 30 29 26 28
98 99 98 91 80 70 66 64 60 53 53 53 49 50 51 46 40 37 33 29 30 30 27 32 38 33 31 27 30 32 30 30 45 54 56 44 39 26 22 24 28 29 26 29 26
94 100 106 89 70 65 64 63 58 50 51 53 49 50 47 47 39 39 34 31 26 28 26 22 25 22 24 25 29 22 26 34 37 50 41 40 36 20 25 23 29 22 27 28 29
105 107 93 70 60 61 62 62 62 49 49 53 50 50 45 48 46 33 36 29 23 26 26 25 24 24 24 30 21 23 27 25 37 40 40 39 32 26 28 22 27 23 26 20 34
87 81 62 58 55 57 58 60 62 61 45 50 50 49 48 48 44 35 37 27 24 25 23 23 28 26 19 21 20 19 21 24 31 35 44 32 33 23 19 27 22 28 25 24 31
68 67 57 55 54 55 57 60 62 59 51 48 52 50 50 53 41 39 38 28 28 23 22 23 27 26 23 25 19 18 22 25 24 29 37 34 28 24 18 24 19 30 32 33 25
57 58 55 56 56 54 54 59 63 54 57 45 52 50 52 56 44 44 42 32 33 27 26 25 30 33 20 29 29 22 22 22 25 31 31 35 31 26 21 19 20 26 25 23 31
51 53 53 54 54 53 52 57 64 53 52 49 46 50 56 52 48 45 41 39 34 25 28 29 32 32 28 24 30 31 27 22 26 35 34 33 38 29 28 22 21 26 22 25 25
51 55 56 55 53 54 53 53 59 62 52 56 42 49 60 53 53 47 47 45 36 34 26 28 31 34 29 32 32 28 34 25 27 31 30 31 34 38 32 28 23 21 18 19 26
56 56 57 56 53 51 53 56 52 55 58 48 49 43 49 56 55 54 51 46 43 37 31 30 31 34 37 32 34 31 30 27 29 24 28 31 31 39 37 26 27 19 22 19 20
58 56 60 56 46 56 55 49 53 47 47 54 49 54 51 44 43 49 55 53 47 43 40 34 37 37 33 32 34 38 37 27 31 26 30 31 30 36 38 30 29 25 18 19 22
61 57 54 63 64 54 61 53 53 49 49 53 51 54 59 54 45 41 45 48 48 47 44 38 44 40 35 36 31 35 36 32 30 26 27 34 34 36 38 38 33 31 25 19 21
65 58 53 57 61 66 68 56 56 55 55 55 59 59 61 56 56 51 48 50 51 50 50 47 49 43 42 40 36 32 36 28 31 30 28 30 37 36 38 38 40 33 30 23 18
74 67 61 62 68 69 61 61 57 58 57 58 59 62 61 63 53 62 54 53 50 54 55 46 53 49 42 42 37 35 34 30 29 30 29 32 34 36 35 38 36 41 32 27 19
71 77 75 65 70 70 62 62 60 59 58 60 62 57 54 57 59 57 57 53 51 59 54 47 57 54 44 46 40 40 31 31 38 36 34 33 32 34 33 36 38 34 38 31 22
68 73 80 78 76 75 73 68 64 62 53 56 61 63 62 55 57 58 50 50 53 52 50 51 58 52 51 50 47 47 34 30 34 34 29 28 28 30 32 32 34 32 33 38 27
76 75 80 82 85 81 81 78 72 67 62 64 61 62 63 58 59 59 53 52 57 57 53 58 60 59 56 56 51 43 43 40 38 35 34 30 28 28 27 27 31 29 30 40 29
85 83 84 90 80 84 86 84 75 70 78 73 70 69 70 68 69 70 65 60 59 60 63 58 58 60 57 54 56 51 52 43 39 42 41 37 32 32 23 24 27 27 30 32 29
86 90 87 91 89 88 84 81 80 79 82 81 80 77 74 72 70 74 74 74 73 68 64 62 57 61 61 61 64 62 59 52 48 47 42 41 38 35 30 23 26 26 27 27 31
83 86 93 95 90 90 89 80 76 76 80 79 81 82 80 81 75 73 74 74 74 77 77 74 71 72 76 71 68 65 58 55 50 46 44 43 41 36 32 26 24 23 29 23 27
79 79 86 92 94 92 85 79 84 87 87 88 87 83 76 78 80 77 78 78 78 76 76 75 74 73 76 71 66 61 58 55 53 51 46 45 42 40 32 27 26 27 29 26 28
79 72 74 83 84 86 89 86 91 91 91 89 88 84 85 84 84 83 82 84 82 80 79 76 74 71 69 68 67 66 65 67 64 57 48 48 41 41 34 30 27 27 28 25 27
74 71 73 76 70 71 81 95 99 96 98 97 94 90 87 86 85 87 91 88 87 84 85 83 80 76 75 77 74 71 66 63 61 64 55 46 39 46 41 32 31 29 30 32 35
68 65 65 67 66 72 74 81 90 99 100 99 98 98 96 95 91 90 91 94 98 95 92 88 84 81 79 79 79 75 72 69 68 64 55 47 46 52 45 37 34 34 34 35 39
56 55 59 63 67 72 72 77 80 84 95 99 101 101 102 105 105 103 105 102 99 99 100 101 96 88 84 82 84 82 78 76 70 60 61 50 51 54 52 45 38 34 37 38 39
48 50 53 60 67 68 70 71 73 77 81 87 96 103 103 101 102 103 102 103 104 104 101 103 98 96 92 92 90 86 78 75 75 70 67 54 52 53 57 51 42 41 41 34 37
47 46 49 56 61 59 62 67 71 75 79 82 88 88 89 99 98 100 99 100 98 98 98 100 97 97 95 95 98 94 87 85 82 74 67 63 59 57 57 55 47 42 41 41 33

GFSSW_250_spd_048.txt.gz
Wind_Speed
98 98 99 103 100 97 91 91 88 80 79 81 74 63 59 55 50 48 45 43 34 35 31 34 30 27 32 32 32 29 26 30 29 31 43 53 53 47 45 37 28 29 24 20 24
102 106 108 105 109 103 100 95 96 91 89 81 67 59 53 52 49 47 47 41 35 34 31 34 26 24 25 27 26 21 28 27 28 31 40 51 51 42 41 31 25 24 24 23 24
108 113 113 108 100 93 84 93 85 81 70 64 56 56 51 48 50 45 46 39 37 32 30 30 25 19 15 15 20 23 24 23 27 27 39 43 43 39 38 33 30 26 25 26 21
114 111 110 109 106 102 89 82 66 63 60 58 52 53 49 48 50 47 45 41 39 34 30 28 20 17 18 19 21 21 23 21 19 27 34 34 43 38 36 31 24 28 29 24 24
116 112 108 96 95 84 74 64 60 57 53 52 52 51 50 48 53 47 45 43 40 36 32 25 14 15 17 21 19 19 18 17 20 21 32 33 33 41 37 33 27 18 17 20 22
107 104 99 90 78 64 60 55 50 52 51 51 52 53 47 54 48 45 47 44 39 37 33 23 16 16 18 24 21 21 23 24 22 24 31 33 30 34 40 32 30 24 16 13 21
96 87 85 75 64 52 54 52 55 52 48 49 53 55 47 59 47 48 48 44 39 38 34 27 23 14 15 26 26 21 19 28 31 26 28 29 27 30 42 34 30 31 22 19 17
91 85 72 60 52 48 51 52 55 52 47 51 54 52 56 57 52 49 49 49 42 42 37 32 28 30 17 20 25 27 25 25 26 24 25 24 30 28 35 43 32 30 27 11 15
86 74 65 51 44 47 52 51 52 52 47 48 49 47 56 57 51 52 52 52 45 43 35 35 37 32 23 19 22 24 29 29 29 22 23 24 23 28 32 36 41 30 30 18 12
77 66 56 46 42 46 52 51 54 46 47 46 54 47 54 57 50 51 54 53 49 43 36 40 40 37 33 25 23 24 25 29 31 29 24 23 24 29 31 34 38 38 26 28 21
67 57 52 43 44 48 51 49 47 48 43 45 51 59 52 57 56 47 54 56 51 47 43 44 41 48 32 26 25 27 26 26 25 25 28 20 25 27 31 31 39 37 27 27 28
62 53 50 44 47 51 51 51 50 53 47 48 51 55 57 55 55 52 48 51 55 50 49 44 46 47 35 30 30 32 32 31 25 25 27 23 23 26 29 30 34 38 38 28 32
58 51 51 48 50 53 53 55 56 49 54 52 55 56 59 53 53 52 51 48 45 44 44 47 55 48 43 35 36 35 36 31 29 27 26 25 26 27 28 29 31 39 36 35 38
58 53 55 51 55 57 61 59 56 49 52 58 53 55 56 57 55 59 55 54 47 46 46 41 51 52 47 39 42 38 35 34 32 24 26 28 30 31 26 28 29 36 36 36 36
60 58 56 59 62 60 69 66 63 54 56 59 59 57 54 54 57 57 57 57 55 53 47 42 53 51 48 48 42 52 38 38 35 31 23 21 24 27 21 28 26 31 33 37 35
62 61 61 61 66 65 69 67 72 63 60 60 59 59 59 60 62 63 62 61 62 59 52 50 53 46 49 50 44 52 43 41 40 36 26 27 23 27 25 25 25 26 30 35 31
65 63 63 68 67 72 73 73 67 63 64 67 62 60 64 65 65 64 59 58 62 60 56 54 55 52 51 52 48 52 46 42 44 40 31 29 22 29 34 28 29 24 26 30 32
68 62 65 73 70 68 77 77 72 70 66 68 70 61 63 72 66 65 62 60 61 54 55 54 53 51 49 49 50 47 46 43 45 44 39 34 23 34 35 37 30 25 24 22 31
69 67 67 73 77 76 74 76 83 76 68 72 74 73 67 61 65 72 69 67 63 62 57 54 52 51 50 52 50 50 46 55 46 45 39 35 31 35 36 35 36 29 28 21 25
71 71 69 76 73 77 78 74 76 82 79 79 76 73 71 68 65 65 64 61 66 65 62 56 51 53 52 49 49 50 54 52 46 43 47 42 40 36 38 36 37 32 28 27 24
74 71 73 76 73 67 68 78 81 83 84 90 83 82 79 78 75 71 70 71 68 67 62 59 57 58 59 56 56 55 55 54 56 55 52 50 41 41 41 41 35 35 29 32 29
76 68 75 76 67 55 60 76 88 88 87 85 81 84 88 80 81 84 79 75 71 69 73 71 68 68 69 71 71 69 67 67 62 59 54 46 38 43 45 42 38 38 31 35 33
71 68 68 73 56 54 61 72 92 92 91 89 90 84 79 83 86 84 83 86 80 77 75 75 72 73 73 75 74 70 68 66 64 60 54 47 41 51 48 46 41 42 39 37 34
62 59 59 61 57 62 65 71 76 96 95 91 89 91 89 81 80 78 81 80 78 78 76 72 73 75 73 75 77 73 71 70 69 63 58 53 50 52 54 51 50 44 44 36 36
52 53 54 53 59 60 66 71 74 81 93 98 97 92 91 88 88 86 86 84 81 76 75 77 76 75 76 76 79 76 74 75 74 72 70 63 58 50 56 51 51 46 46 43 39
47 48 47 49 53 54 61 69 74 78 82 88 100 99 97 93 94 92 91 87 84 81 82 83 82 84 84 83 82 81 80 79 80 78 74 71 64 59 55 57 53 47 47 46 46
44 43 42 46 48 46 54 64 72 77 78 82 86 89 98 100 95 95 90 89 89 90 87 86 84 84 84 89 90 85 82 88 86 85 81 77 71 66 62 58 56 52 49 47 50

GFSSW_250_spd_051.txt.gz
Wind_Speed
86 88 86 90 94 98 99 97 97 98 94 89 85 79 74 76 79 78 80 62 51 47 41 38 30 29 33 35 33 28 23 20 20 24 27 30 37 48 41 36 35 31 26 28 25
90 92 96 97 95 97 99 100 98 99 99 89 83 81 72 73 71 67 61 53 49 44 40 37 27 27 31 31 23 17 16 15 21 24 22 26 36 43 38 35 34 29 29 28 25
91 95 97 99 96 100 97 101 100 94 80 79 68 70 74 67 62 59 51 46 45 43 41 34 25 25 30 25 16 11 16 14 20 22 19 24 32 40 38 37 32 33 28 24 19
94 97 100 98 100 99 98 99 86 78 69 68 64 66 56 54 57 54 49 45 46 42 40 34 24 25 23 20 12 14 15 16 18 13 22 25 30 33 34 36 26 29 28 23 19
97 101 106 100 99 101 94 84 74 67 66 60 55 55 49 52 56 53 51 47 48 41 39 36 27 26 22 16 14 11 15 18 17 17 20 25 29 28 29 36 35 31 29 22 23
97 103 105 102 100 98 85 68 67 61 54 49 45 46 47 54 56 51 51 47 48 42 40 36 29 29 23 16 15 14 17 20 21 21 24 26 28 28 26 30 38 37 31 24 20
88 93 97 100 89 76 65 63 53 46 47 39 41 45 48 54 55 56 53 47 48 44 40 36 33 31 27 16 13 16 18 21 18 18 19 20 21 21 27 29 34 37 36 27 17
91 96 102 93 87 72 64 53 40 42 40 38 41 43 45 52 51 56 52 52 47 44 40 37 36 33 30 19 16 14 17 18 24 23 19 20 20 20 25 27 30 32 40 30 20
93 97 98 91 81 70 60 43 37 37 38 39 43 49 52 54 54 59 55 53 47 45 41 40 39 35 33 25 23 15 19 13 17 21 21 25 22 17 21 23 28 30 37 36 26
93 98 96 90 78 67 54 38 31 34 38 38 48 50 57 58 55 58 58 53 48 44 40 43 43 38 37 33 25 11 20 16 15 18 20 21 21 18 20 19 26 33 32 33 35
97 97 93 86 72 61 49 33 28 36 45 42 47 45 52 55 56 59 59 56 49 46 44 46 43 44 41 31 26 27 27 21 16 18 21 22 23 20 19 20 22 31 29 33 34
98 95 89 81 66 53 43 33 31 42 47 44 48 46 52 55 55 54 57 56 53 52 49 43 45 54 39 31 33 32 31 24 19 18 22 22 24 22 22 24 23 26 26 31 35
95 92 83 74 57 49 39 33 33 42 50 51 47 46 50 54 60 53 56 56 57 51 48 49 56 49 40 35 35 38 37 27 19 19 22 25 25 24 26 29 22 19 22 27 34
93 87 77 66 52 46 39 37 37 40 49 48 46 48 48 52 56 64 52 49 56 57 50 49 56 54 44 39 42 42 41 30 23 22 24 25 28 17 21 25 21 19 23 21 31
90 80 68 59 50 45 42 40 42 45 51 50 53 53 52 48 57 60 56 52 50 59 53 46 58 61 48 48 42 48 39 30 29 28 28 26 26 24 24 21 19 23 28 25 22
85 72 62 56 50 44 44 44 47 49 57 58 55 58 60 56 49 61 61 57 56 56 53 50 52 51 48 46 41 43 42 38 36 34 30 29 22 32 26 21 22 22 28 30 24
77 66 60 57 53 46 45 47 53 53 63 64 64 58 67 58 57 51 60 62 63 59 54 55 56 52 50 44 43 43 44 43 40 39 34 29 28 32 30 26 23 23 26 30 28
67 62 60 58 55 50 50 50 55 60 65 71 67 67 66 71 63 57 56 59 66 65 62 59 61 58 55 52 54 52 48 47 43 41 35 31 31 35 34 31 27 25 27 28 30
62 59 60 61 57 55 54 49 57 65 68 75 77 73 69 71 72 65 62 59 59 60 64 62 62 63 60 59 57 53 50 53 46 39 35 33 37 38 38 37 30 31 29 31 29
57 55 59 62 59 54 51 50 56 68 77 76 81 84 78 76 76 72 68 67 63 62 61 64 66 67 65 63 58 53 51 47 45 39 36 35 37 42 43 41 38 34 33 33 27
56 55 59 62 60 53 47 54 60 70 76 85 83 85 89 80 80 78 76 70 70 68 65 60 61 61 62 63 60 57 52 47 44 40 34 34 39 44 44 44 37 34 33 33 30
58 55 61 66 60 51 50 55 62 75 74 86 90 89 85 85 84 82 78 82 75 74 69 65 62 61 62 63 64 63 58 52 45 38 36 39 42 45 48 49 42 39 35 36 33
56 56 61 65 60 59 57 57 64 72 76 80 90 94 91 87 83 81 78 77 78 79 77 73 71 66 63 65 63 65 62 55 49 43 39 42 44 50 54 54 46 43 36 38 33
56 55 58 56 58 63 64 62 63 69 71 74 85 90 97 89 86 85 79 78 75 73 74 71 70 62 63 62 60 57 57 59 58 57 56 57 56 54 52 57 51 48 40 37 37
54 53 54 54 57 60 56 56 61 66 66 71 82 89 90 92 97 90 82 81 77 75 72 69 67 68 68 67 66 66 67 68 67 69 65 61 60 56 53 56 53 50 47 44 42
49 50 52 52 53 51 49 52 61 64 63 71 74 85 93 92 91 89 88 88 85 79 80 80 80 78 77 75 75 74 73 74 72 69 67 65 60 60 58 56 56 54 52 52 43
43 46 45 47 46 43 49 54 58 62 65 72 76 82 88 94 88 87 81 81 80 79 83 85 84 81 80 81 80 71 68 70 71 72 70 68 66 66 63 61 59 61 58 54 52

GFSSW_250_spd_054.txt.gz
Wind_Speed
74 77 80 76 79 81 84 85 86 86 89 91 91 94 95 87 86 78 73 60 54 52 49 49 46 41 39 34 33 32 31 32 26 20 19 18 18 24 30 33 34 32 28 19 12
71 75 76 80 82 84 90 91 94 93 94 97 99 98 92 86 89 74 66 58 52 52 48 46 43 38 38 34 32 30 29 29 22 17 17 17 17 23 27 28 33 31 28 24 14
74 78 81 82 88 89 91 94 95 99 104 107 101 93 92 83 67 62 57 54 51 50 45 43 43 39 37 32 30 27 27 21 18 15 18 15 19 21 25 25 27 29 29 27 22
80 83 86 89 90 91 91 96 101 103 103 89 84 80 68 62 62 57 54 54 50 49 42 41 44 41 36 32 29 26 26 22 18 15 16 16 19 20 25 24 25 26 32 26 23
79 81 84 85 89 93 94 94 97 108 93 84 74 68 56 55 61 58 57 51 48 45 41 44 45 41 36 32 28 24 24 23 18 18 18 18 20 23 20 20 23 24 32 29 27
79 82 82 84 81 89 94 92 99 94 79 67 62 59 52 51 56 54 52 46 45 44 45 45 47 41 38 34 30 25 24 23 20 20 19 20 22 23 17 18 19 22 28 35 28
85 83 82 76 78 84 84 90 93 83 71 60 52 47 46 50 47 45 45 45 42 46 48 45 46 43 40 35 33 29 24 24 21 21 22 18 18 18 19 20 19 20 26 30 31
87 84 79 77 80 80 84 88 85 75 61 52 43 41 42 47 44 49 47 45 50 54 51 45 47 44 42 36 35 28 23 20 18 21 25 22 20 24 20 19 20 21 22 26 26
90 78 79 80 80 78 81 82 76 73 55 46 39 36 38 38 41 51 49 48 54 57 51 46 47 46 43 38 36 31 26 19 20 19 19 14 13 19 18 22 21 21 22 22 27
84 82 84 86 85 81 81 80 75 67 50 40 36 38 40 38 42 47 48 51 58 55 51 48 50 47 45 43 42 36 25 21 21 19 18 18 14 17 17 19 20 21 26 21 25
86 88 91 92 86 77 79 74 69 62 43 37 34 39 42 46 43 45 50 48 61 55 51 52 50 46 55 47 37 36 31 27 20 18 16 15 16 17 19 18 20 26 28 20 26
89 89 92 82 80 78 77 71 65 52 43 33 37 41 40 45 50 50 53 52 55 60 55 51 48 60 52 45 40 39 42 36 23 22 19 18 18 20 20 19 20 27 24 20 28
88 89 84 86 84 80 76 68 59 46 40 33 40 46 45 49 48 54 55 58 56 61 56 55 60 59 52 46 42 39 43 41 26 23 23 21 23 20 19 17 15 17 18 20 25
88 84 86 86 84 81 75 65 51 43 39 37 42 44 46 46 48 48 56 57 57 58 57 56 58 57 54 47 46 40 46 38 36 23 28 25 28 21 20 19 17 16 15 19 21
88 83 82 85 84 80 75 59 45 42 40 43 49 52 48 48 52 44 40 54 56 59 59 54 59 61 55 55 49 50 45 35 29 32 31 32 32 25 23 25 25 19 16 17 20
87 86 86 87 86 78 69 53 42 41 45 46 49 56 54 55 52 47 44 44 60 56 58 56 59 59 56 55 50 48 44 38 36 35 35 39 31 39 29 27 26 24 19 15 19
89 86 88 87 83 75 64 49 40 42 48 52 52 52 60 60 56 52 52 50 56 58 55 60 60 63 59 55 52 47 51 47 43 37 40 38 33 38 34 29 28 30 24 22 23
91 89 88 87 80 69 57 46 41 42 52 58 60 57 60 63 63 60 51 53 57 66 62 57 56 64 62 58 57 59 59 50 42 40 44 37 30 38 37 34 31 29 30 25 25
92 87 87 76 71 64 58 45 44 47 57 62 69 63 66 67 66 66 62 58 50 58 64 61 58 63 62 61 60 57 50 53 46 43 41 40 38 38 39 39 35 30 34 32 27
88 81 75 67 66 62 55 47 49 52 58 66 74 74 71 75 72 71 67 64 59 56 59 65 64 65 65 62 60 58 57 55 50 47 47 44 42 43 47 44 39 33 37 35 31
78 73 71 65 61 58 53 50 52 57 60 68 74 80 80 78 76 75 74 66 66 59 62 60 68 68 66 63 63 60 57 57 53 51 49 49 48 48 48 45 41 37 39 37 35
73 68 66 62 56 55 55 56 58 61 62 68 78 83 83 86 82 80 75 78 69 68 66 67 62 67 73 67 66 63 61 61 59 56 53 52 50 48 47 45 43 41 45 41 39
67 65 62 59 53 55 58 59 59 63 64 68 75 82 87 89 88 83 81 80 78 73 70 66 62 62 64 67 69 66 63 64 64 62 57 57 55 54 51 48 47 49 46 46 45
65 62 62 57 57 57 60 62 63 69 62 64 72 78 87 90 92 89 84 81 83 77 74 73 68 67 66 66 65 67 69 68 65 63 61 59 58 55 53 50 52 53 53 50 51
57 57 57 55 57 58 60 60 64 70 69 60 63 73 81 87 91 94 93 88 85 84 79 77 76 74 72 68 66 65 66 65 63 62 60 60 58 57 53 49 50 53 54 55 54
50 52 54 54 56 57 59 61 66 69 67 62 60 68 74 78 84 93 93 92 92 86 88 80 77 79 79 77 75 71 68 67 65 63 64 65 61 59 53 55 57 61 59 57 55
45 49 49 53 56 56 56 60 63 61 59 59 62 65 67 76 75 81 90 92 88 92 91 85 83 80 78 82 78 77 73 70 65 62 61 60 64 65 65 64 63 63 63 58 57

GFSSW_250_spd_060.txt.gz
Wind_Speed
58 64 66 72 65 65 65 72 72 69 74 67 67 71 76 79 82 85 87 88 89 91 91 93 97 87 72 60 58 50 45 49 49 45 37 35 39 37 42 30 25 22 27 27 28
65 65 64 64 65 62 65 68 67 62 61 65 69 73 77 80 84 89 91 94 100 100 93 88 79 70 62 53 52 46 47 48 47 43 37 35 40 36 39 29 24 21 24 26 28
66 66 68 72 71 68 67 66 66 70 72 77 79 81 84 88 91 94 99 105 105 106 95 66 67 60 51 52 53 51 50 51 43 39 38 34 39 36 33 28 23 22 22 25 23
53 59 65 69 72 75 76 73 74 75 79 81 83 85 88 92 98 95 99 105 100 91 73 67 61 53 51 53 55 53 54 45 41 40 38 36 37 36 31 29 25 23 23 24 23
58 54 54 54 62 69 75 78 80 81 81 85 87 90 91 93 93 96 98 99 84 79 67 59 52 52 51 53 54 49 49 43 40 41 40 36 36 32 32 30 24 24 23 26 25
68 62 61 61 62 66 68 73 77 80 79 80 83 88 92 98 94 97 94 92 78 69 60 53 49 49 48 45 46 50 46 39 38 44 38 35 33 32 31 31 28 30 28 27 26
71 67 71 70 74 73 73 75 78 81 85 86 87 86 90 96 93 95 93 70 73 61 56 51 47 42 43 40 45 46 45 36 43 46 38 35 34 34 33 33 31 28 25 27 24
82 81 75 76 76 79 80 78 81 82 86 86 86 83 88 91 86 84 78 78 68 56 51 47 44 39 39 40 42 45 42 36 47 44 39 34 40 35 31 31 27 24 28 27 23
80 79 79 79 83 84 83 83 86 87 85 82 81 79 80 79 80 72 63 64 55 49 44 46 44 46 41 41 46 47 39 40 45 42 39 34 37 37 35 30 29 26 28 24 20
84 87 86 87 88 89 90 91 86 78 76 74 74 76 77 80 78 72 58 56 44 40 37 37 41 44 44 44 43 47 39 42 46 43 40 36 35 35 32 32 28 23 21 21 19
90 89 86 88 92 94 87 84 75 73 72 75 78 79 81 75 68 60 52 45 37 30 36 38 40 42 45 41 42 44 37 44 49 44 39 37 33 35 29 25 20 17 18 17 17
94 91 90 90 91 86 83 80 75 75 77 79 76 78 76 75 65 53 45 35 40 35 38 38 42 44 43 47 42 32 35 43 46 43 39 36 32 33 29 27 24 17 14 12 12
96 94 96 96 95 93 93 90 90 85 83 87 85 82 77 73 56 49 41 34 42 43 42 42 46 46 41 39 38 33 34 47 48 45 42 36 36 33 31 23 23 22 14 13 10
102 103 105 102 99 100 99 97 95 93 89 85 82 76 73 67 52 45 36 39 40 47 41 46 49 44 45 40 39 44 43 50 51 47 43 41 38 35 30 24 23 21 18 16 16
107 105 107 103 106 100 95 88 81 77 80 77 71 73 72 62 47 40 36 39 41 45 41 50 52 50 47 32 41 45 48 52 53 48 48 41 42 40 34 29 26 23 20 19 19
107 102 104 100 98 96 81 80 74 73 74 70 69 67 66 56 46 37 40 48 44 43 47 46 55 52 51 47 47 43 46 50 54 48 47 47 47 42 38 34 30 25 22 21 20
99 99 103 91 86 80 76 71 68 69 66 68 64 68 63 52 44 36 43 56 55 53 47 45 52 53 54 50 47 45 44 48 53 49 46 51 52 45 40 35 32 31 28 25 25
90 86 83 81 80 79 75 72 66 67 67 65 68 68 65 50 43 37 49 63 65 63 51 49 51 53 52 51 49 47 46 44 52 56 56 55 43 46 42 33 38 39 35 28 30
87 86 85 85 83 83 78 73 66 72 72 69 72 69 63 52 43 41 56 64 63 69 60 56 55 54 58 58 56 49 47 43 43 60 58 54 50 46 45 40 38 39 38 33 33
82 81 83 86 84 84 79 72 75 80 77 78 75 69 63 49 46 44 59 65 68 63 63 63 63 63 59 58 56 52 53 57 54 58 58 57 54 50 53 47 41 39 42 39 34
79 75 81 80 83 83 73 74 78 82 79 77 73 68 63 49 47 48 60 67 74 71 67 66 60 58 57 48 55 57 55 56 55 55 56 58 59 60 54 51 50 50 46 42 40
73 71 77 78 75 74 73 76 79 78 74 73 72 68 63 51 48 53 61 72 75 76 74 70 66 61 59 54 54 61 59 58 55 56 54 55 59 60 57 52 54 53 50 48 46
70 69 71 74 71 67 69 70 73 75 73 72 68 68 63 54 51 58 62 74 80 78 73 72 68 64 56 57 53 54 60 58 55 58 58 58 56 60 60 60 59 53 52 53 52
64 64 68 67 65 65 66 66 68 71 70 69 66 67 63 55 52 61 66 77 83 82 78 73 69 67 62 58 61 62 63 62 61 58 59 59 59 66 63 62 62 60 54 56 55
57 61 62 61 60 60 64 64 65 68 68 67 63 64 63 58 55 63 68 75 89 85 82 74 73 69 64 66 62 56 59 60 61 64 63 59 63 61 66 70 65 59 56 59 58
53 57 54 55 56 56 59 61 63 65 66 66 63 65 66 60 60 64 69 79 83 92 84 80 74 79 77 66 66 61 60 62 65 64 66 60 63 67 72 68 62 58 59 61 60
49 50 49 50 53 50 56 60 62 64 63 63 62 64 67 62 55 61 69 77 85 86 91 89 82 78 78 74 64 62 63 66 67 64 65 66 67 69 70 66 61 66 66 59 62

GFSSW_250_spd_063.txt.gz
Wind_Speed
57 58 63 64 69 71 67 67 65 62 70 71 69 64 63 68 71 72 68 71 73 76 76 80 82 85 86 90 94 84 74 56 57 55 55 51 44 47 43 36 36 37 34 34 32
62 55 56 58 62 63 65 66 64 61 61 64 60 61 62 64 67 70 72 78 81 84 85 86 91 95 97 94 78 69 59 53 59 62 52 47 47 45 42 35 36 36 32 33 30
57 62 62 52 54 58 60 59 59 65 69 70 68 67 65 69 73 74 79 86 88 92 95 94 96 100 80 77 76 64 51 60 60 61 48 42 47 38 39 35 36 36 32 29 28
59 59 58 66 64 51 58 57 55 61 59 57 61 63 65 68 71 73 76 81 85 89 94 98 105 99 76 73 69 60 58 60 62 58 46 42 44 35 36 37 36 35 34 29 25
61 64 62 63 67 64 63 62 60 55 54 58 61 60 66 69 72 74 79 86 91 92 97 100 95 78 59 63 63 55 53 55 57 52 41 45 39 37 35 37 35 35 35 26 24
77 68 71 69 68 70 71 63 63 62 65 63 61 64 71 73 77 82 80 89 90 91 91 85 73 58 55 55 49 47 48 51 52 47 40 41 39 33 38 36 34 36 35 28 28
87 84 71 72 71 70 74 69 71 70 68 70 69 70 75 77 79 82 85 89 93 88 83 71 57 62 57 48 42 40 39 42 42 38 39 41 36 36 38 35 33 36 33 30 29
83 86 83 79 79 78 79 83 78 72 71 73 73 78 83 84 84 86 85 84 83 80 78 62 56 57 52 41 35 36 35 34 38 41 42 34 41 37 37 33 35 34 33 28 29
91 87 90 92 86 80 78 76 80 77 76 76 81 82 82 87 84 85 78 74 80 78 66 55 51 51 44 34 33 37 37 40 43 43 40 32 45 36 36 34 35 33 30 26 29
79 80 78 83 87 85 86 84 88 87 85 85 83 81 83 82 85 78 75 74 78 69 59 57 49 40 36 32 32 36 41 47 48 48 36 37 42 37 37 35 35 34 27 26 27
84 82 85 90 93 94 95 97 92 87 91 85 84 85 84 79 77 76 72 77 77 64 53 52 43 26 33 40 44 42 44 47 46 44 37 40 41 39 35 35 33 33 27 27 22
89 82 85 84 86 87 86 88 88 90 87 89 84 77 78 73 75 76 75 81 82 64 48 48 35 31 37 44 48 47 45 47 47 37 27 43 38 36 33 35 35 30 25 20 18
89 92 89 86 91 94 94 92 91 94 88 95 91 90 95 88 88 90 89 88 77 59 46 44 38 39 40 48 52 51 46 51 36 30 29 40 38 39 35 34 34 28 24 24 17
90 90 92 93 93 97 97 94 93 92 95 91 93 98 96 95 92 88 77 76 64 51 40 45 37 39 41 47 46 48 48 47 38 30 33 44 41 36 35 35 33 30 29 26 21
88 91 95 95 96 98 99 99 97 100 101 99 91 94 90 89 73 68 66 65 48 45 37 45 37 43 39 47 49 47 49 38 32 30 37 46 40 39 37 35 35 31 28 23 22
95 98 98 97 102 103 105 103 101 102 103 105 92 86 87 80 66 64 58 57 37 40 38 42 43 47 43 44 44 45 39 31 32 31 39 46 42 41 41 40 37 31 27 27 22
87 91 94 98 104 102 102 102 106 100 98 97 85 81 72 68 61 60 57 49 38 39 44 43 40 50 51 43 41 45 36 35 34 34 37 50 46 47 48 43 42 38 31 31 26
85 89 91 91 98 100 101 97 91 87 91 88 68 59 65 66 62 56 57 48 37 42 50 44 42 54 54 51 47 50 42 38 41 38 39 53 44 48 52 47 45 39 40 37 32
80 82 84 92 92 92 90 86 77 78 80 76 61 60 65 66 60 57 57 39 39 45 54 49 48 51 54 56 55 47 39 40 46 43 36 46 51 56 50 49 47 47 42 40 39
77 75 82 85 86 85 78 73 72 78 83 76 65 65 66 68 60 61 55 44 43 50 59 59 50 51 56 59 56 55 46 50 46 45 43 27 52 55 52 49 52 48 42 39 40
76 72 85 81 80 78 70 67 72 79 80 73 69 68 68 68 62 62 55 44 43 54 61 67 63 55 54 51 52 55 56 47 51 47 44 42 36 40 54 54 50 47 45 46 43
70 70 79 78 74 71 69 69 68 73 78 67 65 69 71 71 65 66 57 40 45 57 66 70 70 67 60 53 59 58 59 57 50 53 46 45 46 49 53 56 57 56 52 47 41
67 69 74 74 70 68 66 65 64 71 72 66 63 69 71 68 65 62 58 44 47 59 72 69 77 76 67 60 59 58 59 57 55 55 53 48 46 49 50 56 60 60 57 53 46
63 66 71 69 68 63 62 63 63 68 67 66 64 66 69 66 64 61 57 43 51 60 74 71 76 73 74 63 61 60 60 61 56 56 56 52 49 50 49 51 54 57 58 55 52
60 64 63 62 62 59 56 58 61 64 64 62 63 62 65 63 63 62 58 47 51 62 74 75 79 74 72 70 65 72 69 63 58 57 59 56 53 53 54 60 61 57 56 49 47
58 57 54 55 54 51 51 55 56 58 60 62 61 63 63 62 59 57 52 45 53 63 76 80 81 81 79 78 71 69 64 62 58 53 60 60 60 61 58 60 68 68 59 54 52
52 49 48 47 46 45 48 49 52 53 56 58 59 60 61 59 55 55 52 52 58 66 80 84 80 84 84 79 78 75 68 59 63 58 59 65 70 70 68 66 68 67 56 55 53

GFSSW_250_spd_066.txt.gz
Wind_Speed
64 62 61 59 57 59 57 66 71 72 68 65 60 66 67 63 59 64 69 68 68 70 70 71 71 71 71 74 78 79 78 77 81 83 86 89 67 56 46 40 40 41 38 40 37
61 64 65 64 64 61 62 61 61 63 68 65 64 64 56 60 61 56 56 59 63 64 65 69 73 76 79 84 86 92 90 88 91 84 77 75 61 54 48 37 42 42 38 37 34
72 67 71 72 64 66 63 64 60 59 54 56 62 62 60 62 59 58 57 61 61 63 68 71 76 76 80 85 88 97 88 87 75 68 64 69 60 52 45 38 45 40 41 35 35
77 79 82 78 69 68 67 63 60 60 62 52 46 50 52 58 56 57 62 62 61 62 67 73 75 79 82 86 95 91 76 57 56 58 65 61 58 47 43 42 40 41 40 36 34
80 80 79 82 78 68 75 69 62 61 65 63 64 63 60 58 54 58 58 61 63 66 70 74 77 82 83 91 87 70 64 49 51 61 63 53 46 41 42 42 40 39 38 37 32
82 84 83 77 69 72 79 78 72 73 66 67 61 62 61 59 66 59 65 68 69 70 75 81 85 85 86 84 76 63 51 52 48 50 47 37 37 41 40 43 40 37 36 35 34
89 88 82 78 67 66 73 75 78 75 73 72 67 65 69 69 70 64 62 70 72 76 83 84 83 86 85 74 67 59 52 45 41 38 33 34 36 35 41 40 39 36 35 33 35
102 94 87 79 69 66 71 69 75 80 74 73 68 75 79 70 68 71 69 72 76 81 83 84 84 87 73 62 62 57 47 38 39 38 40 36 38 41 42 42 38 38 34 34 36
109 100 92 77 63 63 67 73 72 74 71 75 77 79 67 71 73 72 75 77 80 83 86 87 92 84 60 58 54 52 36 37 42 43 45 41 49 49 47 40 37 35 34 33 33
111 99 90 74 60 63 69 72 73 70 68 67 70 78 79 77 76 83 85 83 80 83 84 86 80 72 60 62 53 45 34 40 45 47 41 41 52 50 43 40 38 35 34 32 31
99 89 82 68 64 67 72 70 71 70 72 72 71 77 79 82 88 84 77 81 82 79 78 81 75 79 81 63 49 35 34 39 47 42 38 47 52 43 39 37 35 32 32 32 32
96 88 78 68 70 70 70 79 80 76 73 77 83 83 87 80 80 77 81 81 78 77 78 79 84 87 74 53 42 29 36 44 47 44 46 52 54 45 36 36 35 31 32 34 32
85 78 76 73 70 72 73 75 75 75 74 81 77 79 81 81 84 83 80 82 84 85 86 89 89 79 52 48 35 31 42 47 48 46 45 53 47 40 40 37 34 30 30 31 32
79 74 73 76 77 79 78 79 81 81 77 81 84 84 85 87 86 87 84 85 86 87 88 84 67 47 44 40 33 36 46 51 50 37 48 50 43 36 38 32 29 28 27 30 32
80 75 74 75 81 83 83 80 81 84 80 82 84 88 86 87 86 88 87 86 89 85 81 73 47 37 40 42 35 42 48 52 49 41 48 42 39 40 40 36 38 36 31 31 35
77 73 72 76 84 82 83 83 83 84 82 86 89 89 90 90 88 89 91 88 85 83 78 65 43 36 43 42 37 51 50 55 51 50 46 38 39 43 41 42 38 37 32 35 35
74 75 72 72 80 83 86 91 90 87 95 96 93 92 94 97 97 95 94 91 83 71 62 49 40 35 42 45 40 46 53 52 51 53 36 38 35 46 47 41 38 38 37 37 36
75 74 73 77 75 76 84 84 84 88 96 101 98 96 95 96 94 91 83 76 68 60 52 47 40 37 40 43 42 40 49 49 50 52 34 36 33 44 54 49 42 38 39 41 39
75 74 76 76 74 73 74 74 76 84 92 98 96 90 85 89 84 77 73 66 56 52 52 46 39 39 44 46 46 43 49 53 51 56 39 36 37 39 55 48 45 43 42 43 40
74 73 79 78 77 74 70 67 72 81 85 88 85 79 81 80 77 67 59 54 53 53 53 44 43 41 44 52 54 48 51 50 49 54 47 39 42 40 51 51 53 50 46 42 40
74 71 79 78 76 75 70 70 72 78 81 79 77 72 74 73 67 65 61 54 55 54 49 45 46 45 51 56 58 59 56 52 53 52 47 43 49 33 41 51 51 50 49 45 42
70 71 79 77 74 70 67 70 70 74 80 72 72 65 66 66 61 62 59 58 57 56 54 47 45 49 58 58 63 67 63 57 54 59 49 44 45 43 38 42 46 53 51 52 47
68 70 75 74 69 69 67 66 63 67 76 66 64 61 63 64 56 58 60 60 57 56 55 52 49 52 64 64 67 71 65 62 57 60 62 50 42 45 49 50 47 57 56 54 49
67 70 69 68 67 64 66 63 62 62 69 64 60 57 63 65 55 57 59 59 59 56 54 51 52 55 67 70 67 68 70 64 63 56 59 52 47 45 46 48 51 59 58 54 54
66 64 58 58 58 56 56 56 59 60 65 59 56 55 63 60 56 53 52 54 55 58 54 50 52 57 67 76 68 67 64 67 69 56 57 58 53 52 48 51 52 47 48 53 60
59 57 54 49 48 47 45 49 52 52 53 51 52 55 57 55 50 49 47 50 52 54 55 54 60 64 70 78 76 71 65 65 62 64 60 59 54 52 55 50 44 51 51 52 51
51 48 49 44 42 41 41 42 43 44 46 45 47 48 51 53 50 49 50 49 54 55 55 57 64 68 72 76 82 74 70 70 68 69 66 66 60 58 58 60 60 56 46 52 60

GFSSW_250_spd_069.txt.gz
Wind_Speed
60 60 58 63 60 59 56 56 55 60 59 57 62 59 64 71 73 76 72 72 64 65 66 65 68 68 68 69 72 72 67 66 67 73 71 82 90 91 94 88 76 56 55 54 52
60 64 67 64 65 66 66 62 67 62 62 63 60 66 60 59 60 64 66 68 70 66 66 61 59 62 67 70 71 71 71 70 75 78 81 89 102 95 75 49 42 46 45 57 49
67 68 69 71 75 70 67 68 68 69 68 62 61 65 67 60 54 58 61 67 65 66 65 68 69 70 68 72 72 73 71 73 77 84 87 83 89 78 57 38 41 40 45 52 47
74 74 73 74 73 74 71 68 69 72 72 63 63 64 66 65 62 51 54 56 56 61 64 62 65 68 66 70 73 75 71 77 79 82 85 80 80 63 54 41 39 36 47 48 48
82 82 79 75 75 74 70 73 72 65 68 64 60 69 64 63 60 61 62 64 66 59 61 61 61 61 65 68 69 69 73 80 79 79 84 75 66 58 48 41 39 42 44 47 46
88 83 83 78 77 75 74 69 69 67 64 68 65 72 70 68 60 68 70 64 63 61 61 66 66 67 66 68 71 73 74 80 81 75 78 69 55 54 44 46 45 43 44 45 46
86 87 88 83 79 78 73 72 71 55 61 67 69 62 72 73 71 66 68 73 63 65 68 67 63 67 67 71 72 76 79 78 80 73 74 61 47 43 50 48 47 46 46 46 46
90 91 91 89 83 79 77 72 61 56 55 64 65 62 65 70 74 68 68 66 70 69 66 65 67 68 69 74 80 81 82 79 72 71 69 52 42 47 52 48 46 47 46 48 45
97 97 93 88 82 83 79 74 64 56 53 60 61 63 68 70 70 70 68 73 75 74 68 68 71 72 77 83 82 84 82 78 70 69 58 42 42 48 49 43 47 45 45 46 42
101 101 95 91 89 87 83 76 60 51 53 54 55 59 61 64 63 69 70 69 71 76 72 78 74 74 81 80 79 85 83 72 81 61 44 32 41 46 43 43 46 46 46 43 38
108 102 102 100 98 94 83 70 57 51 52 54 57 61 64 64 63 63 65 68 69 70 72 75 78 81 77 78 82 81 78 83 58 53 32 32 40 39 39 39 42 44 43 39 37
107 105 106 106 98 87 77 67 57 52 55 59 60 63 62 63 68 70 64 70 74 76 74 76 78 80 77 75 74 78 81 72 48 40 28 31 37 39 40 48 44 46 42 38 33
110 107 109 99 95 84 76 65 60 59 53 69 65 65 66 69 71 73 72 76 77 75 74 73 75 79 75 72 76 76 72 55 45 30 27 33 45 44 44 47 47 41 38 34 32
113 114 112 101 94 82 73 64 63 63 58 66 69 67 73 76 75 75 74 74 74 76 75 75 78 79 76 78 78 67 69 48 40 28 26 33 46 40 48 47 44 39 33 30 29
117 116 108 99 87 77 73 63 63 66 62 69 69 72 75 80 78 74 76 79 80 78 79 81 81 79 77 76 73 64 54 36 35 29 26 39 49 45 47 44 43 39 38 42 37
116 105 99 91 81 73 68 62 62 65 67 75 76 78 78 79 80 81 82 82 81 81 81 83 78 77 76 72 65 47 43 35 35 33 30 39 50 47 51 52 51 48 46 46 39
104 100 92 82 72 70 67 63 59 61 71 77 80 82 86 86 84 85 85 85 85 82 81 81 80 76 73 70 57 39 39 36 35 31 33 44 45 53 59 61 55 49 42 45 45
98 90 85 76 71 69 68 65 59 62 73 77 81 84 84 90 84 85 87 89 88 85 83 81 79 71 68 52 43 37 39 36 34 34 41 50 42 59 60 57 50 41 38 42 44
93 85 81 76 74 71 70 64 64 67 68 75 79 81 86 92 88 87 90 91 88 87 84 82 81 65 54 41 40 38 38 37 37 39 45 53 46 57 62 58 51 44 42 42 41
83 80 76 77 76 75 71 68 70 72 74 71 73 72 71 80 88 91 92 90 91 88 78 72 63 51 42 41 39 39 44 40 39 44 47 59 51 55 61 57 49 44 45 42 43
77 79 78 77 77 73 69 68 70 72 73 70 72 72 68 71 78 80 81 81 83 80 72 63 52 43 41 42 39 43 45 44 40 42 55 53 54 48 64 58 52 48 45 41 42
78 81 79 74 69 67 68 68 68 67 69 65 66 69 67 65 66 66 68 70 67 63 58 53 47 43 46 44 43 52 50 49 47 47 55 55 61 49 53 61 56 52 48 46 45
77 79 72 66 67 65 68 68 65 64 67 60 62 65 61 60 61 61 57 60 57 62 58 53 49 47 49 47 47 58 56 55 52 55 57 55 62 53 51 59 62 58 54 51 50
72 75 70 65 64 63 64 63 62 62 62 57 58 61 59 58 55 52 54 53 53 54 56 56 53 50 50 49 49 58 61 62 56 58 62 60 55 56 49 51 61 64 59 56 55
70 71 67 63 62 57 54 54 54 53 54 51 56 57 54 52 55 52 49 51 51 52 55 57 58 57 54 55 54 62 66 68 62 61 65 64 56 54 53 50 51 64 63 60 58
68 64 62 59 56 51 48 45 44 44 45 45 49 48 47 51 53 50 48 48 51 52 55 59 64 64 60 62 57 58 71 73 71 64 68 68 59 51 53 55 52 56 61 63 58
60 58 56 49 45 42 38 37 38 39 40 39 42 42 44 49 49 47 46 49 50 52 54 59 63 64 64 64 62 57 71 76 74 71 67 70 68 62 49 52 52 56 56 58 61

GFSSW_250_spd_072.txt.gz
Wind_Speed
65 63 68 66 64 67 68 65 66 66 63 63 62 66 64 62 65 62 63 64 62 68 71 74 78 77 76 76 75 73 69 62 64 69 70 73 76 78 74 74 74 77 83 85 70
68 70 70 67 70 73 72 72 70 73 71 63 62 67 67 69 63 63 61 62 65 62 64 65 71 70 68 70 66 66 67 62 67 69 70 71 76 81 79 80 84 75 67 61 59
73 74 72 72 74 75 75 75 71 75 78 78 75 72 72 71 73 65 64 62 63 67 60 60 60 62 65 68 69 65 63 67 67 71 70 70 76 81 80 76 81 66 58 48 52
79 76 76 76 75 72 81 83 74 77 78 78 85 81 81 75 69 65 66 59 66 62 65 60 57 57 52 59 66 62 61 63 65 69 75 72 74 79 77 74 80 68 44 43 49
87 83 81 80 78 80 83 80 80 79 81 85 83 85 87 84 77 63 67 63 64 64 63 61 60 53 57 63 62 60 60 62 67 69 71 68 71 75 77 75 77 60 44 42 50
89 91 94 88 85 86 88 82 83 82 83 84 79 81 88 87 83 67 65 66 66 67 62 62 63 65 63 60 63 62 62 63 63 63 66 68 73 71 80 86 71 50 45 48 48
95 92 91 94 97 95 94 86 86 89 91 79 79 74 79 78 81 75 65 70 61 71 68 65 66 65 63 64 64 64 60 58 62 65 69 79 71 81 78 82 58 49 48 53 49
99 100 102 97 98 95 87 85 90 90 78 77 78 70 69 69 68 66 69 73 63 68 74 73 72 66 63 69 65 62 59 59 66 68 74 80 70 78 79 65 51 46 49 54 51
101 101 99 98 92 90 93 93 88 80 76 66 60 59 56 60 61 64 68 73 63 62 72 71 66 65 65 68 68 69 61 63 67 72 78 75 67 85 62 50 45 43 45 52 50
103 103 107 100 96 96 99 96 85 79 75 63 55 48 49 57 63 65 66 71 70 64 62 68 67 64 68 72 68 66 63 65 70 76 80 72 66 68 50 40 38 35 44 50 49
105 112 109 103 102 102 106 98 84 77 69 63 54 45 51 56 58 59 61 64 68 73 72 72 72 72 75 69 67 64 63 67 70 77 79 68 58 53 42 30 31 36 45 49 47
114 114 115 106 105 107 105 98 86 68 70 61 53 47 50 55 57 59 58 62 64 65 64 66 58 70 68 66 63 63 66 68 72 76 76 71 60 46 33 28 28 41 46 47 46
119 120 118 113 109 104 102 93 84 72 65 68 48 46 52 54 59 62 60 64 68 65 63 64 62 59 63 67 68 68 68 67 71 77 74 63 41 38 29 25 38 46 47 46 42
127 127 121 115 107 104 102 98 87 75 62 58 55 46 50 58 60 61 60 65 59 61 63 61 62 63 66 68 65 66 69 67 67 72 69 47 29 37 25 34 44 46 48 47 42
128 129 116 105 113 110 102 94 80 73 59 58 57 56 52 56 63 66 64 67 63 62 67 67 70 68 67 69 67 65 66 67 70 72 58 38 32 40 27 42 46 51 52 50 46
124 118 112 111 106 103 88 79 75 69 58 57 55 58 60 60 62 69 74 73 70 68 75 76 70 68 69 69 71 70 70 68 68 63 47 33 33 38 31 49 53 51 52 53 48
116 114 107 105 100 93 84 77 67 58 56 52 51 53 59 64 65 68 72 73 76 76 76 77 79 77 76 76 74 73 69 65 63 55 36 34 34 46 37 51 53 54 55 52 46
113 114 106 98 93 87 81 71 61 55 56 54 53 53 54 59 65 69 71 74 76 76 77 77 76 75 78 79 76 75 65 58 56 46 35 37 35 47 38 50 51 54 56 48 44
114 107 100 94 89 83 72 62 60 58 57 61 61 54 52 55 60 65 74 77 78 79 81 80 80 80 81 78 76 69 60 57 44 38 35 42 40 51 49 53 55 54 54 46 44
103 98 93 88 83 75 68 65 66 63 63 63 65 57 54 54 58 62 72 78 81 82 83 83 80 78 79 76 69 64 53 46 40 39 35 45 44 48 52 54 54 53 55 49 46
96 89 85 81 75 72 69 69 68 65 61 60 58 56 52 54 58 61 63 70 79 81 81 81 80 77 76 75 67 59 47 41 42 39 37 49 41 51 55 49 58 60 60 52 48
87 82 78 75 71 73 70 64 61 61 60 57 57 54 54 50 53 57 61 65 70 76 80 82 84 78 78 70 64 58 46 42 44 42 39 52 43 53 54 52 56 58 61 53 49
80 77 75 73 71 63 62 63 60 62 62 59 54 55 56 52 52 54 54 59 65 66 70 72 70 74 71 58 55 47 44 42 46 46 44 49 46 50 51 52 55 58 60 56 51
75 75 74 66 64 62 60 58 57 56 59 56 54 50 54 53 50 51 52 53 59 62 62 62 62 67 67 51 43 47 46 47 54 51 48 48 49 48 47 53 52 59 61 57 51
72 71 66 65 63 61 58 52 50 49 50 50 51 46 47 48 49 52 52 52 55 55 59 57 57 58 58 50 48 51 50 50 59 55 53 54 53 54 55 56 55 65 62 61 56
67 66 64 63 61 57 53 49 46 44 43 44 44 41 40 46 47 52 52 50 54 51 53 57 53 52 53 50 53 55 53 51 62 58 53 50 54 57 56 58 59 60 65 64 64
64 62 62 58 54 52 48 44 39 39 38 37 37 37 39 41 44 49 49 50 49 53 50 50 50 50 51 51 56 59 59 56 62 63 59 55 58 55 56 63 60 59 63 64 63

GFSSW_250_spd_075.txt.gz
Wind_Speed
65 64 67 67 69 68 68 68 68 66 65 67 64 67 72 75 75 73 72 76 77 75 71 67 66 62 65 65 66 77 76 62 66 67 74 79 76 74 71 65 59 62 63 64 67
70 69 69 68 70 71 70 70 72 73 71 68 71 68 71 75 77 73 75 77 81 81 78 69 64 64 59 63 60 63 63 59 66 70 73 73 71 70 64 65 65 62 69 70 73
70 72 72 76 76 74 75 74 77 79 78 75 75 78 81 77 75 73 79 81 81 83 83 80 75 64 63 63 61 59 54 58 62 69 67 64 68 69 66 67 70 69 72 70 63
69 69 70 74 80 81 84 83 80 77 78 81 82 82 85 83 81 78 79 79 84 84 84 80 80 69 63 62 63 58 57 61 64 68 67 65 66 64 67 70 70 65 68 64 67
78 78 78 79 82 87 87 86 82 80 80 81 86 89 89 86 83 86 87 82 80 83 81 83 79 73 67 62 65 61 54 56 57 57 58 60 60 63 66 67 68 63 66 67 67
84 84 84 83 86 91 95 92 88 91 90 92 84 85 80 82 85 88 83 83 82 83 80 80 81 77 68 61 66 62 60 56 60 61 59 57 55 57 61 68 67 68 67 66 65
88 88 89 91 91 90 94 95 96 93 88 89 84 81 82 89 91 90 87 85 77 80 78 79 80 79 74 64 65 62 61 62 65 66 59 59 53 59 64 67 66 70 67 68 57
95 91 97 95 91 84 87 91 90 85 88 96 96 86 88 94 86 83 82 78 72 75 76 78 80 76 71 64 64 64 65 63 65 63 59 56 52 61 61 64 69 74 75 63 51
97 97 93 95 90 90 92 88 91 94 96 102 101 95 88 78 75 73 70 69 69 71 72 78 82 62 69 67 57 63 68 64 65 66 62 62 59 63 63 64 69 76 75 58 45
100 100 100 95 92 96 94 96 97 98 100 108 105 89 77 69 63 62 61 63 68 70 70 73 74 68 67 72 63 61 61 65 66 68 67 63 62 59 63 70 72 72 63 48 37
102 97 96 102 102 102 100 103 105 103 110 103 88 78 71 61 59 58 56 60 65 65 65 64 64 71 73 72 57 62 69 69 65 68 64 66 61 54 62 67 71 64 46 37 32
99 100 101 108 109 106 112 110 108 108 103 86 78 69 60 51 54 52 52 58 63 63 64 64 62 67 70 68 62 58 64 68 68 68 65 61 51 54 61 70 67 46 36 29 29
106 106 106 113 110 112 111 111 109 96 82 82 73 60 54 51 49 51 51 58 62 63 60 59 63 69 72 72 63 65 65 69 65 67 63 57 53 56 63 64 55 33 29 30 28
111 113 116 115 115 116 116 106 101 91 81 79 73 71 58 54 51 48 48 53 60 61 57 54 58 58 65 68 68 67 61 58 59 58 59 57 48 54 62 61 44 33 32 32 36
119 119 118 121 121 117 112 105 98 90 79 76 70 70 69 56 50 49 48 53 59 61 61 59 59 60 60 64 62 61 65 62 56 56 54 56 51 52 60 62 37 37 35 38 42
119 118 122 120 121 121 112 101 95 87 79 69 65 65 64 58 51 48 49 53 59 60 61 64 61 62 65 64 60 59 57 56 58 57 58 57 59 55 60 54 31 38 38 40 43
123 124 126 126 127 117 107 104 93 84 77 68 66 59 54 53 50 49 49 55 60 63 64 65 62 63 63 60 59 61 61 64 65 65 60 57 54 51 51 44 36 42 43 43 41
123 121 120 124 118 109 103 98 86 77 73 67 60 53 46 47 48 47 48 52 60 65 68 69 66 64 65 67 65 64 65 68 72 68 64 61 55 49 45 38 41 45 48 47 43
121 121 121 116 112 105 97 91 83 74 69 60 55 49 49 45 49 47 47 52 56 65 70 71 72 69 69 71 70 70 72 74 74 73 65 57 48 42 42 37 45 49 53 50 46
123 122 117 109 107 98 93 83 76 70 62 55 54 53 51 51 50 49 50 52 57 61 67 72 74 74 73 74 74 72 72 73 72 69 61 44 41 33 45 42 48 54 53 52 49
107 110 108 101 99 94 84 77 71 65 60 57 54 54 51 51 49 49 52 54 58 60 62 66 72 75 75 77 74 71 72 72 68 58 44 33 37 38 45 49 49 58 53 53 52
109 100 101 96 88 80 77 70 65 67 62 55 51 50 51 50 47 47 49 56 57 62 62 63 69 74 76 75 74 75 75 69 63 54 36 33 38 48 47 47 53 57 56 53 55
100 98 92 83 77 74 68 67 66 63 61 56 53 50 51 49 48 48 50 52 56 62 63 60 62 71 75 73 73 74 72 60 53 46 35 34 46 45 44 48 56 57 57 54 53
94 86 78 75 72 65 65 63 62 59 61 55 54 53 51 49 47 49 52 54 56 58 61 61 61 67 72 73 75 74 71 57 44 44 36 44 52 47 48 50 59 57 52 51 53
80 75 74 68 64 61 61 58 59 57 57 50 48 47 46 47 45 47 53 55 56 60 59 60 62 64 63 63 66 70 66 51 41 37 42 47 53 51 50 53 56 58 53 49 50
71 69 66 65 60 58 56 55 54 50 48 44 43 40 40 42 40 46 52 55 58 60 61 58 60 62 57 57 57 59 55 46 40 42 49 52 49 51 51 53 62 62 54 50 51
64 64 63 59 54 56 53 49 47 45 40 39 36 34 33 36 39 43 50 54 58 59 57 60 58 53 53 51 49 52 48 44 45 52 48 56 53 54 53 53 52 63 53 52 53

GFSSW_250_spd_078.txt.gz
Wind_Speed
51 55 56 58 57 61 60 59 60 61 63 68 72 73 73 67 70 69 70 69 69 66 71 69 71 74 75 74 75 75 72 68 67 67 75 82 87 85 79 72 68 68 66 64 67
57 58 59 60 60 60 62 64 64 64 67 68 71 78 77 70 70 70 67 68 71 76 74 76 75 74 74 74 74 76 72 70 69 65 59 68 77 77 70 66 64 62 59 61 60
62 59 62 63 64 66 66 68 71 70 72 73 72 79 79 72 67 68 72 74 78 79 79 78 79 80 81 77 73 77 73 72 67 62 60 57 61 65 62 62 64 64 58 54 61
59 62 61 64 66 68 70 74 75 76 76 79 78 80 81 74 75 73 79 84 78 80 82 82 82 82 84 81 80 73 75 73 69 65 64 60 62 57 60 60 64 65 65 62 63
62 64 71 74 72 74 80 84 82 82 81 80 78 81 83 75 82 83 87 84 86 78 81 85 88 87 84 81 79 71 74 73 69 64 63 60 58 63 52 55 59 56 58 59 62
74 75 75 79 81 87 82 81 83 84 84 85 81 91 84 87 87 85 82 87 87 93 88 87 91 88 85 79 76 73 73 72 68 66 65 58 56 52 53 59 58 59 56 55 55
79 79 80 86 89 88 82 85 84 83 88 88 86 87 86 82 82 87 88 90 95 96 93 87 85 84 78 74 74 75 74 73 69 67 62 62 59 55 62 62 57 59 58 58 57
82 82 85 88 92 90 86 83 89 89 88 85 79 81 85 85 88 91 93 99 89 83 81 79 76 73 70 71 74 75 73 77 70 65 61 61 60 60 63 60 58 61 57 59 64
85 87 91 91 98 94 89 89 93 92 91 84 87 90 88 90 92 97 92 84 79 76 76 74 69 67 67 71 71 73 78 75 73 67 60 61 61 64 65 62 59 59 62 65 68
89 94 92 90 97 96 97 96 95 94 90 89 91 95 95 97 102 93 83 79 74 72 72 68 62 63 65 66 67 72 75 78 68 60 54 56 61 62 67 65 64 64 66 67 68
92 93 95 100 99 101 101 99 95 93 94 94 98 98 99 98 92 81 75 71 68 66 62 62 59 60 61 61 67 71 75 69 69 61 49 50 58 61 67 65 65 67 70 64 71
93 96 91 93 102 106 103 101 97 99 100 105 104 104 102 98 83 73 67 62 58 58 56 57 58 56 54 56 65 66 67 72 65 67 55 58 61 61 62 61 63 62 66 67 65
95 97 102 108 106 108 103 101 99 101 108 107 104 97 93 82 77 68 60 54 53 54 54 55 57 56 53 55 58 59 66 64 64 71 61 60 62 62 63 63 62 66 64 61 56
106 110 114 112 110 106 103 102 103 103 107 107 105 98 90 79 67 64 59 51 50 50 50 54 59 58 57 56 55 59 60 71 69 68 73 61 59 62 60 63 65 64 60 52 47
107 110 111 109 107 104 103 105 107 104 104 105 98 95 84 74 65 56 57 58 50 47 49 49 56 57 59 56 57 57 64 64 65 64 61 63 62 57 59 63 61 56 51 52 43
111 116 116 115 115 108 105 108 106 105 109 105 100 89 79 72 66 56 54 58 52 48 49 51 52 58 57 56 54 58 62 67 64 68 65 67 61 55 54 56 53 57 50 43 35
119 119 112 117 117 110 109 111 112 112 107 98 91 82 75 68 62 58 55 53 52 48 50 52 52 59 61 59 55 54 59 55 55 60 65 61 60 54 48 54 57 54 48 37 33
114 119 117 115 109 116 117 115 110 101 96 93 84 76 67 62 60 56 51 51 50 50 50 55 55 56 61 64 63 59 58 58 58 59 57 52 53 55 54 56 55 51 48 35 36
116 117 113 112 113 110 111 102 96 96 93 86 80 68 64 59 56 52 49 48 48 50 51 54 60 61 63 64 65 66 64 59 56 52 52 54 56 57 59 58 59 51 42 36 40
118 117 113 110 107 103 102 101 99 95 85 81 74 65 63 55 51 50 53 50 49 52 51 53 58 65 67 66 68 63 61 62 61 60 59 59 62 60 58 58 58 51 38 40 44
119 111 109 104 102 101 98 93 91 83 80 75 69 62 57 53 54 54 55 54 55 55 55 56 57 60 68 71 70 68 67 64 63 66 66 65 64 63 62 57 55 45 37 43 47
106 104 103 99 99 98 94 90 85 79 73 71 64 58 55 54 54 55 53 53 56 59 60 59 57 59 66 69 70 71 71 70 69 66 66 68 65 58 56 49 48 41 40 48 51
99 97 94 94 93 92 86 83 77 71 69 66 61 57 54 54 52 53 53 52 53 59 60 62 60 62 64 66 70 73 72 73 69 69 68 67 64 50 48 49 43 41 46 51 54
94 89 89 87 81 77 73 70 69 67 64 64 60 55 53 52 49 51 53 54 54 58 59 58 61 64 63 65 67 71 74 72 71 70 69 66 61 50 45 41 44 43 49 51 58
84 81 79 75 70 68 66 65 64 63 61 60 56 53 47 49 47 50 51 51 51 58 60 58 56 62 65 63 64 68 69 70 68 67 66 62 49 38 42 41 45 47 50 53 60
70 69 71 65 61 63 62 61 61 58 56 55 52 47 44 44 43 44 46 46 51 60 60 59 56 59 64 66 66 62 64 67 67 65 63 55 37 39 47 45 47 50 51 53 61
63 63 60 58 58 57 59 58 56 53 51 50 47 42 40 36 37 38 41 43 49 56 58 63 60 59 61 65 60 59 58 60 63 64 60 47 38 44 50 52 49 51 53 53 58

GFSSW_250_spd_081.txt.gz
Wind_Speed
57 57 59 58 56 55 56 57 56 56 57 58 59 61 63 64 65 63 68 64 64 67 67 66 59 57 62 62 67 69 70 66 68 70 73 70 69 70 64 65 72 75 76 75 72
60 59 60 59 58 61 60 59 60 59 58 58 58 62 68 71 69 69 70 69 66 65 65 63 68 70 70 70 69 74 74 71 73 74 77 74 73 69 63 61 61 66 66 64 62
62 61 65 63 62 61 61 61 62 63 61 64 64 66 70 76 74 74 72 71 70 65 71 79 72 74 81 78 79 74 74 79 79 80 79 75 73 72 65 57 57 59 59 63 57
60 63 66 67 64 59 61 62 64 68 69 69 76 74 74 74 75 73 73 73 78 75 74 79 83 83 80 81 80 80 72 78 81 84 79 79 73 71 67 59 61 56 55 54 55
65 63 68 68 69 67 70 75 76 77 71 77 77 81 77 76 77 75 78 81 79 79 80 86 88 85 80 82 83 83 82 79 82 82 80 76 73 66 67 59 60 59 58 52 55
68 65 68 71 72 70 74 78 80 81 78 74 79 86 85 84 80 85 87 86 90 82 83 84 83 86 87 89 89 91 84 82 86 87 84 77 73 65 65 63 61 56 54 56 51
72 73 73 72 79 83 85 81 86 87 82 83 80 84 92 91 95 91 91 93 85 85 83 86 89 97 94 88 87 88 85 81 79 81 81 79 68 60 64 66 59 56 57 55 57
81 78 77 79 81 86 88 85 88 90 91 93 92 87 89 93 95 95 99 90 84 87 88 93 98 91 84 79 76 75 72 70 71 74 73 73 64 65 66 64 60 57 59 57 55
84 85 81 86 86 88 92 88 89 92 93 95 97 98 95 91 93 88 84 86 88 90 95 95 90 85 78 74 68 68 64 63 69 65 66 67 64 67 64 62 55 52 58 56 56
88 89 86 83 90 83 87 94 97 94 97 99 101 97 93 99 87 83 88 90 92 92 94 90 84 80 75 70 64 66 59 61 61 61 65 63 60 61 66 56 54 56 60 63 60
91 88 89 84 77 83 86 89 93 97 96 96 95 97 98 94 86 91 95 96 92 94 91 86 78 74 72 67 62 60 57 57 59 61 59 56 49 53 64 57 49 55 56 62 67
91 92 87 86 86 87 91 94 97 95 94 95 95 99 96 95 98 97 95 93 94 91 81 77 71 67 63 62 56 55 55 55 57 59 50 54 60 62 65 52 50 60 63 67 70
96 91 92 93 93 97 96 95 97 99 101 100 102 99 101 103 102 96 96 96 86 79 75 69 65 61 58 55 55 53 51 51 47 49 47 54 57 63 59 49 49 60 62 61 61
98 95 96 95 93 95 96 99 102 106 103 100 105 104 106 104 101 98 95 85 80 74 69 63 61 57 57 53 53 52 50 47 48 52 50 51 55 63 65 53 63 63 63 62 63
98 96 96 96 102 101 103 104 103 101 103 105 104 109 104 106 102 92 81 79 79 71 65 61 56 55 53 53 51 54 49 51 55 49 47 50 60 60 64 68 64 64 63 58 61
102 99 104 104 104 106 107 106 104 109 112 112 107 107 104 102 93 87 84 81 73 66 59 56 53 53 53 51 52 54 54 54 49 47 47 52 61 60 68 68 70 63 56 57 59
107 104 105 101 108 108 109 113 114 114 111 112 109 105 100 95 90 87 83 76 69 58 56 52 53 51 51 52 50 54 59 57 51 47 52 55 60 61 62 62 61 62 58 57 62
107 109 105 108 107 108 111 110 114 113 116 113 107 103 98 90 86 81 73 69 63 56 53 51 52 47 51 54 51 53 57 59 56 53 53 56 58 61 60 60 61 57 55 62 62
111 111 116 111 113 113 114 117 117 121 115 110 106 101 96 92 80 77 68 63 61 54 54 52 49 44 51 56 54 57 56 55 54 56 56 55 58 63 64 65 66 63 58 60 56
113 110 114 116 114 118 117 120 117 113 112 106 104 96 92 87 71 72 64 62 58 54 51 52 49 47 49 56 57 61 59 58 55 53 54 56 55 58 59 57 54 54 55 58 54
112 112 114 114 116 117 115 115 113 110 105 100 96 91 83 78 69 64 60 63 52 54 53 54 52 53 47 55 62 59 63 63 62 59 58 56 55 54 54 50 51 54 57 57 53
107 107 113 112 113 112 110 108 109 102 97 93 91 82 77 71 63 60 56 58 53 55 57 59 56 56 53 55 58 63 63 66 66 62 61 59 56 58 57 57 58 57 60 59 53
95 101 105 105 106 105 102 100 98 94 91 83 78 74 70 67 61 58 55 57 58 53 59 59 54 57 57 56 54 62 66 69 70 67 63 62 64 65 65 64 63 63 63 51 51
91 94 96 96 97 93 93 92 88 85 79 73 71 68 65 62 58 56 55 56 56 54 57 56 54 53 55 61 58 61 65 71 71 71 69 66 64 66 66 62 63 64 59 44 42
82 84 85 83 82 81 80 81 77 72 69 67 65 61 59 60 55 54 52 52 53 52 55 57 58 55 53 59 62 59 61 71 73 71 72 73 68 66 64 63 61 60 43 40 38
75 74 73 70 72 72 71 66 64 64 63 61 59 56 55 55 52 54 49 44 47 50 54 56 60 53 51 56 63 65 64 64 70 70 68 70 72 69 65 64 58 52 35 36 41
68 65 63 64 64 64 60 59 61 61 57 57 56 52 52 49 46 45 44 37 40 44 47 50 57 54 54 55 60 66 65 64 67 72 70 69 66 62 60 57 52 38 35 44 43

GFSSW_250_spd_084.txt.gz
Wind_Speed
52 57 59 58 58 58 57 59 62 61 61 61 61 59 58 56 54 51 54 58 58 60 62 66 65 66 58 59 62 64 61 62 68 67 62 68 73 73 71 71 74 71 63 64 58
56 56 57 58 60 61 61 60 66 66 64 65 64 64 61 62 61 57 62 65 65 67 66 69 68 67 64 60 66 68 69 69 71 78 78 78 77 76 75 73 74 75 69 60 57
59 58 58 59 61 61 62 65 67 69 70 68 66 64 63 63 63 65 70 71 74 75 70 73 74 73 69 71 70 75 74 77 77 82 82 81 79 77 74 76 77 73 69 62 54
67 66 61 61 61 61 62 61 62 67 73 76 70 68 69 71 73 71 70 67 71 77 78 76 76 80 84 81 78 80 81 81 85 86 88 87 81 75 75 71 77 72 67 61 51
68 66 62 65 65 66 69 71 69 68 75 74 76 74 74 76 74 77 78 79 70 73 79 86 86 84 86 89 92 97 86 86 82 78 84 87 83 83 77 80 77 73 68 62 56
73 68 65 68 68 71 69 74 73 72 75 78 79 77 82 84 79 78 85 83 86 86 87 87 93 89 94 94 92 92 90 89 86 87 93 94 94 90 81 85 80 77 69 59 55
78 73 72 70 72 72 75 73 78 76 80 81 81 83 83 91 87 81 86 88 88 90 87 93 92 97 93 87 88 93 95 91 93 91 90 98 88 86 87 90 82 76 71 59 51
83 82 76 77 76 79 80 74 77 82 84 85 87 88 87 90 89 89 89 91 93 90 90 94 96 86 87 89 88 87 90 91 82 86 83 85 69 77 82 87 83 76 65 55 49
84 85 82 84 81 76 79 81 84 83 84 92 94 91 90 90 89 92 91 91 94 92 93 95 91 91 88 90 88 90 87 82 73 76 71 70 62 66 69 70 69 68 63 53 52
83 83 86 84 82 82 81 85 89 86 87 85 91 88 88 88 90 90 88 90 88 92 95 97 95 94 90 92 91 91 82 72 67 67 65 61 58 60 60 62 60 62 56 48 53
84 87 86 86 88 89 89 92 92 92 83 89 81 83 81 84 82 87 88 87 92 93 95 95 97 94 95 97 88 85 77 68 62 61 59 55 54 53 53 52 53 54 52 53 56
90 91 93 91 92 92 98 94 92 84 85 86 87 87 89 92 91 88 89 94 92 96 102 95 94 98 89 81 80 78 74 64 59 57 52 49 49 48 48 47 51 52 48 56 56
93 94 93 92 95 100 99 95 88 87 87 91 92 94 92 88 92 95 99 99 97 103 103 98 97 86 78 81 80 72 65 59 54 50 46 48 47 42 41 45 46 47 51 46 48
98 94 97 100 100 95 95 94 92 92 97 94 93 92 92 96 97 100 103 100 105 102 103 93 91 85 78 73 75 64 62 54 51 47 43 46 35 33 41 41 44 42 43 50 49
105 105 104 103 102 104 97 97 95 97 101 98 100 100 101 103 102 101 104 107 106 108 101 92 83 78 75 72 65 60 54 48 49 44 42 36 33 32 39 44 45 49 51 55 48
114 107 110 108 104 102 98 101 102 100 102 101 104 104 102 104 106 106 108 110 109 103 91 87 83 77 69 64 57 57 49 44 46 45 35 43 35 38 46 51 54 55 54 57 53
119 116 112 112 110 106 105 100 106 105 107 104 107 106 106 105 107 108 109 109 110 101 90 84 79 75 66 58 53 53 47 43 44 46 38 41 39 45 36 49 56 55 53 56 57
124 123 124 121 112 106 103 102 106 109 105 109 110 110 110 111 114 115 113 106 102 95 86 81 75 73 54 56 53 50 46 44 43 46 43 43 40 40 42 40 51 50 49 56 62
104 103 103 104 104 102 108 106 104 105 108 112 111 110 113 113 110 110 106 101 98 91 85 73 66 64 56 51 51 47 45 45 43 48 46 47 43 41 43 42 38 49 52 59 58
95 94 94 94 95 101 103 107 102 103 104 107 111 113 113 115 108 106 107 98 90 86 78 70 60 58 54 47 47 44 44 46 46 48 51 52 50 43 47 49 48 49 51 51 55
89 85 89 89 88 84 87 89 95 98 102 105 107 110 112 113 111 104 92 91 84 77 69 62 61 49 51 37 46 44 44 50 53 48 51 55 54 53 56 51 53 49 44 49 55
77 80 82 85 87 82 83 89 93 94 99 102 105 107 107 106 103 95 87 84 80 70 61 57 59 50 48 39 45 44 44 52 53 54 52 54 58 57 64 62 51 52 54 53 51
76 80 84 83 85 86 88 90 91 95 97 99 99 98 95 92 86 83 81 74 69 65 54 52 55 50 46 46 46 47 46 54 58 63 58 60 62 65 68 61 57 54 52 50 51
75 78 82 81 81 84 83 83 86 89 89 89 89 88 84 80 78 75 72 67 64 60 55 50 55 51 48 48 48 50 52 55 55 64 66 66 65 67 61 59 56 52 48 53 56
74 74 74 79 79 77 78 77 78 80 79 79 80 76 73 73 70 67 64 62 59 55 54 47 53 52 50 48 48 51 54 55 58 65 69 70 72 67 62 59 55 51 54 57 58
72 73 74 70 71 72 73 74 73 73 71 68 69 67 66 65 64 62 60 59 55 47 47 47 48 46 46 49 49 43 50 60 56 68 71 74 73 68 66 66 64 60 61 64 62
68 67 66 64 64 63 68 67 65 63 62 62 63 61 60 58 57 56 58 54 48 42 41 42 42 39 46 48 44 42 51 57 61 73 70 66 69 68 68 68 67 63 66 65 65

GFSSW_250_spd_087.txt.gz
Wind_Speed
59 53 53 54 53 53 53 55 58 59 61 58 57 58 60 62 62 60 61 62 62 63 62 62 64 66 66 70 68 62 59 56 60 59 56 60 64 72 73 69 72 73 68 68 69
59 58 59 57 59 61 59 57 57 60 61 62 63 61 61 62 62 64 64 66 65 61 61 65 68 69 72 68 63 62 64 68 70 67 60 66 70 74 77 75 76 72 77 79 77
69 66 68 66 65 64 64 61 63 63 62 65 64 63 62 62 65 64 69 71 63 65 67 69 72 71 73 75 69 70 66 71 71 73 71 70 73 76 80 88 89 87 82 83 83
72 73 73 72 71 67 67 67 66 64 62 65 64 66 68 66 69 66 74 72 70 69 71 76 76 75 75 76 81 81 81 74 81 87 87 85 82 83 88 89 93 92 82 83 78
77 74 74 74 73 71 69 71 70 70 68 68 71 70 66 70 74 64 70 73 76 74 77 80 83 80 80 78 79 77 80 82 85 91 90 90 88 93 93 91 89 88 84 81 81
78 80 78 75 74 74 74 72 75 73 71 70 69 70 66 72 70 71 74 74 75 80 81 83 79 81 85 85 82 81 83 89 88 85 84 83 84 93 89 93 94 94 92 91 86
80 81 83 81 78 77 78 78 78 78 77 77 74 73 76 79 73 72 72 72 77 83 87 83 84 83 84 84 84 82 88 88 89 92 90 87 86 88 88 95 96 94 95 93 88
82 82 83 81 81 79 80 81 79 82 83 80 78 79 81 77 77 76 78 78 81 85 87 87 87 85 88 85 86 86 86 85 92 98 86 87 86 81 84 87 86 88 84 82 82
90 89 87 85 83 80 79 80 83 82 86 83 84 84 80 79 82 84 84 87 77 80 86 85 83 88 89 87 82 88 87 94 97 93 83 82 79 71 73 76 73 73 74 72 73
92 93 89 89 83 84 86 81 80 81 87 88 84 87 88 90 87 84 90 85 75 79 81 83 83 80 85 80 86 95 94 100 99 90 84 75 67 66 66 64 65 64 67 67 63
91 89 90 91 89 83 84 86 85 81 81 85 87 87 89 91 90 92 88 78 76 78 85 86 81 85 87 91 96 96 102 103 94 84 80 69 64 63 57 56 57 57 58 58 55
91 87 87 87 87 87 84 82 87 87 86 83 87 92 92 93 92 100 90 83 85 83 83 83 81 88 91 94 94 98 102 93 84 80 78 68 57 54 50 48 49 50 50 50 49
92 91 88 89 88 86 87 87 87 86 86 89 92 91 94 95 98 92 91 89 85 86 87 87 91 95 93 96 100 101 101 88 79 74 68 65 50 43 44 44 42 39 40 43 46
101 100 96 93 93 92 89 91 90 89 86 89 93 94 97 99 93 92 93 90 87 93 94 94 96 96 97 97 102 98 92 84 75 67 59 57 37 37 41 35 35 35 37 41 41
108 107 103 99 98 96 96 96 95 94 97 94 95 99 99 98 94 92 95 95 99 95 100 100 96 99 101 102 97 89 79 73 69 59 49 48 25 32 35 33 33 34 35 37 40
112 110 111 107 106 104 100 101 102 100 101 101 101 98 98 100 99 95 98 100 103 103 106 103 102 100 99 97 91 85 77 67 60 53 41 38 29 32 30 27 29 36 32 31 37
115 113 115 111 112 108 106 105 105 107 107 104 102 103 102 103 103 101 100 105 106 108 108 108 104 105 102 88 85 77 73 59 53 44 38 32 32 27 28 23 21 26 35 33 38
111 114 114 113 109 112 110 108 107 109 107 105 104 106 106 107 109 108 103 104 110 110 109 108 104 105 93 83 77 71 68 57 43 42 35 32 31 25 34 26 31 33 41 39 41
96 99 101 105 106 104 102 104 106 108 110 108 107 104 108 109 105 100 100 107 106 101 99 100 90 94 89 79 65 62 56 55 39 41 34 35 33 22 30 38 37 36 45 43 42
77 85 91 94 96 98 85 85 89 89 91 93 93 89 92 93 98 101 103 104 100 95 94 96 77 81 79 70 58 57 53 48 43 40 37 38 39 48 35 29 39 32 37 48 45
75 79 82 83 77 77 79 76 78 83 81 77 77 77 81 87 90 91 89 93 97 93 93 85 74 66 73 66 53 51 46 44 43 38 38 44 47 48 53 51 45 43 41 40 38
78 79 80 72 72 76 77 78 81 77 74 74 75 78 81 82 83 89 92 90 88 87 82 80 66 50 54 62 49 48 48 41 38 40 40 46 51 52 55 53 50 48 44 42 45
71 73 75 74 75 74 70 68 70 70 69 73 78 83 82 86 86 86 83 82 80 81 76 70 59 48 44 54 54 43 46 42 40 40 42 50 54 56 60 58 55 51 51 49 47
62 63 72 73 63 62 62 64 68 70 72 75 80 84 83 84 79 76 77 76 76 71 65 58 55 48 42 51 54 45 47 45 42 44 46 51 59 60 61 59 56 53 51 48 48
57 57 58 59 62 64 64 64 71 72 73 75 77 78 79 75 73 74 73 69 68 64 60 53 51 43 42 51 52 45 44 49 47 47 49 57 63 62 61 63 64 59 54 54 50
51 51 56 57 59 64 64 67 70 71 70 71 71 71 71 69 69 69 64 61 59 59 55 49 48 41 45 50 45 38 46 49 50 50 50 54 65 66 66 63 63 62 58 54 53
50 54 60 58 60 63 67 66 65 66 66 63 62 60 60 62 62 59 55 56 54 53 51 45 43 37 44 46 39 36 48 48 47 51 52 58 62 70 69 68 64 62 63 60 57

GFSSW_250_spd_090.txt.gz
Wind_Speed
61 60 59 59 56 64 63 57 56 55 53 54 56 55 52 55 58 59 59 58 58 58 59 58 60 60 64 63 60 59 59 58 61 62 56 61 61 69 61 58 64 67 67 70 70
63 60 63 63 60 60 61 61 61 57 57 56 59 58 53 57 59 60 60 60 61 60 58 61 60 61 66 66 64 65 62 65 67 66 65 64 67 68 70 71 70 69 71 72 76
68 68 67 68 70 68 67 68 67 69 65 63 61 63 62 63 61 61 60 63 63 63 63 61 61 66 66 68 70 68 67 72 70 70 70 68 68 66 68 67 73 77 82 83 83
73 75 75 76 75 73 73 72 72 72 71 68 64 64 65 65 67 61 65 65 63 64 66 67 68 66 67 68 72 69 71 71 70 70 71 70 73 67 68 72 78 83 80 84 83
80 82 83 79 82 82 81 76 76 78 75 74 71 66 65 69 73 63 70 69 68 67 66 63 70 69 69 72 74 72 75 74 74 74 74 76 74 71 75 79 82 87 84 83 86
86 87 87 88 84 84 84 82 79 80 80 77 74 71 68 73 68 72 71 73 69 68 69 75 76 71 68 71 76 78 76 79 80 80 80 85 77 77 76 81 83 85 86 90 87
88 88 86 88 86 84 83 84 85 84 83 81 78 75 73 79 71 75 76 75 71 73 78 81 79 77 77 80 82 80 78 79 81 81 77 90 74 77 80 85 84 90 89 86 88
90 87 88 89 85 86 85 86 88 85 86 84 81 78 76 79 79 76 78 80 78 79 82 76 76 79 82 84 83 83 79 78 84 83 81 89 71 78 85 88 91 84 84 84 85
94 88 84 86 88 87 87 87 87 89 87 87 85 82 80 80 77 79 79 81 83 84 88 87 84 86 90 86 86 77 80 84 85 90 84 87 81 82 87 88 85 78 75 73 75
96 95 89 86 91 88 89 90 91 90 90 89 85 83 80 79 80 80 77 81 84 86 87 89 85 91 93 90 93 76 73 78 78 82 87 85 87 86 84 84 77 71 68 68 68
97 100 98 93 88 90 89 90 93 89 91 88 84 84 78 80 79 81 74 74 78 82 87 89 88 95 92 90 83 77 79 75 81 84 91 95 91 90 88 79 73 69 64 64 64
112 105 101 103 95 89 89 90 87 89 87 85 81 79 80 78 80 78 80 79 80 84 88 92 93 96 92 96 85 80 83 88 85 89 93 91 86 92 82 74 70 66 60 58 54
113 110 111 106 101 94 92 92 92 85 83 83 83 79 79 80 80 81 81 82 82 87 88 88 96 97 96 89 87 88 92 91 92 97 93 94 81 85 77 65 60 58 52 46 46
116 115 112 112 105 102 99 96 96 90 86 87 86 81 84 83 80 82 84 83 86 90 91 92 97 95 90 89 90 90 96 97 101 99 95 84 83 78 66 54 50 47 40 38 39
122 113 112 109 111 106 105 103 98 95 94 92 90 87 87 86 85 85 88 91 92 92 92 96 95 91 91 92 95 97 103 101 101 102 88 81 71 65 54 46 39 35 34 33 32
115 111 110 109 111 111 108 104 101 101 97 97 94 92 91 91 91 93 93 95 96 97 97 100 97 94 95 98 100 101 103 102 100 94 82 73 62 56 41 37 32 30 29 30 28
100 107 109 115 110 111 106 103 104 103 102 99 96 95 96 97 96 100 100 100 97 98 99 99 100 100 100 97 101 97 97 94 89 83 72 62 52 44 34 34 30 27 30 30 31
83 87 91 97 104 109 107 107 106 103 103 99 98 99 101 99 98 100 102 103 101 100 100 98 98 101 106 98 94 94 92 86 78 69 56 55 43 35 33 31 27 29 25 27 33
67 67 72 79 88 96 103 104 104 102 105 101 100 100 101 100 99 99 101 101 99 97 99 98 95 99 99 94 95 89 83 84 73 66 46 49 35 34 35 33 34 32 26 34 33
58 59 59 61 69 77 86 92 96 95 95 97 92 95 99 97 90 89 92 93 90 89 89 88 86 88 91 86 84 85 79 74 66 53 42 41 31 37 40 39 41 38 38 37 37
50 52 51 54 57 64 69 73 76 77 80 81 83 85 87 80 74 76 77 81 82 81 83 83 76 70 77 82 78 75 67 64 58 46 35 36 30 40 40 37 42 41 46 38 41
42 47 48 49 54 58 60 64 66 68 70 70 70 70 69 70 69 73 72 73 73 75 75 73 70 65 70 76 75 68 55 50 51 41 34 32 33 48 47 46 43 51 43 40 44
41 45 48 52 59 59 59 62 60 64 63 63 65 65 67 64 64 66 68 69 72 74 77 76 71 62 56 63 67 60 48 45 45 38 35 31 42 55 56 51 50 49 49 42 44
40 42 45 52 56 56 56 53 58 60 60 61 65 62 57 59 63 67 70 71 73 74 75 73 69 58 48 54 60 54 45 43 44 35 35 33 46 51 66 64 57 57 51 46 43
39 40 44 48 51 55 53 56 59 61 62 67 65 59 60 67 67 70 70 71 73 74 69 64 61 53 48 50 52 46 43 42 41 35 34 41 54 62 70 71 65 65 61 51 47
39 43 46 51 56 57 57 56 59 64 68 66 61 61 62 64 67 71 67 66 67 67 57 54 53 45 49 48 42 40 42 43 41 42 42 47 54 56 66 72 72 68 57 52 51
37 40 40 42 45 49 50 51 54 55 55 56 57 60 63 68 68 65 63 62 60 56 53 48 44 39 48 40 38 37 43 45 47 42 45 47 49 60 66 66 71 69 63 57 52

GFSSW_250_spd_093.txt.gz
Wind_Speed
69 65 66 67 66 63 63 62 60 62 59 55 54 57 56 55 55 55 57 56 53 55 57 58 59 56 58 59 56 58 53 49 58 61 58 64 63 65 66 62 64 68 67 66 65
67 63 64 65 62 63 62 62 62 63 62 60 56 55 58 60 58 60 59 59 59 61 58 60 58 59 59 61 57 56 52 55 57 61 64 66 67 71 67 68 69 71 69 68 66
66 67 68 71 69 67 68 68 69 70 69 68 63 63 62 66 69 66 61 63 64 66 64 62 62 62 62 59 61 59 58 64 61 61 62 64 69 71 70 66 67 71 71 71 71
71 74 75 76 76 75 75 77 77 76 74 73 72 70 66 68 74 70 67 68 68 68 69 67 65 64 66 62 64 60 62 66 67 69 69 69 72 73 73 72 75 76 77 72 73
85 81 83 80 77 81 82 86 83 84 82 78 76 78 77 73 80 73 74 75 73 71 71 70 69 66 68 68 66 64 67 69 70 70 72 70 71 76 77 75 75 75 76 74 74
89 86 84 86 85 85 85 85 89 89 88 85 82 83 83 82 82 79 79 78 77 74 74 73 71 70 70 71 69 69 71 76 80 79 77 75 75 76 76 75 72 75 76 74 80
95 96 87 87 90 92 90 94 90 87 90 87 89 85 83 88 83 82 84 82 81 77 76 76 76 73 71 73 72 74 77 75 78 80 78 80 77 77 81 81 76 80 79 77 79
97 98 98 95 93 94 94 96 96 91 88 88 88 87 79 90 84 85 84 88 84 79 79 79 77 77 76 77 77 80 81 82 88 89 89 85 78 87 78 74 76 77 77 81 82
105 103 103 103 101 99 101 92 98 93 94 86 88 88 84 85 88 86 86 87 85 84 83 81 78 77 80 80 81 83 81 82 86 92 91 89 85 84 83 67 71 74 77 83 83
111 110 107 108 105 100 101 101 94 96 94 89 86 88 87 84 86 87 86 85 88 88 86 84 80 78 81 80 80 84 84 83 85 94 95 93 85 92 85 77 77 78 81 83 86
118 114 113 112 115 108 107 110 104 99 96 96 86 86 88 88 87 86 85 87 86 85 84 83 81 83 83 80 78 80 82 84 92 94 94 99 95 93 88 83 86 84 85 84 84
122 116 116 118 116 115 117 116 114 108 102 97 96 88 86 87 84 83 82 83 84 82 80 80 82 86 82 82 82 84 86 88 91 98 97 98 95 91 89 89 90 87 78 81 79
125 122 121 121 119 121 125 118 120 115 108 103 101 95 91 80 85 88 86 84 81 79 78 78 81 79 82 82 83 87 86 88 87 96 99 100 89 90 92 93 89 80 77 76 70
119 126 125 125 123 119 119 119 122 118 116 102 102 97 96 85 80 88 86 81 81 81 80 77 87 83 81 83 87 84 90 93 96 97 97 101 97 87 93 87 82 78 72 68 63
103 104 108 113 115 116 119 121 121 119 117 107 102 96 96 90 87 88 89 86 86 85 82 84 88 89 87 90 92 91 96 97 100 101 97 100 97 87 92 73 74 71 63 58 54
82 85 87 93 102 105 111 112 112 118 114 105 103 98 95 96 92 94 89 90 90 87 85 88 90 89 94 95 95 96 97 100 100 100 98 95 94 89 75 71 67 63 54 49 44
72 75 79 84 83 91 97 99 105 107 110 105 100 100 100 98 95 95 95 92 89 90 90 91 93 95 96 96 99 100 101 101 98 100 95 96 85 75 68 64 60 53 46 41 38
67 66 69 71 70 78 83 87 90 89 101 102 103 101 98 97 99 96 96 94 90 92 94 91 94 95 95 98 98 99 102 100 99 96 93 90 80 72 66 59 51 45 41 39 41
56 57 58 58 63 66 69 70 74 79 86 92 97 99 97 99 100 97 97 94 93 92 91 90 91 94 94 97 94 92 94 93 97 92 84 76 68 69 59 52 44 40 39 39 35
50 49 52 53 55 57 60 61 65 68 75 87 91 95 91 98 98 96 95 94 93 91 89 87 87 92 99 96 93 89 89 88 88 84 75 64 60 61 54 44 41 37 40 42 35
46 44 48 49 48 49 50 50 52 54 60 67 76 81 85 86 89 89 88 82 83 82 81 83 86 84 84 85 86 86 85 80 79 79 73 56 50 53 45 41 41 39 46 44 35
43 42 42 41 39 42 41 40 42 48 45 48 55 59 63 69 73 70 69 70 74 77 77 78 77 74 77 83 84 81 78 77 77 69 61 50 37 45 38 41 42 43 49 45 38
40 41 40 35 32 36 34 37 38 39 45 47 47 51 56 59 63 65 64 66 64 68 69 72 69 66 65 68 74 76 75 72 64 57 51 47 36 42 40 44 44 48 52 48 41
39 38 37 33 32 36 36 41 44 46 45 46 46 48 52 54 56 56 58 61 64 66 63 62 62 62 64 70 74 75 70 61 56 47 45 42 42 41 43 47 48 52 52 48 44
38 35 35 32 33 39 41 43 46 50 52 52 49 48 54 58 59 60 59 61 62 60 61 62 64 66 64 67 68 57 55 55 49 43 40 44 43 39 46 57 58 57 51 44 50
35 33 33 35 39 35 39 44 46 47 48 45 50 55 57 60 59 61 64 65 64 63 63 63 65 61 61 58 52 41 52 54 44 41 41 44 43 43 51 59 65 62 56 51 53
33 31 34 35 39 42 45 45 45 46 48 50 53 56 59 63 64 63 64 64 63 64 59 61 56 53 56 52 42 41 48 50 41 41 40 40 45 48 52 65 66 66 61 59 56

GFSSW_250_spd_096.txt.gz
Wind_Speed
78 78 81 81 80 78 79 76 68 65 63 67 62 64 58 60 59 58 52 54 55 57 57 57 55 54 54 55 53 53 49 53 57 56 56 61 60 59 57 55 58 65 63 61 63
81 83 83 81 77 75 76 67 65 63 61 62 58 61 62 64 65 61 57 56 57 59 59 59 58 58 60 61 59 59 53 58 62 60 59 60 62 64 61 59 60 64 66 64 63
81 78 74 75 76 74 66 67 68 69 69 69 68 67 66 67 71 70 66 62 65 64 64 67 63 61 62 64 66 61 58 62 61 63 60 59 63 65 68 67 66 68 67 64 65
76 73 73 74 77 79 81 76 73 75 74 74 75 74 73 73 75 75 72 74 72 69 68 70 71 67 63 65 69 66 67 66 64 64 65 65 65 65 67 68 71 70 74 74 72
89 87 84 86 82 81 82 89 85 80 81 79 76 79 80 77 84 80 78 79 79 78 74 74 76 74 71 72 70 69 68 67 67 66 67 66 64 65 69 76 76 75 74 76 77
92 95 94 93 92 90 88 89 89 91 87 85 86 84 83 79 86 85 84 85 84 84 83 82 80 77 75 74 75 71 72 70 70 70 69 67 67 69 72 77 80 80 79 78 76
94 96 95 97 99 96 97 96 94 95 96 89 90 89 88 85 88 86 86 88 87 86 86 84 81 80 79 79 79 75 73 72 72 74 73 72 69 73 80 78 78 82 82 82 80
98 99 101 101 104 105 104 104 100 101 99 98 95 94 89 94 92 89 87 85 89 89 87 86 84 81 80 83 82 79 77 76 77 74 73 73 75 81 84 84 83 84 84 83 85
103 104 106 110 109 109 108 113 109 110 104 102 100 96 89 91 92 91 88 90 89 88 88 88 84 81 82 85 84 82 80 79 79 80 77 75 76 82 89 88 84 83 84 84 86
109 110 109 112 114 117 119 118 113 119 109 107 103 103 96 96 92 94 87 90 87 90 86 87 87 83 82 84 81 84 84 84 84 87 81 79 77 83 87 86 86 86 86 90 92
120 120 119 121 121 122 122 125 123 123 121 117 108 109 100 96 99 94 90 87 86 85 89 86 85 80 87 85 85 86 87 84 86 87 84 83 81 87 90 90 89 90 93 94 92
124 128 130 127 126 127 126 133 131 129 127 132 117 111 111 101 103 104 97 95 91 88 87 84 83 86 87 86 86 85 88 88 87 90 86 85 82 90 95 96 93 93 96 93 93
131 134 132 129 129 130 129 128 127 121 123 123 121 120 113 111 102 106 103 100 95 92 88 84 82 87 88 82 82 83 86 87 86 89 91 88 83 91 95 94 95 97 98 99 98
135 130 128 124 122 123 125 121 123 120 123 119 118 111 115 114 107 108 107 104 98 95 93 83 80 85 87 85 83 80 85 86 88 88 91 93 85 91 95 96 97 99 101 100 97
121 114 111 111 105 102 100 106 103 105 109 109 106 109 110 113 113 112 112 107 99 98 92 82 84 85 84 87 92 85 91 90 92 94 94 95 97 87 97 101 100 101 101 96 82
102 93 86 84 82 81 84 88 85 89 94 101 101 105 110 112 110 113 113 109 103 96 89 86 84 85 86 87 88 90 92 93 93 94 93 96 97 88 97 96 95 96 92 82 67
81 72 73 71 72 73 75 77 80 76 80 79 82 88 97 102 106 108 110 106 99 93 89 87 86 88 89 91 90 92 93 94 94 94 93 96 93 91 94 90 87 85 78 66 57
68 65 63 61 65 66 66 67 64 64 70 66 64 69 75 86 90 95 97 99 96 91 91 91 91 89 91 94 96 94 94 95 94 93 91 96 92 89 88 85 82 77 69 57 54
60 60 60 57 59 58 58 59 57 58 58 60 61 62 65 69 75 83 85 85 87 90 93 93 94 93 93 93 94 95 96 96 95 95 94 92 88 86 85 76 75 70 66 53 45
55 56 56 53 54 54 51 49 51 52 52 51 54 56 57 64 70 70 71 76 80 83 88 89 93 95 93 94 94 95 95 96 96 95 91 85 83 79 74 76 70 65 60 47 41
50 53 52 50 51 48 45 45 45 47 46 45 47 47 47 48 53 60 63 71 72 78 81 84 86 88 90 93 93 92 92 91 92 91 88 83 77 74 72 67 68 60 53 43 39
46 48 48 46 45 44 44 40 39 41 38 41 39 41 40 39 40 44 53 58 63 69 71 75 75 80 86 88 86 87 88 86 85 84 82 80 73 70 65 63 63 54 46 40 38
44 44 43 45 44 40 39 35 33 35 36 40 38 36 34 31 34 39 43 50 55 60 63 65 67 71 75 79 79 81 84 84 81 79 78 76 62 61 55 57 60 51 42 42 38
41 41 40 45 41 37 36 31 29 31 33 35 35 33 32 35 38 39 41 44 48 52 55 58 61 66 69 71 73 75 80 80 78 72 70 63 55 59 50 53 49 45 42 44 42
38 38 40 42 37 37 36 30 31 33 35 36 35 37 37 35 35 37 42 46 51 54 54 55 55 58 61 63 67 68 70 74 72 67 63 55 51 56 52 52 42 45 46 46 45
37 36 38 39 35 37 37 34 36 36 35 37 39 39 42 40 40 42 45 47 51 53 54 55 61 62 65 67 67 62 65 65 63 61 54 44 42 56 50 46 44 47 47 46 48
33 35 39 38 35 35 37 36 38 38 39 41 44 42 42 45 46 48 50 55 54 53 56 64 65 62 64 64 58 50 55 55 54 51 47 36 46 51 46 43 44 49 48 50 51

GFSSW_250_spd_099.txt.gz
Wind_Speed
80 82 83 81 75 76 75 74 74 75 75 73 75 72 72 65 62 63 63 64 63 62 59 58 55 53 53 55 54 54 49 48 55 56 57 60 58 60 58 55 56 55 52 52 54
84 85 86 80 76 77 76 73 72 75 72 69 67 66 61 63 59 60 59 60 61 63 61 60 56 55 56 56 56 54 49 56 60 62 62 62 62 64 60 60 62 59 58 56 54
86 85 86 81 80 79 76 73 70 68 69 67 65 61 64 64 65 65 66 64 64 67 67 66 64 61 60 60 58 58 57 59 59 65 64 65 68 65 64 62 63 63 62 59 59
89 86 84 87 85 78 79 76 73 75 72 72 71 73 65 67 68 73 71 75 72 73 73 72 70 68 69 66 67 65 65 66 65 67 66 68 66 69 64 66 68 64 63 63 60
89 85 83 86 87 85 87 88 89 88 86 78 77 75 73 69 77 77 77 74 77 80 79 77 76 77 75 73 72 69 70 71 72 72 72 69 67 66 67 69 68 69 65 64 65
93 93 91 92 91 93 94 97 97 95 95 92 92 86 83 76 84 83 79 83 82 81 83 84 81 79 77 79 79 78 75 75 74 75 74 73 67 64 68 71 69 69 69 70 69
103 101 100 97 101 99 98 100 98 103 97 99 95 95 90 85 91 89 89 88 88 89 89 89 87 85 83 83 85 84 78 76 76 79 76 74 70 70 69 69 68 69 71 73 74
98 100 96 100 101 99 105 105 107 106 103 102 103 98 93 90 96 96 97 94 93 92 92 90 91 89 84 85 81 81 81 81 79 78 78 76 74 73 75 74 72 73 74 75 77
97 100 101 101 100 100 100 109 111 108 108 109 109 105 100 99 98 97 96 98 98 97 97 93 90 90 88 86 86 86 84 78 79 80 78 78 76 77 79 78 78 77 77 79 79
99 101 103 106 108 109 109 110 113 119 120 119 117 116 108 106 107 107 107 103 102 99 98 95 91 86 87 88 87 86 82 80 84 85 82 78 77 78 81 81 83 81 78 79 82
101 105 106 110 112 112 114 121 123 125 125 125 125 121 117 114 114 112 116 116 108 105 100 98 96 89 87 90 87 84 81 79 84 86 81 80 79 83 86 85 84 83 81 80 83
107 110 112 116 118 122 123 125 130 135 135 126 126 124 121 121 117 112 116 116 116 105 109 101 97 93 96 91 89 82 79 82 82 83 80 81 82 85 88 88 87 83 83 85 86
113 110 118 122 125 129 131 133 135 135 134 128 132 127 121 125 108 111 107 113 115 117 116 112 106 103 99 98 91 87 81 82 83 81 81 79 80 84 88 89 87 86 87 88 89
118 119 119 123 125 124 133 135 129 135 139 121 120 117 115 106 99 108 106 105 112 111 112 112 109 105 104 101 99 90 87 85 84 80 82 81 78 83 88 91 89 88 89 92 94
126 127 128 122 120 124 127 125 127 117 118 105 95 95 94 93 93 95 102 102 102 106 110 108 106 105 103 100 100 93 91 87 84 82 81 83 83 81 88 93 90 93 93 95 97
131 130 128 119 119 116 115 110 98 95 91 83 77 76 76 78 80 81 87 94 96 103 99 102 105 101 103 103 103 97 94 89 89 87 80 81 83 77 84 89 92 94 94 94 95
123 124 119 112 109 101 93 81 79 75 73 70 63 63 60 63 68 69 77 82 87 93 95 96 96 96 97 101 101 98 96 90 88 85 81 83 83 79 84 88 90 90 90 93 93
122 115 105 96 89 80 76 72 68 65 63 59 57 57 55 54 55 61 64 71 78 83 86 89 92 93 94 95 97 94 92 90 87 85 86 85 80 85 88 88 89 89 89 90 92
111 101 90 78 74 71 68 65 62 63 59 56 52 52 49 50 49 52 55 59 68 72 80 86 88 89 93 95 96 93 90 88 88 87 88 85 87 89 87 88 91 90 91 89 83
92 81 74 69 66 63 60 57 59 58 54 50 49 49 47 44 46 47 50 52 55 59 66 73 79 85 88 89 89 89 90 88 87 85 86 89 89 88 89 87 87 88 84 82 73
74 71 66 61 58 57 54 56 56 53 49 47 49 49 44 38 39 39 42 46 47 51 54 60 66 71 75 79 84 87 87 85 86 84 85 87 88 88 87 84 81 79 82 77 66
67 63 57 54 56 52 50 53 49 49 45 43 45 45 42 35 32 31 35 40 40 41 43 50 56 61 63 67 72 75 78 80 84 88 89 87 83 84 82 79 76 75 76 74 60
60 55 51 53 52 50 49 47 47 46 44 37 40 38 38 34 29 32 32 32 35 39 42 45 49 54 57 59 63 68 72 75 78 79 81 82 77 77 77 75 70 68 67 64 60
53 51 48 51 48 46 46 44 45 43 39 33 35 32 32 31 29 30 32 33 34 35 36 40 44 48 51 55 60 65 69 72 72 73 73 70 73 77 75 67 64 61 62 64 58
48 47 46 45 45 43 44 44 42 41 34 32 30 30 31 30 30 33 33 33 35 37 38 40 43 46 50 53 56 59 61 63 67 71 68 71 66 70 61 57 54 57 57 54 51
44 43 43 42 41 43 43 41 41 37 32 24 26 29 30 32 31 31 33 35 36 36 37 40 43 47 50 52 56 62 66 67 66 69 68 65 62 62 59 54 54 52 49 45 45
39 39 39 38 40 41 39 36 34 32 30 28 32 32 33 32 32 33 32 31 34 37 39 42 47 52 53 53 53 56 60 63 65 66 59 56 53 52 46 50 54 46 41 41 43

GFSSW_250_spd_102.txt.gz
Wind_Speed
73 75 76 77 78 81 83 79 81 76 80 78 73 70 68 72 68 67 69 68 65 64 64 63 59 60 62 60 56 54 50 49 55 54 53 55 55 52 54 58 57 58 54 52 54
79 81 81 82 84 84 81 78 81 81 78 76 71 71 68 70 69 70 67 60 56 58 57 56 60 60 59 61 59 56 52 54 55 58 59 57 59 58 58 59 61 64 60 57 57
86 87 84 87 88 86 83 81 80 79 74 72 77 77 69 69 66 70 67 64 61 64 62 61 62 62 58 61 61 61 58 58 59 60 59 62 63 60 58 59 65 63 63 61 60
89 87 90 88 89 88 84 81 80 79 75 76 77 75 73 73 70 71 72 69 68 68 70 68 69 69 68 67 65 65 67 68 68 67 64 65 65 66 62 66 67 65 65 63 60
93 94 92 91 90 88 89 89 85 84 81 76 76 76 75 75 78 80 81 77 75 76 74 73 73 73 71 72 75 72 74 74 73 72 73 71 69 67 67 72 70 67 66 65 63
94 85 84 87 89 90 91 93 94 90 88 88 88 85 83 80 89 94 92 92 92 85 82 79 80 78 73 75 76 77 75 78 78 78 77 76 74 72 72 71 73 70 68 66 64
93 94 98 95 95 95 100 99 100 103 99 96 94 93 97 91 98 96 98 97 96 96 95 93 89 84 81 81 80 82 83 84 82 83 83 82 78 78 78 77 75 72 71 69 68
101 101 101 101 101 98 98 100 99 99 95 96 96 94 91 92 97 97 100 99 102 103 102 101 99 94 93 90 89 89 89 91 89 88 81 80 77 78 76 77 76 76 75 72 71
99 103 105 101 101 100 100 102 101 104 104 101 106 103 98 97 101 101 105 104 108 106 104 102 105 99 99 97 95 90 94 93 91 86 85 84 82 79 81 80 78 79 78 76 75
105 105 106 105 103 103 104 106 105 108 109 111 109 110 107 107 109 109 111 113 115 116 114 111 106 105 100 101 96 96 96 96 90 88 89 87 85 81 81 79 79 79 80 79 77
107 108 107 105 103 103 105 108 108 110 108 112 115 113 119 118 120 119 121 121 123 121 120 115 115 104 109 107 103 104 97 93 93 90 88 84 83 82 84 81 78 79 80 80 79
107 107 107 107 105 107 110 109 109 112 115 116 118 119 123 125 122 123 128 129 126 123 122 118 109 113 112 111 110 109 102 95 92 93 86 87 82 80 81 79 78 79 79 78 77
109 110 110 107 112 113 110 112 112 119 127 121 122 115 119 123 119 118 117 119 113 110 113 115 108 110 108 113 111 114 110 102 100 95 92 87 87 86 85 82 79 78 79 79 79
108 111 111 109 109 110 115 116 119 124 137 124 119 117 120 117 113 108 108 101 99 96 99 100 103 100 109 106 115 110 111 110 108 104 99 92 91 89 92 86 79 80 80 79 81
115 112 110 113 114 115 118 119 122 131 141 132 119 118 117 115 107 104 91 83 83 83 83 81 87 90 104 109 105 104 112 110 108 105 103 97 92 96 92 90 85 81 80 81 84
114 114 116 118 117 118 121 124 129 136 134 131 119 118 111 99 92 83 75 73 73 72 74 77 78 80 90 90 97 100 107 104 101 100 94 93 90 97 89 86 86 84 84 85 86
120 118 120 121 123 125 126 128 134 130 127 123 113 96 85 78 75 73 70 66 63 64 66 72 79 80 86 90 96 101 101 100 98 97 91 95 93 97 86 88 87 85 86 88 88
120 119 119 124 123 125 122 127 125 124 124 103 86 73 71 68 67 65 62 59 58 58 62 66 70 73 76 77 83 89 92 91 86 86 90 87 92 90 88 87 87 88 89 89 89
124 117 122 121 123 123 122 117 111 102 94 79 72 63 65 63 60 59 55 53 52 54 57 61 66 70 76 77 82 83 84 82 85 86 85 84 89 89 86 87 89 88 89 90 90
119 118 115 117 118 114 111 108 95 84 74 66 64 59 59 56 54 53 52 50 50 49 52 56 61 64 70 75 77 81 82 80 85 84 81 83 86 89 84 87 89 89 89 91 91
114 113 112 108 108 106 100 86 77 69 64 58 58 57 54 51 50 47 48 48 47 45 47 51 54 57 62 67 72 77 79 78 82 82 82 81 84 84 86 88 89 88 88 89 89
105 103 101 96 92 85 77 70 63 61 57 53 53 51 49 47 43 44 43 44 44 43 41 40 46 46 48 55 59 62 67 72 75 76 78 80 81 83 88 88 87 86 86 85 88
89 87 80 75 72 68 62 59 55 54 52 50 45 46 45 43 38 41 40 40 39 37 36 40 43 42 43 44 47 50 56 61 66 70 72 78 78 79 82 82 81 81 82 81 80
75 71 65 64 61 58 54 51 50 49 48 44 40 43 41 40 37 39 39 37 37 38 39 39 36 36 39 42 45 48 51 53 54 57 61 64 68 69 73 74 75 75 77 76 77
70 66 63 56 55 51 49 45 47 45 43 40 38 39 36 33 34 34 34 34 36 37 36 34 34 34 36 38 41 44 47 49 53 57 58 63 63 70 69 71 73 73 74 71 67
61 59 56 51 48 45 44 45 43 41 39 36 34 35 32 31 31 30 32 34 34 34 32 30 32 34 35 37 40 43 45 47 50 54 55 59 64 66 67 66 66 67 67 66 68
52 52 50 46 43 42 43 41 39 38 35 30 33 31 30 27 30 32 34 33 33 32 31 31 33 35 36 38 40 42 46 49 52 55 55 58 60 65 65 61 62 60 59 57 57

GFSSW_250_spd_105.txt.gz
Wind_Speed
80 80 77 78 72 73 74 72 71 72 73 74 72 77 74 76 76 75 73 70 68 65 69 67 67 63 64 62 61 58 54 55 57 58 57 55 53 55 52 54 52 52 53 49 52
82 80 78 79 78 79 77 81 80 84 82 78 81 82 80 77 73 69 69 68 70 70 66 64 67 69 65 63 60 59 56 56 60 58 59 57 56 58 54 57 55 58 54 52 51
80 82 81 79 80 79 79 83 84 81 81 82 83 80 76 71 73 72 78 76 74 67 68 66 67 69 65 63 62 61 59 60 58 61 61 60 61 60 58 56 58 58 55 55 54
85 88 85 84 88 85 83 82 83 84 84 84 83 78 77 75 73 72 75 74 74 74 73 69 66 68 67 68 68 66 66 67 63 60 63 66 65 66 67 64 68 64 64 62 61
85 87 89 97 90 87 85 83 84 82 81 75 73 76 77 76 75 79 81 78 78 77 78 76 77 74 71 74 73 73 74 74 77 75 70 74 71 70 70 73 73 70 69 69 67
90 89 90 88 86 90 87 86 83 82 78 80 83 80 81 79 86 89 87 88 87 84 84 86 85 85 82 85 85 83 80 76 78 77 80 81 78 76 75 78 76 76 75 73 71
95 96 97 98 96 89 83 85 89 92 91 93 94 91 89 85 92 91 94 97 96 95 93 94 94 97 96 96 94 92 96 87 86 86 82 81 78 79 79 78 80 81 79 77 74
94 93 98 101 96 96 93 95 94 91 92 92 94 99 90 92 94 96 95 97 99 100 99 98 97 96 98 97 96 94 94 93 91 93 93 95 83 84 83 83 86 86 82 77 79
100 102 103 102 102 97 97 102 94 92 94 98 100 100 97 93 94 96 98 99 102 105 104 105 105 104 103 102 102 103 99 100 99 104 97 94 92 91 91 86 91 89 85 82 78
102 103 103 104 104 102 106 105 101 99 97 102 106 106 104 102 101 98 99 103 104 105 107 107 112 110 105 108 108 106 107 104 101 105 102 100 93 94 92 90 90 90 88 84 82
99 105 105 105 106 108 109 111 109 109 104 109 105 107 107 108 104 103 106 107 109 110 110 109 109 105 112 120 118 112 114 111 104 105 109 96 98 98 96 93 92 89 88 85 86
99 105 105 107 108 112 108 113 113 113 112 108 108 104 105 110 105 109 118 116 121 118 118 118 113 106 112 116 121 114 109 110 111 112 113 105 98 101 100 95 95 91 87 85 87
105 105 111 110 113 113 116 118 119 119 119 108 110 106 109 115 112 113 129 122 121 118 120 120 108 110 105 111 117 117 114 105 111 116 118 107 101 105 102 98 94 90 91 85 83
111 113 114 118 118 119 118 117 117 119 124 104 106 104 113 120 120 119 122 124 119 121 122 112 110 101 91 89 94 94 92 96 93 101 109 106 101 106 107 102 99 98 95 89 89
117 119 118 116 115 118 118 121 119 121 126 107 110 109 111 119 124 119 121 119 120 116 108 104 91 84 78 73 82 77 85 88 90 89 97 102 97 103 107 105 104 102 100 96 94
122 121 119 119 118 118 118 120 125 126 121 123 110 111 115 118 120 118 111 114 114 104 92 88 81 73 70 65 66 67 71 79 89 93 93 90 97 103 109 105 107 107 100 97 97
121 124 123 124 125 128 124 125 125 125 120 122 120 118 117 118 116 108 113 114 109 101 84 76 72 65 62 59 60 61 66 74 78 87 83 86 95 93 107 106 101 99 97 99 96
129 126 128 128 126 121 121 122 127 121 122 122 119 120 115 115 114 110 105 104 91 83 75 70 60 61 60 57 56 61 65 70 71 74 80 82 85 91 98 96 93 96 96 97 94
131 131 131 130 124 123 119 121 121 120 121 123 126 124 115 110 107 100 95 86 76 71 69 63 58 53 57 57 57 55 57 68 73 75 77 76 78 79 81 75 83 90 90 90 91
137 136 133 126 125 126 123 121 117 119 119 123 120 114 108 100 95 88 77 67 64 64 64 59 55 52 53 57 56 56 62 70 79 81 78 80 85 88 91 92 89 85 84 85 87
138 135 126 124 120 120 118 115 112 115 116 116 111 105 95 85 77 69 65 55 59 60 58 58 54 47 48 53 55 59 60 64 81 82 86 90 90 89 88 91 82 83 85 84 85
129 125 120 119 117 111 108 106 105 109 106 101 97 85 74 68 63 59 54 52 58 55 54 55 51 46 46 46 50 55 60 60 66 70 77 79 84 87 91 85 83 83 82 84 85
114 107 106 106 100 99 99 98 97 93 91 84 74 65 58 56 52 49 52 51 50 53 52 52 48 44 45 47 48 49 53 60 65 70 76 85 88 90 91 89 85 81 77 81 82
95 93 90 89 89 88 87 86 82 81 72 64 58 53 50 50 47 49 48 46 47 48 50 49 45 44 43 43 44 48 50 59 69 70 77 82 85 85 82 77 73 74 76 78 78
82 82 79 78 77 77 74 71 67 63 59 57 50 47 46 45 46 45 43 45 43 44 46 46 44 41 36 35 39 41 42 46 51 59 67 72 73 77 71 72 73 73 71 74 74
74 74 72 67 67 64 62 60 59 56 54 49 45 42 43 43 42 42 40 41 37 38 42 41 37 32 32 34 37 36 37 40 44 48 48 50 54 53 58 62 63 66 66 68 71
65 66 65 59 60 58 57 58 56 51 48 44 41 39 40 39 37 34 35 34 34 37 34 31 33 30 28 30 30 31 35 36 39 41 43 49 53 54 59 62 64 66 68 69 70

GFSSW_250_spd_108.txt.gz
Wind_Speed
77 73 75 74 77 74 79 71 71 74 70 67 70 68 74 75 74 77 78 77 78 78 77 73 69 61 64 67 67 61 55 53 62 59 58 60 57 54 54 48 47 43 50 51 49
84 82 80 76 72 74 78 75 71 73 72 71 72 70 72 77 77 71 77 76 79 77 71 70 68 70 70 72 68 61 56 59 58 59 58 59 61 60 59 54 53 50 53 52 53
89 87 80 79 77 76 74 74 74 76 80 82 81 79 79 80 79 78 79 78 71 67 67 68 71 70 72 69 69 62 60 64 63 64 62 62 66 64 63 61 60 57 59 53 52
80 78 76 75 77 80 82 81 79 76 80 78 80 82 73 76 74 71 70 67 65 68 70 69 69 71 69 69 69 66 62 63 63 66 66 66 69 68 62 61 62 67 63 61 62
85 84 84 85 88 87 82 84 83 81 81 79 73 70 66 66 70 68 66 71 69 70 70 69 68 71 72 74 76 72 71 69 69 71 70 71 72 73 74 75 73 73 66 66 68
91 91 89 91 89 84 83 82 83 81 79 81 81 82 80 72 77 80 84 86 84 82 84 88 90 88 83 85 83 82 80 77 80 80 80 80 78 84 77 80 82 83 80 76 76
90 93 92 91 90 88 89 91 87 87 86 87 85 88 84 78 80 84 85 83 83 89 88 93 93 90 90 88 89 86 85 82 82 82 84 96 88 90 90 88 85 83 79 79 79
96 97 97 97 94 91 90 90 89 91 89 90 90 89 83 87 89 88 88 84 88 93 94 98 98 97 95 92 90 90 88 83 80 87 87 102 87 95 95 92 89 86 87 86 88
101 101 99 102 97 95 95 97 93 87 85 88 92 92 90 90 93 94 95 96 97 94 97 99 99 99 96 97 94 94 93 93 83 93 93 103 91 90 94 96 90 88 91 92 93
100 101 103 105 100 100 98 94 90 86 86 91 97 95 94 95 96 96 99 103 105 102 100 100 103 99 99 103 103 103 105 98 89 87 96 95 103 94 96 97 93 91 95 95 97
103 98 99 100 97 95 95 94 92 93 90 95 94 92 96 96 96 97 102 105 106 105 105 108 108 102 106 108 111 110 108 108 100 92 103 103 104 97 100 101 99 92 95 97 101
92 91 93 94 96 100 101 100 101 103 98 94 94 94 99 104 98 104 110 109 107 105 108 106 103 105 107 107 111 115 113 107 109 105 110 109 113 118 101 100 103 100 100 99 104
97 99 101 105 107 105 106 105 107 111 107 95 96 98 103 103 101 103 116 111 112 107 108 107 106 114 111 108 116 116 114 116 112 106 106 102 106 112 95 95 97 96 104 106 103
106 107 108 112 109 110 109 112 115 116 115 97 102 103 104 107 106 109 110 111 114 112 112 107 112 111 113 103 111 104 106 104 100 99 89 98 90 102 90 91 93 101 105 105 99
109 113 108 110 108 112 115 116 120 122 118 104 103 103 105 108 113 111 108 117 118 117 114 113 109 109 111 115 105 91 93 89 82 79 81 79 91 84 94 92 86 99 100 93 90
116 118 117 114 117 118 119 120 124 125 117 112 107 109 110 109 110 119 116 117 116 117 116 111 98 104 108 107 101 85 74 66 68 68 65 68 82 77 82 83 88 96 90 90 85
124 125 121 121 119 123 124 124 129 125 119 118 118 112 111 114 114 117 118 114 113 115 114 108 108 101 97 93 90 78 67 60 61 61 54 63 73 70 74 79 82 86 83 84 87
130 127 125 123 124 125 126 127 129 118 120 126 124 120 116 117 117 119 115 111 114 112 111 100 102 99 90 85 77 71 64 59 57 52 54 60 61 59 60 62 72 69 76 79 85
126 125 123 123 125 126 127 131 129 123 125 128 128 125 121 121 122 121 116 113 114 108 100 100 99 88 77 70 67 62 60 57 49 46 50 54 48 51 52 60 62 63 64 73 74
128 130 128 126 127 127 131 129 127 128 129 127 129 129 125 125 126 118 114 106 101 93 92 90 88 75 68 63 58 57 54 51 45 44 49 58 52 56 61 65 71 74 71 72 77
134 133 130 130 132 132 131 131 130 130 132 129 130 131 128 126 115 110 108 98 88 89 83 82 72 69 66 57 51 50 53 49 45 47 52 56 62 59 59 64 73 77 79 79 78
142 140 134 133 135 133 131 133 131 130 128 127 126 123 118 109 106 102 99 86 80 79 74 65 63 63 60 55 51 48 45 48 44 48 54 59 66 70 72 75 79 79 76 73 75
128 127 127 127 127 122 125 125 122 120 118 114 111 106 102 98 92 89 78 74 67 62 62 59 59 58 54 52 46 43 46 45 48 47 56 60 71 76 80 85 82 75 66 74 80
109 110 108 106 107 105 106 106 109 105 102 96 96 95 92 82 75 70 69 60 55 56 57 58 55 54 51 45 42 42 43 43 45 47 51 56 69 82 83 79 81 80 82 79 83
92 93 89 90 93 97 98 93 90 88 89 89 85 83 77 69 63 58 54 48 51 53 55 53 51 51 46 43 36 38 39 37 38 44 49 57 63 65 71 81 86 90 86 84 85
77 83 82 82 83 83 84 80 81 82 80 77 71 67 60 58 53 51 49 48 48 51 49 47 47 46 40 37 33 33 32 31 35 39 44 49 58 54 61 70 76 76 76 79 79
64 67 74 75 75 76 72 74 75 72 65 62 58 54 48 47 48 49 46 45 45 47 44 41 43 38 31 29 29 24 27 30 31 33 33 41 41 43 59 66 71 78 82 85 88

GFSSW_250_spd_111.txt.gz
Wind_Speed
72 72 75 75 74 73 74 72 73 74 71 69 67 63 64 66 61 62 67 66 65 64 72 78 71 68 68 70 70 62 48 55 57 54 53 57 52 49 38 44 43 44 42 52 45
73 78 79 78 83 80 79 77 76 78 76 68 71 60 62 67 70 70 75 75 75 74 70 68 70 70 69 65 59 50 48 56 57 57 55 57 57 57 46 50 48 49 45 51 50
80 79 76 77 83 79 76 74 72 74 69 66 66 68 67 68 70 74 75 72 71 69 66 65 65 61 54 56 59 56 55 60 64 63 62 61 60 64 61 58 61 54 55 58 55
77 75 82 79 79 77 76 80 78 74 74 74 74 76 69 66 72 71 71 68 65 61 62 59 55 52 54 56 60 56 59 62 65 67 66 62 61 63 62 61 66 64 64 64 57
80 85 84 85 85 82 83 78 77 76 78 79 76 72 67 68 71 67 66 72 72 67 65 61 61 60 67 75 73 72 73 73 74 75 77 75 71 68 71 74 70 68 67 67 66
82 84 82 82 83 81 81 83 82 82 81 80 77 74 68 67 71 75 72 72 75 74 74 74 77 80 77 77 77 79 76 75 76 75 79 85 79 76 77 81 80 79 76 74 73
86 85 85 81 81 82 81 81 82 81 83 85 82 77 73 76 74 75 76 76 75 78 75 79 80 80 80 77 81 82 84 83 81 79 86 94 72 78 77 83 79 80 81 81 82
93 91 87 85 84 85 87 83 84 85 86 87 86 84 78 80 81 81 77 75 76 80 84 85 86 88 88 88 86 89 90 89 84 90 92 98 58 78 83 81 76 81 84 81 79
90 91 92 91 91 90 90 93 90 90 89 85 87 87 81 82 86 79 79 79 82 83 84 86 87 88 90 91 91 95 96 97 88 97 93 98 82 77 82 86 86 87 84 85 87
95 96 95 95 94 94 96 95 93 93 92 91 88 85 82 81 79 79 79 81 86 88 88 86 88 90 93 100 97 98 100 97 95 90 91 93 93 84 85 91 88 90 90 86 90
100 101 99 99 97 98 101 100 101 101 96 93 88 77 73 76 79 82 85 92 91 91 94 95 93 94 99 100 102 102 103 104 95 92 98 93 96 95 83 93 93 94 95 94 95
104 105 104 100 95 98 96 100 99 93 87 84 81 75 86 93 85 89 94 96 98 95 95 97 96 103 101 100 103 103 103 102 98 98 101 96 95 99 99 100 107 103 98 98 102
106 101 99 101 99 96 100 96 94 95 90 82 87 84 89 94 93 95 104 102 98 99 96 97 95 99 102 104 109 104 107 105 102 96 91 98 97 96 91 98 97 95 93 100 104
105 105 104 104 99 101 100 103 100 101 98 84 93 89 94 96 96 101 104 103 101 99 103 96 97 101 102 104 112 105 110 108 103 97 86 91 96 80 92 93 94 93 104 107 100
107 109 106 107 105 108 110 112 116 114 107 94 95 96 94 96 102 104 105 106 105 107 108 102 106 103 105 109 111 111 109 104 97 93 89 83 97 59 85 83 86 90 104 104 88
114 114 113 112 110 113 116 116 118 118 105 98 101 101 102 99 103 108 108 108 108 108 110 109 110 109 109 108 111 111 106 104 96 87 78 83 77 52 68 66 71 83 87 90 84
116 118 117 116 117 118 118 122 123 113 104 105 111 108 110 109 107 109 112 111 107 107 110 113 113 111 108 110 112 102 101 95 87 81 72 70 57 45 53 55 58 71 74 77 71
120 121 120 120 122 123 124 126 124 114 113 114 117 118 115 113 112 114 114 113 111 109 111 112 113 113 112 111 99 97 93 83 80 72 57 52 48 41 45 44 49 53 55 59 56
127 127 126 126 127 128 131 134 127 121 122 127 127 128 115 110 109 109 111 111 113 114 112 114 110 112 105 99 101 93 84 77 69 64 49 43 42 39 36 34 34 36 52 49 54
130 131 133 134 135 138 139 138 132 129 132 129 120 116 112 110 116 113 113 112 112 114 111 114 109 99 92 94 88 83 75 66 61 53 49 42 34 38 34 30 31 38 44 49 51
134 133 129 125 133 134 136 130 126 124 126 125 123 122 111 109 113 115 114 114 113 116 112 108 94 88 90 79 76 74 61 58 54 50 44 42 34 41 42 43 45 49 52 55 52
131 131 127 132 135 133 134 129 128 123 124 121 122 118 117 117 115 116 114 114 111 106 101 93 79 81 75 72 69 58 53 50 52 48 44 42 41 44 51 53 55 57 58 61 62
125 128 126 129 131 131 129 128 127 121 122 125 125 116 115 114 110 108 107 102 95 89 86 77 77 74 67 64 58 53 48 47 45 45 40 43 37 44 53 56 55 55 66 69 67
119 118 116 115 116 116 115 113 119 119 121 119 116 113 107 106 103 94 90 86 77 76 74 70 68 65 59 54 53 48 47 44 42 41 42 39 36 37 44 55 64 64 67 70 68
111 102 99 98 102 105 107 106 107 105 106 102 99 100 96 93 90 80 77 72 70 67 68 61 57 55 54 50 46 46 44 41 39 38 38 39 30 31 34 43 59 73 73 74 74
98 91 88 91 92 94 94 93 89 90 95 92 91 88 85 83 79 73 68 63 60 61 58 54 50 51 48 44 45 40 40 36 36 32 31 32 28 27 33 38 43 58 67 70 78
84 82 83 82 79 80 78 81 81 85 84 78 77 74 70 72 65 63 62 55 52 54 49 47 46 46 42 41 40 33 29 31 30 27 28 27 21 28 32 32 33 37 42 53 64

GFSSW_250_spd_117.txt.gz
Wind_Speed
70 69 70 66 68 67 66 64 61 58 60 60 64 63 65 69 65 58 61 64 58 53 56 58 59 58 56 54 55 57 56 58 56 52 55 54 56 51 43 42 42 44 43 40 38
74 75 73 71 69 71 69 66 65 65 61 66 67 67 65 64 67 64 66 64 62 63 60 60 62 65 61 56 52 50 54 52 53 53 55 61 57 48 39 39 43 43 41 45 44
74 72 74 76 75 75 75 69 68 67 69 67 67 65 67 65 71 68 68 70 71 74 72 64 61 61 63 63 59 54 53 53 58 57 50 53 53 49 42 54 56 55 57 59 60
77 77 76 74 75 76 76 73 71 70 67 69 70 69 69 69 70 71 73 69 73 73 72 71 71 62 60 57 55 51 57 61 62 50 44 50 52 58 63 64 64 60 62 61 61
83 81 79 80 77 78 77 76 74 70 66 63 61 64 68 74 72 70 68 68 69 69 69 66 61 58 59 56 54 56 61 62 52 48 52 58 62 64 65 70 70 70 70 70 70
88 84 84 83 80 78 79 77 76 73 70 71 65 69 74 76 76 70 68 69 71 69 66 65 64 59 58 60 61 63 61 60 60 62 60 59 59 61 67 72 75 76 75 77 79
85 84 84 82 83 82 80 82 80 78 71 73 75 76 83 78 74 75 74 72 72 71 71 70 68 63 61 65 64 62 64 66 66 64 61 61 62 65 67 71 74 80 85 87 89
88 86 83 81 80 80 81 80 78 79 74 73 74 83 83 81 78 79 75 72 71 70 73 74 71 69 67 64 62 64 65 65 68 70 68 67 61 69 77 82 84 86 89 91 89
90 91 86 82 83 81 79 80 81 78 75 77 83 84 84 84 81 81 77 75 74 76 77 76 75 73 69 68 65 65 62 67 69 71 71 72 65 74 80 85 87 89 91 94 91
90 91 87 88 86 85 83 85 86 86 88 81 79 81 83 85 83 82 80 78 81 79 79 79 74 71 68 67 63 63 67 70 72 77 77 77 74 78 86 89 90 90 92 92 90
97 98 94 93 94 93 95 93 93 91 87 85 84 82 81 82 77 79 82 84 82 82 79 76 73 71 75 71 70 69 71 76 82 85 84 83 81 81 97 99 100 96 96 93 92
97 101 100 101 95 97 97 98 95 88 85 83 82 79 86 82 80 82 83 84 79 77 77 76 73 76 75 75 75 78 79 80 83 88 89 87 84 86 97 99 99 99 102 101 98
106 105 102 99 96 97 98 96 92 91 88 80 82 78 82 83 80 81 80 80 79 77 80 79 77 77 79 82 86 82 82 86 87 91 90 91 86 90 98 100 100 101 105 107 104
109 109 110 104 100 102 101 98 94 95 90 81 85 85 89 91 88 88 85 83 81 83 82 79 85 87 87 88 90 89 91 89 89 92 93 94 96 97 99 98 101 104 105 106 103
119 116 113 112 109 112 109 106 104 104 100 93 90 88 91 93 93 91 90 88 87 87 87 87 89 90 90 90 92 89 90 92 93 94 94 98 106 98 99 98 103 103 102 99 90
120 118 114 113 112 116 115 114 112 112 103 102 95 93 94 96 95 93 94 93 92 90 89 90 93 92 92 93 93 93 96 98 97 98 99 102 104 98 98 102 104 102 97 88 78
118 116 113 115 115 117 116 116 116 108 98 102 97 96 97 97 96 95 96 94 93 94 95 95 92 95 96 97 97 97 98 102 101 101 101 103 104 106 106 105 103 97 84 73 66
121 120 116 115 119 119 116 118 114 99 100 105 104 104 102 98 100 99 98 96 97 97 97 97 97 99 100 102 102 101 105 106 107 106 103 105 108 108 107 100 94 82 74 63 55
124 121 119 119 123 124 126 127 108 104 105 110 113 106 100 99 101 101 98 97 97 100 103 103 101 103 104 105 107 107 104 105 107 105 107 108 106 104 102 93 78 67 62 52 50
126 128 124 124 127 128 131 128 112 109 111 110 110 111 106 105 105 106 106 103 104 105 107 105 104 105 106 105 103 106 108 105 104 107 107 105 100 99 89 77 65 57 50 46 48
133 131 129 129 132 134 131 121 115 112 116 116 113 115 114 112 112 113 113 112 110 108 111 110 110 107 107 108 112 112 110 108 110 108 102 97 90 81 74 63 57 49 46 43 49
138 135 132 135 138 137 130 125 122 120 120 121 120 119 119 120 119 118 116 116 115 113 111 110 114 112 111 111 107 109 107 107 106 97 87 84 72 68 61 57 50 48 47 44 50
140 138 138 139 140 136 133 132 128 124 124 125 125 124 124 123 123 120 119 117 115 113 110 108 111 107 100 98 97 93 91 92 89 82 73 71 63 60 52 49 49 47 49 47 48
141 138 139 140 137 137 134 133 131 128 127 127 126 126 124 121 120 116 114 113 112 108 106 105 103 97 94 90 85 82 80 84 78 67 65 60 54 49 48 49 50 47 48 45 48
135 131 133 134 132 134 136 133 128 125 123 124 120 118 118 119 116 111 107 107 106 103 97 96 94 88 86 82 79 73 72 74 69 59 57 52 46 45 49 47 46 44 44 46 51
120 120 122 125 126 126 128 123 123 120 118 116 114 114 111 108 103 103 101 97 94 87 84 79 80 79 75 74 73 70 67 65 62 55 49 45 44 46 46 46 43 42 44 47 51
105 107 108 112 117 114 112 116 115 116 112 106 104 105 100 96 98 93 95 92 80 77 76 75 75 74 69 68 67 61 58 57 52 48 43 41 44 46 44 43 42 41 41 44 50

GFSSW_250_spd_120.txt.gz
Wind_Speed
73 72 70 68 67 65 67 69 67 66 66 68 68 66 65 63 59 60 63 58 62 62 59 58 61 61 56 59 61 63 62 62 55 54 56 55 51 48 47 48 52 50 45 47 50
79 77 76 73 72 68 68 68 66 68 67 71 72 67 66 64 65 65 68 63 65 63 62 62 62 63 63 61 63 64 64 65 64 59 55 55 52 49 51 54 48 45 45 42 40
79 78 79 76 76 72 69 68 68 67 68 72 73 72 71 69 65 66 69 67 63 62 60 62 62 66 63 60 60 63 65 68 62 56 51 50 52 54 56 52 46 42 50 44 47
82 79 79 80 80 75 75 73 74 69 67 70 70 72 71 72 70 63 62 60 59 59 61 62 60 58 60 60 60 62 65 61 58 49 49 53 58 56 55 54 50 52 55 59 59
86 82 78 83 82 83 78 77 77 76 75 73 72 71 72 74 70 68 59 58 62 65 68 69 63 61 62 62 62 63 62 60 55 52 52 54 55 57 55 56 63 64 61 60 61
91 87 82 81 86 86 85 85 84 82 79 78 75 71 71 75 70 71 68 66 68 70 72 72 71 71 64 64 63 59 61 59 57 58 55 53 55 54 62 67 67 66 66 66 67
89 86 88 86 84 86 86 84 83 79 78 76 75 73 75 78 70 73 74 72 73 74 80 80 74 72 63 66 63 62 60 61 65 64 59 56 57 62 63 68 72 74 71 70 70
88 86 85 82 81 81 81 80 77 75 74 71 71 71 72 70 69 70 72 72 73 79 82 79 77 77 74 68 66 68 66 63 64 63 62 59 57 67 69 70 72 75 76 75 74
87 86 87 85 81 77 77 77 80 77 70 69 69 69 70 70 71 72 75 77 80 80 82 80 80 78 78 73 71 69 67 64 62 62 60 60 60 72 73 72 74 78 78 79 81
93 89 86 89 83 80 81 79 78 75 75 72 70 71 72 75 75 76 77 78 82 85 83 82 78 75 78 74 73 69 66 64 59 63 61 61 64 71 74 77 81 84 85 86 85
97 97 91 88 89 88 89 90 88 79 76 79 76 77 78 80 80 82 83 84 82 83 80 80 77 76 78 73 72 72 67 65 67 66 62 62 61 71 76 79 82 87 89 89 90
98 96 96 95 95 94 96 94 89 86 89 84 79 80 81 79 81 84 82 82 85 84 82 78 77 80 77 74 72 72 71 69 68 71 70 69 72 80 81 84 86 89 92 94 95
104 100 100 100 97 98 97 94 93 93 87 87 89 85 86 80 82 87 83 84 81 82 84 82 81 82 81 80 78 76 76 77 75 77 80 80 79 82 83 86 90 94 97 97 98
106 110 103 97 97 98 100 94 96 96 94 88 88 89 91 87 83 86 83 83 84 87 88 83 84 83 80 80 80 78 83 83 85 85 85 85 81 83 87 91 95 97 99 101 100
110 111 111 104 100 102 102 100 100 101 98 91 91 92 96 97 92 89 91 90 91 91 87 86 85 83 85 85 85 83 84 86 87 87 87 87 91 84 87 91 96 95 98 100 103
116 112 113 108 108 108 110 112 110 111 101 100 98 98 101 102 97 93 94 96 96 94 91 90 89 88 90 89 88 87 89 89 89 91 90 91 97 87 92 96 99 99 101 103 104
123 117 115 114 121 118 119 119 121 111 106 109 106 104 105 101 99 99 98 97 94 94 93 93 92 93 94 93 93 93 94 94 92 93 96 96 98 94 96 98 101 103 104 105 103
132 126 126 126 131 131 132 129 124 113 115 114 109 104 100 100 102 100 96 94 94 97 96 95 95 96 95 95 94 94 96 98 100 100 98 98 98 99 99 101 104 105 109 107 104
138 136 132 132 135 134 136 137 122 112 114 111 111 106 102 101 104 102 100 99 98 99 100 99 98 98 99 99 98 97 100 104 107 105 105 104 105 104 103 106 106 105 104 99 92
141 139 135 136 136 139 141 135 122 115 113 112 112 110 103 101 102 105 102 99 101 103 104 99 98 99 103 103 104 106 107 107 110 112 109 107 105 103 104 103 100 96 92 88 79
145 143 138 137 139 144 140 128 119 116 117 115 113 112 106 109 109 108 105 104 103 104 106 105 107 106 108 108 111 111 109 109 110 109 108 104 94 92 93 89 84 81 78 75 71
142 140 137 139 142 141 137 123 124 121 122 119 116 114 113 113 114 114 110 109 108 108 109 111 113 111 112 112 112 114 112 109 107 103 101 98 84 86 81 76 74 74 72 67 61
147 144 143 147 147 143 138 133 131 128 127 124 121 118 117 117 119 118 117 113 115 114 112 113 116 116 114 114 112 108 104 102 97 95 89 90 81 75 71 68 69 70 65 61 56
155 152 151 150 149 145 144 138 134 130 129 126 123 123 122 122 122 118 116 118 118 118 117 117 119 116 110 107 103 95 91 88 86 82 79 80 75 63 62 62 66 64 62 58 52
149 150 149 148 145 142 142 136 132 129 127 128 126 124 124 123 122 120 119 119 120 118 114 112 110 107 101 95 91 84 80 78 73 72 71 68 73 61 60 59 61 62 58 53 49
128 132 137 139 139 138 135 129 126 123 125 124 124 123 124 124 119 116 116 113 109 107 105 104 103 98 90 84 81 76 70 67 68 67 68 68 65 60 57 56 57 56 52 48 47
110 111 118 125 129 131 129 128 127 126 120 116 116 118 114 112 113 110 109 104 101 101 99 98 96 90 80 77 77 72 67 71 70 67 66 64 61 58 54 51 49 49 48 45 45

GFSSW_250_spd_123.txt.gz
Wind_Speed
71 73 76 67 66 70 73 68 66 63 63 62 65 64 64 63 67 65 65 63 63 60 57 56 60 62 63 61 59 59 59 58 57 53 49 50 50 57 63 61 53 46 46 47 49
75 74 76 76 73 72 71 73 69 67 64 66 64 62 62 63 65 63 64 67 65 62 59 57 59 62 61 55 51 51 51 50 51 50 50 51 52 54 58 55 52 44 47 51 51
79 76 76 79 80 80 75 71 74 69 69 69 69 68 65 64 64 64 65 66 66 66 63 61 55 50 48 47 51 54 50 47 52 55 56 56 55 56 59 54 49 47 51 50 48
84 83 80 81 83 84 81 76 73 74 72 70 67 70 69 72 71 68 69 67 68 67 60 58 53 49 51 58 59 60 58 61 63 58 57 55 56 55 57 53 52 53 52 52 47
88 84 83 79 81 83 83 83 79 78 77 78 75 76 74 73 71 72 72 71 69 66 66 60 59 60 60 58 58 61 64 63 58 58 56 55 54 52 54 56 59 58 57 54 50
84 87 80 79 78 79 82 81 83 83 77 74 76 80 80 81 75 80 74 72 69 69 65 63 61 62 63 62 60 61 63 61 62 61 56 53 54 54 55 58 61 61 62 55 54
80 82 80 81 79 79 79 77 80 79 82 80 77 76 76 78 71 68 65 65 66 64 61 58 60 62 63 63 62 63 64 65 65 62 60 62 63 59 56 57 59 61 63 62 60
79 82 80 75 79 76 77 76 75 77 78 76 74 73 75 70 67 65 64 62 61 62 59 58 60 63 67 67 68 70 68 66 62 64 63 60 59 62 60 57 59 62 67 72 73
81 82 80 75 76 77 77 74 71 70 72 73 71 70 70 68 62 62 62 59 61 63 62 64 65 66 69 69 69 68 64 63 66 68 69 66 59 63 62 57 59 64 69 72 76
90 89 86 81 81 80 78 79 77 71 71 71 70 72 70 65 66 64 63 63 65 67 69 70 69 70 76 76 68 68 66 63 63 66 66 63 62 62 62 60 64 68 68 70 73
96 93 91 88 83 81 84 84 82 79 78 73 74 71 72 69 70 68 70 70 72 74 68 70 69 75 75 71 74 73 67 64 68 67 63 67 67 67 66 64 67 69 73 73 74
101 97 95 94 89 89 87 86 85 85 83 83 78 76 76 75 76 76 74 72 75 77 77 76 75 76 77 77 74 72 70 74 72 73 66 64 65 64 65 69 74 77 80 83 85
106 106 102 99 96 91 88 92 88 88 85 88 83 83 82 80 80 81 79 76 78 81 80 80 80 80 79 78 80 79 77 77 74 72 71 67 69 66 69 75 80 84 87 89 90
106 104 103 102 99 99 95 92 91 95 86 83 89 85 86 87 81 81 79 78 83 87 85 83 88 87 83 84 84 82 86 83 78 76 74 73 75 73 73 76 82 87 89 90 91
111 109 107 106 105 103 105 105 101 95 96 91 87 86 91 87 83 82 84 84 86 89 91 93 93 91 87 88 87 86 86 86 83 79 76 77 81 78 80 81 83 87 90 92 94
121 113 109 114 114 112 114 114 109 106 95 94 91 90 90 91 88 87 88 90 92 95 97 98 97 94 92 92 91 88 87 86 86 86 84 85 87 77 80 84 86 89 92 97 100
127 124 114 118 125 122 123 118 111 107 94 98 97 97 97 95 94 93 94 98 98 98 98 100 98 96 94 96 96 91 92 91 90 90 90 89 88 82 84 88 93 96 100 102 105
137 138 134 132 136 130 128 125 115 100 104 102 100 102 104 102 102 102 102 101 100 100 102 104 102 99 98 99 96 95 97 97 97 95 93 89 85 87 91 96 100 103 104 106 106
148 144 137 134 137 134 132 130 114 105 108 108 108 106 110 107 108 110 110 107 109 110 108 106 103 101 100 99 98 97 99 99 99 98 96 94 93 93 97 103 104 104 104 103 98
148 142 138 138 138 138 137 130 115 115 115 118 114 114 111 112 115 115 116 114 112 111 109 104 103 101 101 99 99 101 101 101 103 103 102 101 98 99 103 107 107 102 98 92 88
149 143 136 135 136 143 141 125 121 123 121 121 122 121 120 119 120 120 118 117 115 113 111 107 106 103 101 100 103 104 103 104 106 109 110 108 99 102 104 104 98 93 89 85 81
155 150 143 142 143 140 133 122 123 125 128 125 124 123 123 123 122 121 121 120 116 114 109 109 107 106 105 104 107 108 109 109 110 112 113 113 100 101 97 89 87 83 79 77 73
152 153 149 150 150 143 134 128 125 121 124 125 124 124 122 123 123 119 117 116 115 114 113 112 112 110 109 108 109 109 109 110 112 115 108 106 90 85 84 80 78 75 70 66 65
127 143 150 154 148 145 140 135 131 128 128 126 123 122 121 120 120 118 117 118 119 118 118 118 116 115 112 112 112 111 108 109 110 102 95 87 85 77 73 72 74 68 63 61 64
116 122 134 142 146 145 143 137 136 132 132 132 129 126 126 125 125 123 123 124 125 124 122 120 119 117 112 113 111 108 107 102 95 88 90 77 77 72 67 67 72 68 66 63 62
100 103 114 125 133 138 140 134 136 134 135 134 132 132 132 130 130 130 130 129 126 123 121 118 115 112 108 109 109 104 94 85 85 83 79 77 67 68 66 67 72 69 65 62 59
88 91 98 106 117 123 124 128 134 137 130 131 134 135 134 132 135 132 130 126 122 119 115 113 112 110 103 102 101 94 83 79 77 76 75 73 68 64 67 68 66 63 62 59 55

GFSSW_250_spd_126.txt.gz
Wind_Speed
74 75 77 77 73 72 70 68 65 66 61 63 66 68 69 63 58 57 59 59 58 60 63 63 64 63 58 56 55 54 53 53 53 51 47 46 42 41 47 50 50 47 46 49 50
78 78 79 80 77 72 68 68 66 68 69 69 66 64 64 65 66 62 60 61 62 60 60 59 63 61 59 59 58 56 51 47 45 48 49 48 49 56 56 49 52 45 46 48 50
81 81 81 81 79 77 72 72 69 68 71 72 71 74 72 68 65 65 64 62 64 64 63 63 59 61 61 61 57 47 48 50 48 53 52 51 52 57 56 52 48 46 44 47 47
82 82 85 79 77 77 75 75 76 75 75 73 75 74 74 70 69 66 64 64 64 64 65 65 62 61 63 60 58 52 54 56 56 54 52 54 53 53 53 53 46 46 47 45 45
84 87 83 82 79 79 80 80 78 77 78 78 75 75 77 76 74 73 72 73 72 70 70 70 66 67 62 61 60 55 55 57 57 56 55 55 53 53 56 54 54 55 55 50 46
87 88 89 88 84 82 83 80 79 81 78 75 72 72 72 74 71 73 75 74 71 68 68 66 64 60 56 55 53 52 54 56 57 54 55 54 56 57 56 54 55 57 54 51 51
94 88 87 94 87 85 79 78 74 75 76 75 74 72 69 71 70 69 69 74 70 66 66 58 58 56 53 51 51 49 50 53 55 56 57 60 60 58 56 58 59 59 58 56 57
91 91 87 88 88 83 79 79 77 77 71 69 70 64 63 65 65 68 68 64 63 62 60 58 55 55 51 51 51 54 55 57 57 59 60 63 61 59 59 57 57 57 56 54 55
90 88 84 87 84 84 84 78 77 73 70 68 65 65 61 60 61 62 64 63 61 58 56 54 53 53 54 55 54 57 58 59 61 64 62 61 62 63 62 59 62 61 60 60 58
92 88 89 89 87 88 86 81 78 73 72 70 64 65 63 62 63 62 61 63 63 61 60 59 59 58 60 58 59 61 57 57 63 62 62 63 62 62 62 65 64 63 64 64 63
98 100 91 92 90 90 86 82 82 80 75 75 74 68 68 68 66 65 66 65 66 65 61 62 60 63 64 60 60 63 66 64 64 68 67 66 65 66 68 67 67 66 66 67 66
98 101 101 94 96 95 91 88 84 83 78 79 76 73 68 67 66 67 70 70 71 71 72 69 66 68 64 65 65 67 68 71 71 71 72 72 73 72 72 74 73 71 69 68 69
108 106 104 102 98 98 98 94 90 89 84 83 82 78 76 74 71 70 73 76 78 78 78 77 73 69 68 68 68 67 70 73 77 77 81 79 77 73 76 77 77 76 76 74 73
105 109 109 104 103 102 102 99 98 99 95 85 86 80 77 73 76 77 77 78 77 82 82 79 76 75 74 71 72 72 75 77 80 80 83 80 80 80 77 77 78 78 78 79 80
119 106 115 110 103 105 105 105 102 102 100 89 87 88 84 82 76 82 85 84 85 85 87 84 81 79 79 78 77 77 79 82 83 85 86 87 86 85 82 81 84 85 85 85 87
121 122 117 118 114 109 113 109 107 106 97 91 88 87 88 87 85 84 92 91 91 91 89 89 86 87 87 86 86 82 84 86 88 91 90 90 91 87 85 89 90 91 90 89 89
125 124 121 120 121 116 113 115 114 107 98 96 92 91 92 93 93 91 93 94 96 98 95 94 92 92 92 92 91 89 89 92 94 95 95 92 90 87 87 92 92 92 92 92 92
133 131 131 128 127 124 123 123 114 103 106 104 102 100 98 99 101 100 101 100 96 98 102 98 97 96 95 97 95 96 98 98 103 102 99 96 92 88 90 94 96 98 99 99 99
143 142 139 137 135 129 133 133 115 109 111 110 109 108 106 107 104 108 108 107 101 103 105 104 103 102 101 101 102 100 102 106 103 107 107 97 92 90 91 96 100 104 104 105 104
153 152 149 149 141 142 144 134 123 120 117 119 115 116 115 114 113 115 116 111 105 105 108 107 107 107 107 107 106 107 107 106 111 110 106 99 94 95 95 100 104 106 109 109 107
159 155 152 154 153 151 151 132 131 128 129 124 127 125 125 123 122 116 115 111 107 108 112 111 111 110 108 110 111 110 113 111 113 111 107 102 101 98 100 103 107 109 109 109 105
152 154 157 152 151 150 147 134 137 133 134 131 127 129 126 125 123 120 117 116 114 113 114 117 115 113 114 115 116 115 114 114 112 110 106 108 104 106 105 106 107 107 105 100 94
133 141 142 140 146 148 140 143 140 137 135 134 128 125 121 121 122 119 118 118 117 114 113 116 116 117 117 117 116 116 114 112 110 110 108 114 109 105 104 99 101 99 95 93 86
121 129 130 125 124 134 144 148 146 143 139 134 130 129 127 120 122 122 120 119 119 119 118 118 118 116 112 113 113 111 111 111 112 112 115 115 114 106 101 95 96 92 89 85 83
109 117 116 113 109 115 128 136 144 145 140 139 135 132 131 128 124 123 122 123 123 119 117 117 114 115 111 111 114 115 116 115 115 116 118 108 107 96 103 92 88 84 80 77 77
99 101 104 104 105 102 110 117 129 140 142 143 140 136 135 132 129 128 129 128 127 124 121 120 116 118 115 117 119 121 119 118 120 119 115 106 93 99 92 87 82 81 74 73 71
92 92 93 92 93 97 98 104 110 122 134 140 140 139 137 132 133 131 130 130 127 124 121 121 122 123 121 122 125 126 118 121 119 111 107 100 91 87 83 83 77 74 71 70 68

GFSSW_250_spd_129.txt.gz
Wind_Speed
73 72 73 71 70 69 68 69 68 70 69 70 68 67 64 56 56 57 55 59 59 57 51 51 53 56 61 61 61 58 55 55 56 57 50 48 44 47 43 45 46 46 47 46 47
79 76 76 73 73 71 74 75 73 73 73 71 70 68 64 62 60 62 62 63 64 62 60 54 56 60 59 58 56 60 60 59 55 52 43 43 46 47 45 48 47 47 48 45 42
84 83 80 78 79 77 77 77 76 75 76 75 71 69 69 67 67 66 64 64 62 60 58 55 54 56 55 59 60 60 58 55 55 56 46 49 53 53 52 50 49 51 46 47 46
86 84 82 85 83 83 80 79 78 77 77 75 69 70 68 71 71 68 68 68 68 68 67 68 66 66 62 63 61 61 55 54 51 54 48 51 57 57 55 54 51 51 49 50 46
91 85 85 86 84 84 85 80 78 78 77 76 73 72 72 76 73 74 76 73 70 68 65 66 68 68 68 63 66 62 57 54 50 49 48 53 55 56 56 53 50 50 51 50 47
88 89 88 87 85 86 86 84 81 76 82 82 82 76 72 75 75 73 71 70 67 66 65 66 63 63 64 66 67 62 54 51 50 45 47 51 51 53 51 52 51 55 55 49 54
94 92 94 94 96 91 89 87 87 85 81 83 86 82 75 77 72 72 71 69 67 64 65 60 60 62 60 57 57 55 54 50 46 45 44 49 52 51 54 56 58 58 56 53 56
95 97 94 91 87 85 91 92 93 89 86 84 86 84 78 74 74 75 70 66 63 61 61 62 62 59 57 55 54 53 52 48 46 52 49 52 55 50 55 57 58 59 58 56 58
91 94 89 87 84 80 81 96 94 89 84 86 84 80 75 74 72 73 66 67 63 59 63 55 55 55 56 54 51 51 51 51 50 53 52 57 59 61 58 53 56 57 57 58 60
91 89 87 86 84 84 82 82 87 84 85 80 81 79 72 75 73 70 66 61 61 61 55 56 56 54 56 57 56 57 57 58 58 55 54 56 57 60 61 62 66 67 69 71 70
92 94 92 89 90 86 85 83 82 86 80 77 75 79 75 76 72 71 71 69 62 61 60 58 55 59 61 57 59 57 59 60 62 62 57 61 61 60 59 62 64 69 72 73 73
101 97 96 93 93 96 95 91 89 87 81 84 80 79 76 74 72 71 73 70 66 64 60 61 57 58 59 62 64 65 65 65 68 68 66 67 64 63 65 66 69 73 76 78 76
105 105 101 104 99 98 100 98 98 94 90 86 85 82 78 76 76 71 73 76 74 71 73 69 65 59 63 65 65 66 68 71 70 70 69 70 68 69 64 69 75 78 79 78 80
112 115 111 104 103 104 102 103 100 98 98 92 91 85 82 82 78 79 80 81 79 76 74 71 69 65 68 68 69 67 69 72 75 73 72 68 67 73 75 72 78 80 80 82 86
121 119 115 114 111 107 106 108 110 105 105 98 86 87 87 89 85 83 82 83 80 82 81 75 76 70 75 77 74 76 73 76 76 80 79 79 81 80 80 78 81 83 85 88 89
125 122 123 118 113 113 110 110 114 117 105 100 86 92 91 92 93 88 89 88 85 84 80 80 76 78 80 78 77 78 79 81 83 84 83 88 89 82 88 84 90 92 92 91 96
134 133 129 125 120 120 115 116 119 113 108 104 94 92 93 94 94 92 91 91 88 88 82 85 83 84 82 82 81 81 84 84 85 90 90 93 91 87 92 91 97 97 98 101 99
136 141 134 138 130 124 124 125 121 107 110 109 99 106 101 96 101 95 95 93 89 88 93 92 91 91 88 88 90 87 89 92 93 94 91 96 91 95 99 98 102 103 103 107 110
147 145 143 141 135 136 136 133 122 108 117 115 110 102 107 106 103 104 100 99 97 96 99 99 100 95 94 96 94 93 94 93 96 95 97 97 99 101 98 101 104 107 112 111 109
155 154 150 150 145 147 148 145 128 113 123 122 115 115 114 110 110 104 106 105 106 104 107 105 109 102 101 101 101 99 97 101 105 98 103 100 101 102 102 103 109 112 113 114 109
154 156 155 149 155 150 154 147 134 129 132 126 122 121 121 119 115 114 115 112 111 111 111 109 113 110 105 106 108 110 109 106 104 103 104 105 105 107 109 109 112 116 113 108 108
138 149 143 141 154 158 156 147 140 142 141 132 133 130 127 126 122 124 122 119 115 115 118 119 114 114 111 113 113 113 107 111 111 107 110 109 104 113 110 113 109 106 106 110 113
124 129 125 132 136 137 145 146 147 146 144 137 135 134 133 132 125 125 126 125 120 122 123 121 119 117 115 118 118 115 113 113 114 110 105 110 107 109 109 108 109 109 109 112 115
109 115 120 127 129 121 121 127 137 141 147 145 139 139 133 134 131 130 128 128 121 120 119 121 120 123 122 118 120 117 113 117 112 111 107 108 108 110 110 114 117 111 113 116 115
101 108 111 114 111 108 113 116 121 128 135 141 142 142 140 137 131 132 131 130 125 123 122 119 119 120 119 118 120 118 116 114 113 113 115 111 115 112 116 119 122 112 114 121 117
91 95 98 98 102 105 109 105 100 108 119 123 132 140 145 144 140 137 135 135 134 128 124 125 125 124 122 119 121 123 118 114 118 115 117 119 117 114 118 121 122 121 121 118 106
84 86 88 91 96 98 98 96 96 98 102 109 115 123 132 139 143 143 141 139 137 132 130 130 130 128 128 127 127 128 113 122 121 119 120 122 119 116 121 124 122 123 118 105 96

GFSSW_250_spd_132.txt.gz
Wind_Speed
65 68 72 71 68 66 68 66 63 65 68 63 64 62 62 63 62 63 63 60 55 52 49 52 55 58 55 48 48 51 53 54 54 51 53 56 52 49 47 45 44 47 46 43 45
72 73 74 73 78 74 73 70 67 67 69 68 66 65 66 66 66 65 65 62 60 61 56 56 57 60 60 55 47 49 51 49 54 53 51 52 47 44 41 46 47 52 50 51 50
81 79 81 78 77 81 81 82 78 73 70 69 69 69 71 70 70 65 66 61 61 62 62 61 60 60 62 61 55 55 61 60 57 60 55 55 51 45 46 43 51 54 55 56 55
86 87 86 83 83 82 84 82 83 79 76 77 76 74 73 74 73 70 69 67 62 61 63 63 63 66 68 71 68 69 65 64 64 64 62 59 56 50 45 42 50 57 57 51 48
92 92 89 89 88 87 87 82 84 84 78 78 79 76 75 76 76 71 71 71 69 63 61 65 69 67 67 68 64 65 64 62 61 60 59 58 52 48 45 39 51 53 55 47 45
98 95 93 93 91 91 88 84 86 87 85 81 79 77 75 76 72 69 71 72 75 74 74 66 68 69 68 67 66 62 60 59 60 55 55 51 49 45 42 45 54 51 48 48 57
101 99 99 93 92 89 85 85 88 88 87 88 84 80 78 81 75 74 75 74 74 76 72 69 70 68 69 64 64 67 65 60 59 55 49 50 47 47 43 48 51 50 51 51 61
103 106 102 100 97 91 87 88 91 93 92 91 88 88 84 84 81 79 78 77 76 74 74 74 72 70 65 62 61 62 60 60 57 48 46 47 49 48 47 54 55 56 57 53 56
109 106 100 100 96 96 88 86 90 93 94 92 90 80 78 83 82 84 83 78 75 75 71 68 68 66 63 62 60 62 58 53 50 46 46 50 56 56 52 53 53 58 57 56 58
107 106 100 99 97 96 93 89 86 87 88 88 83 77 73 71 75 81 81 77 72 72 72 72 69 64 59 62 57 54 49 51 53 46 51 50 60 59 57 56 53 65 64 63 63
112 105 101 100 99 99 98 93 91 88 80 79 78 75 70 70 72 74 72 72 71 68 71 70 66 64 63 60 56 56 55 51 53 57 48 50 61 63 64 65 56 67 65 66 66
111 108 106 106 101 100 97 98 94 86 83 79 79 75 76 71 68 69 67 70 69 67 69 64 63 69 64 61 56 56 56 54 53 54 56 53 54 55 60 61 61 68 66 66 66
115 113 110 104 104 103 100 98 96 91 86 79 81 77 81 77 75 75 77 74 70 70 69 63 65 69 68 64 62 65 65 68 64 61 61 57 56 58 58 61 63 68 71 76 78
124 119 116 111 110 109 108 106 98 97 98 81 89 84 83 83 77 85 80 81 76 73 76 70 69 68 71 71 70 68 65 66 62 66 66 67 66 65 65 67 64 72 79 81 80
129 127 120 119 114 112 115 113 106 102 103 92 89 88 89 91 88 89 84 85 81 80 78 70 72 74 70 72 72 69 69 68 67 68 69 68 71 66 74 71 71 74 79 84 87
135 134 131 123 125 122 117 124 113 112 109 104 93 91 98 95 95 94 92 90 90 86 79 76 79 75 78 75 79 76 70 72 70 71 67 70 77 68 81 81 77 76 81 84 88
137 133 134 132 130 130 130 129 128 124 111 107 106 102 101 101 103 99 96 95 92 94 88 84 84 81 80 82 81 77 76 78 79 77 69 78 81 75 79 83 86 84 84 90 91
142 141 139 130 136 130 132 137 137 119 117 111 114 111 101 103 102 104 101 96 91 94 95 94 89 86 84 81 83 83 83 81 85 85 83 84 81 84 85 84 90 94 89 93 94
148 147 143 135 138 133 135 142 135 128 120 118 123 119 105 107 110 109 101 98 100 100 97 96 91 94 90 85 87 84 83 88 89 89 91 90 92 95 91 90 92 94 99 94 97
145 146 146 144 144 145 138 139 132 128 125 135 133 121 117 117 115 113 108 99 102 103 106 101 101 95 93 91 91 95 91 93 96 94 96 91 95 97 101 96 99 102 101 101 105
129 143 144 143 150 153 150 147 139 127 129 139 135 129 123 122 121 117 113 109 106 109 110 107 105 104 103 92 96 98 103 101 103 99 102 100 99 100 102 106 107 108 110 111 110
120 125 127 138 152 148 149 144 139 133 129 134 133 131 127 129 127 119 116 119 119 116 112 113 116 112 106 103 103 107 106 110 109 106 107 105 103 105 109 110 112 111 112 109 112
106 110 119 128 139 138 137 144 147 148 142 140 129 129 125 121 128 119 115 118 120 122 116 113 116 116 112 110 107 114 111 113 113 113 112 113 101 107 113 114 117 117 115 109 112
96 99 107 115 123 127 120 124 133 138 146 147 148 143 134 125 123 110 111 123 124 122 123 124 121 113 112 110 116 117 112 113 114 117 109 112 109 108 111 116 116 116 120 116 111
87 88 95 105 110 112 114 113 114 116 123 135 145 150 147 143 133 130 128 135 129 128 125 124 125 126 123 117 119 122 119 116 115 114 116 109 116 109 112 117 115 117 121 119 118
78 80 90 96 102 104 106 101 100 103 109 116 124 130 139 147 148 148 149 152 143 140 141 139 134 129 126 128 124 124 121 118 118 117 117 114 113 114 116 115 118 120 123 120 119
71 74 84 88 93 91 90 94 94 99 102 102 102 111 118 123 132 138 143 148 151 148 146 145 140 137 132 130 131 132 123 123 121 120 123 124 118 118 121 122 124 128 122 123 121